GFSCGP_250_spd_000.txt.gz
Wind_Speed
18 18 16 14 10 8 8 11 13 15 16 16 15 16 16 15 17 17 17 15 14 15 14 13 13 14 16 17 18 18 19 19 19 19 22 23 23 24 24 24 25 27 30 29
21 21 19 16 14 10 8 8 9 11 12 12 14 12 10 12 11 14 15 13 12 14 16 17 17 17 19 21 22 21 21 22 23 23 26 29 31 31 29 28 27 28 27 29
25 24 22 20 18 15 11 9 7 8 9 11 11 11 13 13 11 13 15 15 15 15 18 19 18 18 18 18 20 23 25 28 30 30 31 32 34 33 33 34 35 34 31 31
30 26 26 24 22 19 15 13 11 9 8 10 9 12 8 9 10 15 15 15 15 15 16 19 20 19 20 22 25 26 28 29 32 33 34 37 40 39 37 36 36 36 35 35
36 32 30 29 26 23 21 18 16 14 12 12 13 8 14 13 14 14 15 16 17 19 19 22 23 25 25 26 27 29 31 31 33 36 38 41 42 44 44 42 39 40 39 39
39 38 37 35 32 29 26 23 21 19 18 16 16 18 11 14 17 18 19 21 25 24 24 25 27 30 30 30 31 33 33 35 36 40 41 42 45 48 48 49 48 46 45 44
47 44 42 39 38 35 32 29 26 24 23 23 21 22 20 18 18 20 17 21 26 28 30 29 29 32 33 35 36 38 39 40 42 43 46 47 51 53 52 54 53 51 47 44
49 46 44 45 43 40 38 35 33 32 27 28 24 26 26 23 21 22 22 23 29 31 33 35 35 36 36 38 39 41 42 43 45 47 47 48 51 53 57 59 59 57 55 50
55 52 49 46 47 45 45 42 40 37 36 35 31 29 31 28 29 28 28 31 28 34 36 36 38 38 40 40 41 43 45 46 48 51 52 54 57 58 58 62 62 60 57 55
58 57 51 49 49 48 50 49 47 44 42 41 41 39 33 28 34 32 32 33 35 34 40 40 39 40 43 43 45 46 46 49 51 53 55 55 58 62 64 67 67 64 62 60
64 61 56 54 49 51 54 53 53 50 48 46 49 43 40 37 40 38 37 36 37 40 38 44 44 43 46 47 49 49 49 51 54 56 58 58 60 62 66 68 68 67 65 63
68 65 62 55 53 58 56 55 55 57 54 54 52 54 44 45 47 45 45 44 44 43 44 46 47 47 51 52 53 54 54 55 58 60 61 63 65 67 69 72 71 71 68 67
74 70 66 64 59 58 59 58 58 59 60 57 56 59 52 50 49 47 48 48 48 50 48 50 52 51 53 56 57 58 58 58 61 62 64 66 70 72 74 75 76 74 72 71
82 76 68 66 65 63 62 64 61 61 59 59 59 66 54 57 53 52 56 51 53 50 53 53 54 52 54 58 61 60 62 62 64 67 69 71 74 77 78 79 78 76 76 75
87 80 75 70 69 68 67 63 64 62 61 62 60 65 62 64 52 54 60 60 57 56 56 55 57 57 56 62 64 65 67 67 68 72 72 74 76 79 82 85 82 80 80 79
87 83 77 76 76 73 71 69 65 64 64 62 64 65 67 66 56 56 63 65 63 61 63 62 58 62 62 64 67 68 68 73 74 75 76 77 79 81 83 87 84 84 85 81
85 85 85 82 79 78 76 68 70 71 69 67 65 70 73 65 60 61 65 68 67 66 67 66 70 65 64 66 69 70 74 75 78 79 79 80 83 85 86 89 88 89 89 81
85 87 88 84 84 86 74 76 76 77 73 70 70 71 72 68 63 66 67 68 69 70 70 71 71 72 68 70 72 74 76 78 79 81 80 82 85 87 90 90 90 90 91 77
87 80 82 86 88 83 84 85 82 81 74 76 79 74 75 70 63 70 69 68 70 71 72 73 74 75 72 75 73 77 78 80 81 82 82 84 87 91 93 92 91 92 86 69
78 80 65 64 90 89 84 88 86 84 78 81 82 78 75 74 68 73 72 72 71 73 76 76 76 74 76 77 75 79 81 82 85 84 86 89 92 93 94 93 93 94 80 71
83 93 93 96 88 87 86 90 85 85 79 87 89 84 78 76 76 80 76 76 75 76 76 78 76 76 76 79 77 83 86 87 86 87 90 93 93 96 96 97 98 94 78 75
85 94 91 94 94 90 90 95 92 90 80 86 91 86 83 83 86 83 83 80 76 81 80 79 76 75 77 79 81 85 89 91 92 94 96 96 93 98 98 98 96 84 78 77
90 90 81 73 89 91 90 94 92 90 88 83 88 88 85 87 86 84 85 89 78 78 82 78 77 77 79 81 84 90 94 97 97 100 100 96 102 100 101 102 93 81 78 71
86 79 83 88 83 67 61 76 89 94 93 88 89 87 88 90 88 86 87 90 83 82 81 80 78 80 80 81 87 96 100 97 110 104 95 107 103 102 101 90 83 82 84 89
64 67 76 88 76 55 81 85 88 89 90 89 90 89 88 87 86 87 87 87 85 84 83 82 80 81 80 69 74 76 65 109 106 103 101 107 108 105 87 82 62 99 94 94
71 69 64 79 83 85 84 86 87 87 87 88 87 86 87 86 86 87 85 85 85 86 88 84 82 77 65 50 87 96 106 97 100 98 104 110 104 91 92 89 91 94 93 91

GFSCGP_250_spd_003.txt.gz
Wind_Speed
20 16 14 12 9 7 6 6 7 10 11 12 11 10 10 15 14 14 13 12 12 13 13 15 14 13 14 15 15 17 18 19 19 19 21 23 23 24 25 25 25 27 29 31
26 23 18 15 13 10 7 6 3 5 7 6 10 9 5 12 10 8 10 11 10 12 12 12 12 13 14 16 18 20 22 20 20 21 22 24 26 29 31 30 30 29 29 31
33 27 24 20 17 15 11 9 6 6 3 6 8 7 6 2 9 7 11 11 12 14 15 16 17 19 19 18 19 20 21 22 22 24 25 28 30 33 34 34 35 36 33 35
36 30 27 24 23 21 18 14 12 9 8 8 4 7 3 2 3 4 8 8 8 10 13 16 18 20 20 21 21 22 22 24 25 26 28 30 31 35 38 40 41 44 42 43
43 35 29 28 28 25 25 21 17 14 12 13 10 7 10 8 7 6 5 11 11 15 15 17 19 21 20 20 21 23 25 27 28 30 32 34 34 36 38 39 42 46 48 49
44 40 35 35 33 31 30 28 25 21 20 18 14 14 14 14 16 14 10 9 12 18 20 22 21 25 23 26 25 26 28 30 31 32 35 38 39 41 43 45 48 50 52 54
48 46 45 42 38 35 34 34 31 29 25 24 21 21 14 16 18 20 20 18 18 21 24 25 28 29 30 31 32 31 34 35 37 37 39 42 47 48 48 47 51 53 54 56
48 46 46 47 45 42 37 36 36 38 31 31 29 24 23 21 22 23 25 26 23 22 23 28 31 35 34 34 39 37 38 38 41 42 44 46 47 50 53 53 55 58 59 61
55 53 52 49 49 46 42 39 45 40 38 37 34 33 30 29 26 27 28 28 31 31 29 28 34 39 38 37 40 42 42 45 44 43 49 50 51 52 56 57 58 60 64 64
59 59 56 54 53 48 43 47 44 44 46 44 42 36 34 34 34 40 37 34 34 36 36 38 38 42 43 42 44 46 44 45 46 48 50 53 54 57 60 62 64 64 66 69
66 63 62 59 55 53 48 49 47 48 49 48 49 42 39 38 38 43 44 45 40 39 42 43 41 44 47 46 47 48 47 48 49 52 51 55 54 59 62 64 66 68 70 74
69 69 71 63 58 58 55 51 52 51 52 52 52 48 45 46 47 43 43 46 54 50 45 45 44 46 50 50 52 52 52 50 51 55 56 55 58 62 64 66 67 70 71 75
78 76 74 71 65 61 58 57 55 53 59 54 57 55 51 48 51 48 49 50 51 54 57 54 48 49 54 55 56 56 56 56 56 57 59 59 63 66 68 70 71 73 75 79
84 80 79 73 71 67 64 63 61 58 61 60 60 62 54 52 53 53 52 53 52 56 57 58 59 55 55 57 58 60 59 60 58 61 63 64 67 69 73 76 77 78 79 81
79 78 78 76 76 74 71 67 65 62 61 63 64 67 57 56 59 57 55 57 55 61 60 60 61 58 58 60 62 63 64 64 65 65 64 67 69 73 76 78 81 81 82 85
80 80 77 75 78 79 76 70 66 66 63 66 70 72 62 62 62 56 54 59 58 62 69 64 60 60 60 63 63 65 67 70 67 64 69 71 69 78 79 81 82 81 86 88
81 82 78 76 74 78 76 72 74 72 73 71 72 75 69 64 65 61 57 62 61 64 70 68 66 64 62 64 66 67 66 53 74 72 68 70 72 79 81 83 81 82 89 91
85 86 81 76 75 75 67 76 78 81 81 80 77 77 71 68 68 66 61 65 66 68 72 70 70 66 65 65 65 67 66 69 71 67 73 71 80 83 84 85 82 81 93 93
86 85 85 83 78 71 72 74 82 82 82 83 82 83 79 77 76 71 66 70 69 72 71 74 72 67 69 70 70 70 70 74 75 75 72 80 85 86 86 87 84 81 96 92
85 89 88 82 82 81 75 82 83 83 83 84 84 87 85 79 75 73 73 80 78 71 70 76 76 71 72 74 74 75 76 76 76 66 81 86 88 87 87 85 77 89 96 100
86 91 88 85 85 80 83 84 82 82 85 84 85 92 85 82 81 77 81 83 81 78 73 76 76 77 75 73 74 76 77 79 75 79 89 94 91 86 84 66 71 92 96 96
69 91 93 88 85 85 89 82 81 86 79 83 81 84 88 91 87 83 85 88 88 81 79 74 82 82 78 77 75 74 78 79 82 87 91 86 75 73 66 65 76 93 102 97
96 95 93 91 91 84 77 90 84 82 78 76 77 72 74 84 86 86 86 87 91 89 82 73 77 83 81 79 77 74 75 78 79 77 80 64 60 63 81 91 91 92 103 114
83 85 77 89 96 84 83 80 80 82 81 80 88 92 93 91 89 87 86 85 88 89 89 82 75 76 80 79 78 75 74 65 54 38 58 47 79 82 90 93 110 115 114 108
85 86 88 87 86 80 78 82 82 82 83 70 58 69 72 73 78 81 81 79 82 90 91 85 83 79 80 81 80 74 72 60 53 49 78 84 91 100 106 111 113 114 112 97
87 85 84 82 82 77 74 77 76 69 64 61 65 75 80 78 82 88 85 84 82 80 85 84 88 87 84 83 79 72 70 73 73 74 78 84 93 104 104 106 108 103 95 95

GFSCGP_250_spd_006.txt.gz
Wind_Speed
20 17 13 8 7 8 8 7 3 4 6 7 7 6 5 8 10 10 9 8 10 12 10 11 10 11 11 12 13 14 13 14 15 17 18 20 21 23 26 26 28 27 30 29
28 25 20 15 12 9 8 9 9 4 2 2 2 2 5 7 7 8 8 8 11 10 11 12 13 14 14 14 14 16 18 17 17 20 21 23 25 25 28 30 31 33 34 35
35 32 28 24 19 15 11 8 9 11 8 6 4 4 5 6 6 5 4 3 4 6 8 10 11 13 13 14 15 16 17 19 21 21 23 26 28 29 30 32 33 35 37 40
42 35 33 30 25 21 18 14 12 12 11 9 10 6 6 5 4 9 7 4 5 8 11 12 14 12 14 14 17 20 23 24 25 25 26 26 27 30 33 36 38 40 40 41
47 42 40 36 31 26 24 21 17 15 16 12 9 13 11 8 10 12 12 11 12 12 16 14 17 17 17 18 19 20 22 24 26 28 29 30 32 36 38 39 42 45 47 49
49 47 43 42 36 33 32 27 25 20 19 20 14 14 13 14 14 14 15 14 16 14 18 17 20 20 21 22 22 22 26 28 29 30 31 33 34 37 39 40 42 45 47 50
50 45 45 47 44 41 37 34 33 27 26 25 20 18 20 16 17 16 17 18 20 22 23 20 22 25 25 26 27 27 28 32 33 36 37 37 37 39 39 40 45 49 53 56
55 51 47 49 48 48 46 44 37 34 33 30 25 24 26 22 22 20 24 25 24 24 25 26 27 29 31 31 32 32 34 36 38 39 40 42 45 45 44 45 47 52 54 57
56 51 53 52 52 50 50 44 44 43 38 34 33 31 30 27 29 29 29 32 32 34 34 37 38 37 38 38 34 37 39 40 40 41 43 46 48 47 49 48 52 55 57 60
63 62 62 59 58 54 49 48 46 45 43 41 39 35 34 33 34 35 39 36 31 35 39 42 44 43 42 43 42 42 43 44 45 44 45 49 48 50 53 53 55 57 59 62
69 66 65 66 57 56 55 51 49 52 47 45 45 43 40 38 40 39 41 40 39 37 42 42 44 46 45 46 48 48 47 47 47 47 50 49 54 54 57 56 56 61 62 65
74 72 73 62 63 61 61 57 53 53 50 48 47 48 45 43 44 42 42 43 47 45 42 45 47 47 49 51 52 51 51 51 52 52 52 53 57 60 62 59 59 63 64 68
80 74 76 72 68 64 64 60 57 56 54 50 54 50 52 47 47 46 47 48 50 49 48 46 49 49 51 52 54 55 55 55 55 54 50 55 60 65 59 63 69 64 68 69
85 78 79 74 69 70 71 68 63 63 60 62 59 57 52 51 49 49 51 49 51 49 48 49 53 53 51 53 56 54 55 57 57 57 58 56 56 55 60 71 73 68 74 71
81 76 78 75 77 77 74 73 71 68 65 67 68 64 57 55 54 52 51 50 54 55 53 55 57 56 55 55 58 58 58 56 56 58 54 56 53 59 71 73 74 75 78 74
80 77 75 75 77 78 76 72 72 72 73 71 71 66 63 60 62 59 55 51 54 60 57 57 59 59 57 58 59 59 59 59 57 57 60 60 60 69 70 73 78 82 72 80
80 75 76 74 74 73 74 70 72 73 71 74 70 66 68 66 69 64 59 60 61 63 62 63 66 62 60 61 62 62 62 62 59 61 60 55 64 68 73 77 79 72 81 84
78 76 76 76 73 75 72 68 69 70 69 70 70 73 73 72 72 68 68 69 69 69 68 70 73 69 64 63 64 63 64 63 60 62 67 70 69 72 73 76 74 79 87 91
83 80 80 79 75 72 74 73 74 76 75 72 69 67 68 69 72 72 71 73 71 73 74 75 76 73 71 71 69 66 65 63 62 64 65 66 74 72 75 74 80 81 84 84
90 90 84 85 83 79 75 77 79 79 81 78 75 71 70 71 72 72 75 76 74 76 79 80 82 80 78 74 75 72 69 68 66 67 69 69 70 63 70 77 72 74 62 57
90 91 89 86 82 80 80 81 80 79 81 79 78 79 77 78 79 77 76 76 75 77 76 80 79 85 78 80 80 77 73 71 68 63 59 63 69 68 66 73 74 51 42 45
89 88 88 89 90 89 84 83 81 81 83 84 82 80 79 79 77 83 78 81 77 72 72 76 77 72 78 84 81 80 74 67 63 63 66 67 68 69 66 59 44 43 52 52
80 80 85 87 87 83 84 85 83 84 85 85 80 83 82 81 80 84 81 79 69 73 76 75 74 78 78 78 76 75 71 71 68 59 60 58 55 49 24 55 55 59 64 83
73 78 80 77 77 81 84 85 86 85 84 82 78 75 75 75 76 75 71 69 74 80 81 80 82 79 67 63 65 70 70 62 69 71 62 64 56 40 47 64 66 78 94 97
75 74 72 73 71 64 70 76 77 79 82 78 62 51 51 64 76 74 75 77 81 80 77 75 74 70 72 71 74 69 68 65 66 64 64 61 51 55 69 86 96 102 99 105
76 73 67 69 70 65 72 71 74 64 59 67 67 71 79 77 77 77 77 84 83 86 80 76 71 79 75 67 64 62 63 70 68 69 73 72 75 74 77 82 89 94 97 99

GFSCGP_250_spd_009.txt.gz
Wind_Speed
24 23 16 10 6 4 4 6 6 4 5 3 3 4 5 8 8 7 6 10 9 8 11 11 11 12 12 12 12 13 14 14 14 16 16 17 18 21 24 25 26 27 29 30
32 33 23 18 13 10 8 4 4 6 7 6 4 2 4 2 5 3 5 5 7 6 9 10 10 9 9 11 12 13 14 15 17 19 20 20 22 24 26 27 29 29 30 32
40 42 27 26 23 18 15 11 7 6 8 9 8 6 5 8 5 6 3 1 3 5 6 7 7 7 9 11 13 14 15 17 19 20 21 23 25 24 27 29 30 30 32 35
45 44 34 34 30 26 22 18 14 11 8 11 11 10 9 8 10 8 8 5 7 9 9 11 10 12 12 13 16 18 20 22 23 25 27 28 29 29 30 32 32 33 34 37
47 46 39 41 40 34 31 23 20 18 15 11 14 13 15 11 12 13 13 13 11 13 12 14 15 16 16 16 18 21 24 24 25 27 30 32 32 33 34 35 37 38 39 41
56 50 43 42 46 38 36 28 26 22 22 20 16 19 17 15 18 17 14 15 18 16 17 19 19 16 19 20 21 24 27 29 30 30 31 32 35 36 37 38 38 41 43 44
57 53 45 47 47 41 40 37 33 31 27 30 20 22 21 18 21 20 19 20 18 17 18 21 21 20 23 26 28 31 32 33 33 34 36 37 37 38 40 41 40 41 45 47
63 61 50 48 49 46 50 45 41 40 37 36 25 24 29 25 24 27 26 28 28 27 26 26 29 31 31 30 31 33 35 37 38 37 40 43 43 44 45 43 43 45 45 47
66 63 60 55 56 57 53 47 48 45 41 38 31 31 34 33 32 30 33 35 35 36 35 33 34 35 36 34 34 37 40 40 42 42 43 46 47 50 51 48 45 47 50 51
71 70 68 63 63 58 55 54 49 45 42 39 37 38 39 39 36 37 39 41 40 39 40 41 42 41 40 40 39 41 43 44 45 45 45 46 47 51 54 52 52 53 56 49
75 71 73 72 66 62 61 56 51 49 45 42 41 39 42 41 39 40 40 42 42 44 43 44 47 46 44 44 45 44 44 45 45 45 46 49 50 53 55 55 56 57 54 50
74 75 82 72 68 68 65 61 59 56 50 50 47 43 42 41 43 43 43 42 44 46 47 45 46 47 47 48 49 49 48 49 47 49 53 53 53 53 55 56 53 57 60 60
78 77 81 79 77 72 66 62 63 58 59 55 51 45 49 46 46 45 46 46 49 48 47 48 49 49 50 53 55 54 51 53 51 51 53 55 56 57 58 60 63 61 63 62
86 81 82 78 71 71 70 68 67 65 62 58 54 52 53 50 48 46 48 45 47 51 54 53 53 55 57 57 56 55 58 57 55 56 56 57 57 59 63 64 64 65 65 68
84 80 79 77 78 79 78 77 75 70 65 65 61 61 58 55 53 51 51 51 49 51 56 57 56 57 56 59 61 63 62 60 60 58 57 61 60 52 57 59 63 66 67 74
86 80 79 78 80 85 82 79 78 74 71 70 66 62 61 59 58 58 58 58 56 57 61 61 58 58 60 63 64 63 63 64 63 59 59 60 56 52 66 68 73 72 79 73
86 80 79 74 77 83 87 81 78 76 76 73 68 65 69 66 63 63 65 62 61 62 64 67 63 64 66 69 70 67 67 69 67 64 65 59 69 49 58 70 79 80 79 74
85 80 78 73 80 87 83 79 78 79 80 78 67 69 72 73 68 66 64 62 63 64 67 69 70 72 73 73 71 70 72 73 72 69 66 63 39 62 71 79 80 78 72 73
86 84 83 79 81 80 80 80 80 79 78 76 70 70 70 69 65 60 57 60 62 64 68 70 69 70 73 71 70 69 70 70 70 71 64 58 64 70 75 73 71 70 70 70
88 86 87 83 85 83 81 80 77 74 75 71 65 64 64 67 64 62 64 65 67 68 71 69 68 71 71 71 71 69 68 71 71 66 59 67 64 66 66 70 63 62 63 66
89 89 90 88 87 86 82 80 78 76 71 66 66 68 70 72 71 71 71 70 73 73 75 71 73 72 77 74 71 71 72 70 68 64 66 56 55 56 54 56 58 58 59 53
90 87 88 89 89 88 84 81 80 78 77 73 72 73 75 73 75 77 75 75 74 76 74 72 72 74 73 76 76 71 71 72 66 60 54 54 51 45 59 65 60 55 43 45
88 87 85 85 87 86 86 84 82 82 83 81 80 80 81 79 78 78 79 79 78 77 77 77 79 78 80 77 72 74 71 70 69 60 47 40 43 58 61 60 60 64 56 68
81 84 85 84 83 82 81 81 81 82 81 82 83 84 84 83 83 81 80 81 80 81 83 84 83 80 79 75 76 71 67 66 47 38 47 48 52 57 65 73 73 67 58 62
86 85 82 83 80 81 77 79 78 80 80 82 84 84 83 83 84 84 82 84 85 89 81 82 79 76 76 76 69 57 43 47 49 55 56 57 61 65 74 73 64 69 74 78
78 80 80 80 76 76 76 82 84 82 82 84 83 85 85 80 81 85 83 70 82 81 77 76 73 72 74 70 75 49 37 56 62 74 69 67 69 76 79 82 87 93 97 97

GFSCGP_250_spd_012.txt.gz
Wind_Speed
27 24 19 18 11 6 3 1 2 1 4 4 4 3 5 3 6 6 8 9 9 11 11 10 11 11 11 11 11 11 12 14 15 15 15 17 19 18 19 22 23 24 24 26
34 37 25 18 21 15 10 9 5 5 2 2 1 1 3 1 2 4 5 6 6 7 6 6 7 8 8 10 10 11 13 14 15 16 18 19 21 23 23 23 26 26 26 28
45 45 30 26 23 25 20 16 13 9 9 7 4 3 2 7 4 2 1 1 1 2 3 5 7 6 7 9 11 12 13 16 18 19 21 24 25 26 28 30 30 31 29 31
50 48 38 34 31 31 31 24 18 18 15 10 9 6 5 4 7 6 7 8 8 10 10 9 7 11 11 11 12 14 16 17 20 23 25 27 29 30 31 33 34 36 34 34
50 52 45 40 40 39 41 31 22 20 20 17 15 12 9 8 10 10 10 10 14 14 14 13 13 13 13 14 16 18 21 24 24 25 28 30 31 33 35 36 38 39 37 37
58 60 47 47 45 43 42 36 28 23 24 25 22 18 18 11 13 13 14 15 15 17 16 14 13 15 16 20 24 25 26 26 27 27 29 32 34 36 38 40 42 42 42 40
62 64 55 50 48 47 43 36 32 30 25 32 27 22 24 19 18 18 18 18 16 18 17 18 19 21 24 27 29 31 32 33 33 33 34 36 37 37 40 42 44 45 46 45
70 67 62 56 50 51 49 44 37 36 37 37 32 31 28 25 26 28 27 27 25 26 25 25 26 29 30 33 33 35 36 37 37 37 39 40 42 42 43 46 46 46 47 47
75 72 71 65 62 60 53 47 46 43 42 41 37 35 32 30 33 33 32 34 32 34 33 33 34 36 36 37 39 40 40 41 41 41 42 43 44 47 48 50 51 53 50 51
82 79 79 75 71 65 58 55 54 46 43 41 40 38 40 35 37 36 37 36 37 39 39 40 39 40 41 42 43 44 43 44 46 46 47 49 49 49 48 52 55 55 55 54
86 82 83 83 71 67 66 62 58 52 48 44 42 39 42 43 43 39 39 41 42 42 43 43 44 43 43 44 46 47 47 48 48 49 53 54 51 53 52 57 58 58 58 52
90 88 86 82 77 75 74 67 64 60 53 50 46 42 47 46 48 45 44 43 44 46 48 47 49 48 50 51 51 50 50 51 52 53 53 52 53 56 57 59 61 60 48 54
92 88 86 89 85 76 72 65 64 65 61 54 50 45 50 46 45 44 45 45 47 47 49 50 53 52 52 55 54 55 56 55 54 54 54 55 56 56 58 62 61 48 53 53
96 93 89 85 78 75 72 69 67 68 64 56 51 52 55 53 52 50 50 49 48 48 53 53 54 55 56 58 59 58 60 57 57 58 57 58 60 60 62 62 53 49 50 58
100 94 90 85 86 84 77 76 74 72 66 66 59 59 57 57 56 52 50 52 50 52 55 56 57 58 61 62 63 63 64 62 64 63 63 63 62 62 62 47 50 59 74 76
101 91 90 86 88 88 83 79 79 77 74 69 64 61 61 60 57 55 55 56 56 57 60 60 62 63 67 67 68 67 69 66 66 67 67 66 60 52 52 36 71 71 72 58
96 91 92 87 88 88 90 81 80 78 76 72 65 62 68 64 60 61 62 61 61 62 66 64 66 69 71 72 72 70 69 67 64 61 63 60 57 49 48 49 40 63 73 74
97 93 94 89 93 97 82 82 83 82 81 78 70 70 70 67 67 68 68 67 67 70 70 69 71 73 74 74 72 68 65 64 62 62 62 63 60 54 45 44 49 63 73 78
96 95 92 88 91 88 85 86 86 85 81 79 74 73 72 71 74 74 72 71 75 76 74 74 75 71 69 66 67 68 67 68 67 66 64 62 61 50 46 43 57 63 69 79
98 96 93 90 94 92 85 84 85 85 82 76 73 73 71 72 77 76 76 78 79 78 73 73 70 64 63 68 72 70 70 70 66 65 64 62 51 45 47 45 48 55 66 73
91 96 92 92 93 94 88 87 87 88 78 77 72 71 71 73 76 76 77 78 76 72 68 68 67 67 70 72 72 71 71 71 68 64 63 54 47 45 40 44 47 57 62 68
89 86 90 93 91 92 89 88 89 84 78 76 73 72 73 71 73 72 74 74 71 71 70 70 71 73 74 74 74 77 75 74 71 67 53 45 37 39 42 45 49 51 54 60
85 89 84 91 91 90 88 87 86 83 81 77 73 73 72 72 73 71 72 75 73 74 76 73 73 80 78 79 80 80 79 77 74 57 46 32 35 40 45 48 56 60 60 66
84 74 78 84 90 88 87 86 85 82 80 78 77 76 76 76 77 78 78 78 77 79 78 77 79 82 82 81 82 83 82 76 66 54 39 36 46 53 54 58 61 62 68 75
76 82 85 88 81 84 85 82 82 82 82 82 81 80 79 78 78 81 80 83 85 86 84 83 82 84 82 84 83 82 79 71 59 53 49 45 56 63 62 62 66 72 78 79
80 82 82 83 86 83 78 82 79 80 82 82 80 81 82 82 83 84 85 87 87 85 83 82 82 83 84 79 78 75 75 74 71 67 56 61 57 57 68 81 82 81 83 83

GFSCGP_250_spd_015.txt.gz
Wind_Speed
31 30 27 17 14 8 6 3 1 2 4 8 8 8 7 5 6 9 12 13 13 11 10 10 10 10 9 9 9 9 10 10 10 11 12 14 16 18 18 19 21 22 25 26
36 38 34 24 20 16 13 10 7 4 2 1 3 3 4 4 6 9 9 8 8 8 7 7 6 7 6 6 6 7 8 11 13 13 14 15 17 18 20 22 24 25 26 28
40 47 38 33 28 23 20 19 14 10 8 7 6 5 5 4 8 7 6 2 1 1 2 4 4 5 7 6 5 7 9 11 14 17 18 19 21 23 25 28 29 30 29 31
46 51 39 38 38 34 31 28 21 16 16 11 12 12 9 8 13 9 8 6 5 4 4 4 5 6 8 9 9 10 13 16 19 20 21 24 25 27 29 31 33 34 34 35
53 55 47 42 44 46 42 34 29 23 21 18 19 16 13 13 12 9 8 9 9 7 7 8 9 9 9 9 12 14 18 21 22 24 26 28 30 30 31 32 35 36 36 38
61 62 52 48 48 47 47 35 33 31 26 22 26 22 20 17 17 14 12 12 13 13 12 11 11 13 14 16 19 20 22 25 27 29 31 34 33 34 35 35 37 38 38 40
68 66 60 57 53 48 47 43 35 31 30 31 28 28 26 22 22 19 18 17 16 17 16 16 17 20 22 23 26 27 27 30 32 34 35 36 35 35 37 40 42 42 42 44
75 73 69 63 59 56 52 51 43 38 34 38 37 35 28 26 24 27 27 24 23 22 22 23 25 26 29 31 32 33 33 34 35 37 38 39 41 42 42 41 41 43 43 46
81 78 77 72 69 67 59 54 49 45 39 39 40 40 35 31 32 31 30 30 28 28 30 29 31 32 35 35 37 37 37 38 39 40 42 43 44 44 44 45 46 47 48 50
88 85 83 81 79 72 66 63 58 51 44 41 43 43 44 39 36 36 36 35 33 33 34 33 34 35 37 38 38 39 40 41 42 43 44 44 45 46 47 48 50 51 52 55
95 92 89 87 83 77 71 68 64 56 50 45 45 45 49 46 43 40 42 40 39 39 39 38 37 39 41 42 43 44 44 43 44 45 46 47 48 49 50 52 51 54 57 53
101 98 95 88 84 83 81 75 70 65 55 52 51 50 54 52 47 44 45 44 45 46 43 42 41 44 45 45 45 46 47 46 43 44 47 49 51 52 53 55 56 55 50 48
104 103 98 95 93 89 82 76 71 67 63 57 53 51 55 55 52 48 48 47 48 50 47 46 47 48 49 49 49 49 50 49 47 49 51 53 55 55 55 57 57 48 48 46
102 104 101 98 91 88 87 81 76 71 68 61 52 53 59 58 56 52 51 51 51 53 52 52 52 52 52 53 52 53 54 54 53 54 55 56 56 53 50 51 53 41 44 49
95 100 104 99 97 96 93 89 84 78 69 65 57 58 62 61 59 57 55 53 53 53 55 57 56 55 55 56 58 59 60 59 58 59 59 57 54 47 47 46 46 41 37 36
92 95 102 101 101 101 98 93 89 84 77 72 66 63 62 65 62 58 56 54 56 57 58 60 58 57 59 59 62 65 65 64 65 63 61 54 51 52 52 51 48 43 40 38
89 90 98 101 102 104 106 97 93 86 81 74 69 64 68 68 64 62 61 59 58 59 60 62 62 61 62 63 67 68 70 70 69 64 57 53 55 58 56 53 47 43 48 48
84 87 87 95 103 108 95 93 92 89 84 82 78 72 71 72 69 68 64 61 62 65 65 67 68 66 65 67 70 73 74 73 71 64 58 56 57 60 59 58 52 49 53 54
75 80 79 85 99 101 97 98 95 92 84 83 80 77 77 76 75 71 68 68 71 72 71 71 73 70 70 71 74 77 79 75 70 62 60 60 61 63 64 63 62 57 54 58
67 75 75 77 90 99 97 98 97 94 90 85 83 82 82 79 78 76 74 76 76 75 76 75 77 75 74 75 77 78 78 73 66 64 65 66 67 69 68 66 66 66 56 58
62 69 72 75 85 92 95 97 97 97 87 84 85 84 81 80 80 80 81 80 79 79 80 79 79 78 77 75 75 73 70 68 66 68 68 71 71 73 69 72 62 65 61 64
60 60 68 72 79 87 91 96 97 94 90 89 88 84 80 80 83 81 80 79 79 79 80 80 79 77 75 72 70 68 67 69 69 71 73 74 77 76 73 59 59 63 62 65
60 57 62 67 76 83 89 93 94 92 91 90 89 85 83 81 78 77 75 77 78 77 77 78 77 77 73 70 68 69 71 71 73 75 77 77 77 78 67 64 61 65 66 67
58 54 55 66 66 79 83 90 91 90 90 89 85 81 83 79 77 76 77 76 76 76 76 76 76 75 76 75 72 73 76 76 79 81 79 79 79 73 67 60 62 62 67 64
60 53 60 63 52 60 68 82 87 89 89 86 83 82 84 81 79 77 78 76 76 75 76 76 77 79 80 78 76 76 78 81 82 81 80 80 78 76 73 68 63 66 69 71
56 52 55 61 68 64 49 64 77 85 86 85 82 83 81 80 79 79 78 78 77 78 79 80 82 83 81 78 78 81 81 81 81 81 78 75 76 75 74 72 70 70 72 74

GFSCGP_250_spd_018.txt.gz
Wind_Speed
35 32 30 21 17 13 8 5 5 6 3 6 10 13 15 14 14 14 12 11 14 14 12 13 12 11 9 8 8 8 8 8 8 7 9 10 14 16 17 20 21 22 23 23
38 38 37 28 24 22 17 13 10 8 8 6 8 11 10 9 12 15 14 10 9 11 9 8 7 7 6 5 5 5 5 4 6 9 12 14 16 18 21 23 23 23 24 25
42 47 42 34 31 29 25 22 18 12 11 11 10 10 12 12 12 13 13 9 8 7 3 2 4 4 3 1 1 2 2 6 9 11 14 17 19 22 24 26 27 28 27 28
49 50 47 40 36 37 33 31 24 18 18 15 13 12 11 12 17 16 14 10 11 10 8 6 6 6 5 4 5 5 8 10 13 15 17 20 23 25 27 27 28 30 29 30
55 54 53 45 45 43 45 37 32 26 24 17 19 16 14 15 17 18 15 16 14 13 12 12 10 9 8 8 8 9 12 16 18 19 21 23 26 27 29 31 32 32 32 33
65 62 59 53 53 50 48 41 36 32 30 22 25 23 19 21 16 20 21 21 21 19 17 14 12 12 12 12 14 17 19 21 23 25 26 27 29 29 31 33 34 35 38 39
75 69 68 61 57 57 53 43 37 34 32 28 32 27 28 26 20 23 20 22 22 21 18 15 15 15 16 18 21 23 25 26 28 29 31 30 30 32 34 35 36 38 41 43
81 75 73 69 62 63 60 55 47 44 38 37 41 35 38 30 26 27 27 25 26 25 23 21 21 21 22 25 27 29 30 30 31 31 33 33 32 33 34 36 38 40 41 43
87 82 84 79 74 71 65 63 53 51 46 43 44 42 40 34 33 36 36 32 31 29 29 29 29 28 29 30 32 33 34 33 32 33 34 34 33 35 37 39 41 44 46 46
92 90 88 86 83 79 73 68 66 55 51 44 46 43 45 37 41 40 39 37 36 34 34 33 33 32 33 33 35 37 37 37 36 35 35 35 35 36 39 42 45 47 49 50
90 94 94 93 88 82 79 75 71 62 56 50 49 48 56 44 43 44 44 41 41 40 40 38 37 36 39 40 40 41 41 41 39 38 36 36 39 42 44 47 51 49 48 45
83 92 98 94 91 91 89 85 81 75 62 55 51 52 59 53 46 46 46 47 47 45 45 44 42 42 45 44 44 44 43 43 41 41 38 39 41 44 47 50 50 46 43 43
83 82 92 100 100 98 94 87 83 77 70 61 58 56 57 63 56 51 50 48 49 47 49 48 46 47 48 47 46 46 46 46 46 44 43 42 44 46 49 53 50 42 44 45
79 81 85 94 99 98 98 94 90 86 80 70 60 61 62 63 65 64 58 52 51 50 51 50 49 49 48 48 50 49 50 51 50 49 47 47 49 49 51 50 44 41 44 45
72 80 81 90 97 104 101 99 97 95 84 81 69 66 64 64 72 71 67 57 55 52 55 56 54 52 51 51 52 53 54 54 53 54 53 53 53 53 50 48 43 44 46 47
65 71 80 83 92 103 106 103 100 97 94 88 83 73 69 71 74 72 69 64 61 59 61 60 58 56 55 55 55 56 57 57 57 58 59 59 58 57 51 50 44 45 45 50
62 62 75 79 89 95 104 103 100 96 95 92 86 75 77 75 78 76 74 68 65 64 64 63 62 59 57 57 57 60 64 63 63 64 64 64 60 58 56 52 48 49 50 53
64 60 67 75 81 89 87 97 105 105 99 94 90 86 80 77 82 82 79 69 67 67 67 67 66 64 62 61 60 65 68 67 69 71 71 68 66 63 58 54 54 53 56 61
65 59 66 74 78 81 85 95 100 105 100 95 91 88 82 84 87 83 82 74 73 71 70 71 70 68 66 66 66 69 71 71 71 72 74 72 71 67 60 57 57 56 60 65
64 61 64 61 71 78 83 83 90 100 99 96 96 92 87 89 89 84 87 80 78 76 75 75 75 72 70 72 73 74 74 73 73 73 75 73 69 68 63 64 63 64 66 68
64 64 61 61 64 70 76 77 84 93 93 97 96 93 94 90 88 94 88 85 83 81 81 79 79 77 77 77 78 78 78 75 74 74 72 69 68 65 64 69 70 70 72 74
65 64 66 60 57 62 68 71 75 80 83 91 95 95 94 93 89 92 90 89 86 85 84 84 84 83 81 81 80 79 79 78 75 71 68 68 67 72 73 72 73 77 75 76
70 66 63 62 60 57 59 61 68 71 73 83 93 95 96 95 92 89 88 88 88 88 89 87 84 83 82 80 80 80 80 78 74 71 68 69 68 73 78 78 80 81 79 75
67 66 62 64 59 53 52 56 63 65 70 74 85 93 95 93 92 89 87 86 86 87 85 84 84 82 80 79 79 79 78 75 73 72 71 73 73 77 78 79 81 80 78 78
65 66 64 59 55 51 51 53 55 61 64 69 76 86 92 93 90 87 86 85 85 83 83 81 81 81 78 77 79 79 77 76 76 75 74 77 79 80 81 78 80 78 78 80
59 62 63 56 55 48 44 38 41 49 60 65 70 78 86 88 88 85 85 82 83 82 80 81 81 80 76 77 80 78 79 79 77 77 81 80 81 81 80 81 80 80 82 83

GFSCGP_250_spd_021.txt.gz
Wind_Speed
38 32 31 25 19 16 12 8 6 4 8 7 8 13 14 16 20 22 21 16 14 14 13 14 13 12 11 11 10 8 7 5 5 6 8 10 13 16 19 21 21 21 22 22
38 39 39 31 27 24 20 16 12 10 8 10 10 9 8 12 18 19 18 19 17 14 12 10 9 9 8 8 6 5 4 2 3 7 11 12 14 17 20 22 22 23 23 22
44 47 49 32 31 31 27 25 21 17 13 11 13 12 11 11 16 18 19 17 16 15 11 10 9 8 7 7 6 5 5 3 6 10 13 14 16 18 21 21 22 23 23 24
51 52 51 43 36 37 35 32 28 24 18 17 16 15 14 14 16 17 18 16 15 15 11 10 10 11 10 9 8 8 6 7 10 13 16 17 20 21 21 22 23 24 25 27
60 57 56 51 48 44 43 42 36 30 27 24 19 18 18 19 20 21 20 18 14 17 15 14 14 13 13 12 11 10 9 11 14 16 18 21 22 23 24 24 24 25 28 31
69 66 60 57 57 52 52 49 40 36 34 29 23 23 22 22 21 23 25 24 22 20 20 19 18 17 16 15 14 14 15 16 18 19 20 22 24 25 25 24 27 30 32 35
76 72 68 65 64 61 58 51 46 39 36 34 31 30 27 27 24 25 27 27 26 25 23 21 22 20 18 18 18 19 20 21 22 23 24 25 26 26 26 27 30 33 35 39
80 76 74 72 67 65 65 60 51 49 45 43 41 35 37 35 31 27 27 29 27 28 26 26 25 23 23 22 23 24 25 26 27 27 27 28 28 27 27 29 32 35 37 41
74 81 84 80 75 75 68 69 56 57 54 51 44 45 47 41 35 31 33 34 32 31 29 27 27 27 28 29 29 29 29 29 29 30 30 29 29 29 28 30 34 38 41 44
72 79 87 86 86 80 75 72 71 62 57 51 52 52 47 45 38 38 40 39 38 37 35 34 34 32 32 33 33 34 33 33 33 33 32 32 31 30 31 33 36 39 44 46
67 77 81 93 85 82 81 76 78 72 65 59 58 54 54 53 44 40 47 45 44 42 40 39 39 37 37 37 38 37 37 37 37 36 34 35 35 34 35 38 37 43 46 49
64 75 75 80 92 91 89 86 87 83 72 65 61 57 62 63 52 47 50 49 49 48 46 44 44 41 42 43 42 42 41 41 40 39 39 39 38 39 39 40 42 44 48 51
68 65 73 77 85 94 92 88 86 84 82 73 69 60 66 65 63 54 50 52 53 50 49 48 47 47 46 46 45 44 44 44 43 43 43 44 42 43 42 43 46 47 51 53
77 71 69 71 76 86 99 98 95 93 90 81 74 74 74 68 70 65 59 59 59 56 54 51 49 49 47 49 48 45 46 46 47 49 50 47 47 47 46 48 48 51 52 52
83 76 67 69 77 84 86 98 101 99 92 92 82 82 77 72 71 73 70 63 63 61 59 58 55 53 50 51 51 50 50 51 52 54 53 52 53 51 52 53 54 54 54 54
86 82 81 67 66 77 81 85 98 103 97 95 92 85 81 80 78 73 77 74 70 65 63 63 61 59 55 54 53 55 55 56 57 57 55 56 57 57 57 58 59 57 56 55
87 84 81 68 66 67 81 71 80 96 102 100 99 86 90 86 80 74 77 82 78 73 67 68 64 63 61 58 56 58 58 60 63 58 60 61 62 62 62 63 62 60 60 56
85 82 80 78 75 68 55 75 80 90 100 104 101 100 95 89 84 83 81 87 85 81 73 69 69 67 65 63 61 61 61 65 66 65 65 66 67 66 66 67 65 65 64 61
83 75 81 80 76 64 62 70 76 84 86 96 104 104 100 94 91 90 78 86 91 84 79 77 74 73 70 69 67 66 65 69 70 71 71 70 71 71 70 71 70 69 67 67
82 79 78 74 73 64 60 68 69 73 80 94 103 105 103 102 101 80 83 94 96 89 91 79 80 81 76 75 72 71 71 73 73 74 75 75 74 73 73 73 72 69 70 68
81 70 76 73 68 69 73 57 61 68 70 82 91 98 103 107 96 92 102 95 93 96 95 83 85 84 82 81 77 77 77 77 77 77 78 79 78 75 74 74 73 71 72 72
75 71 68 67 70 72 62 58 60 65 69 71 80 92 97 103 104 108 96 91 98 101 97 89 90 87 86 84 82 82 81 80 80 81 81 80 81 77 75 72 71 72 71 72
78 67 66 72 70 67 60 60 61 65 63 64 68 77 91 97 104 103 98 99 100 101 98 94 91 90 89 87 86 85 84 83 84 84 83 83 81 76 76 74 72 71 71 73
70 71 75 76 64 62 61 59 61 62 59 61 61 64 78 89 94 99 103 100 100 100 97 95 93 92 90 88 88 87 85 86 85 86 85 82 79 75 75 76 75 75 75 78
59 57 68 70 64 63 62 60 60 60 57 57 53 54 61 75 86 89 96 100 100 99 96 94 92 91 89 88 86 85 84 83 83 84 83 81 80 78 77 78 79 77 79 82
61 51 36 46 66 66 63 61 56 57 57 55 51 45 43 47 68 81 85 93 97 96 95 93 91 90 88 87 85 83 82 80 82 84 83 82 81 81 80 80 80 82 83 86

GFSCGP_250_spd_024.txt.gz
Wind_Speed
37 32 30 29 23 17 16 13 9 6 5 9 11 18 9 14 15 17 19 20 17 17 17 15 14 14 14 12 11 9 8 7 7 7 9 10 11 12 14 15 16 18 18 17
42 33 41 35 29 25 23 19 15 11 9 11 15 16 11 10 10 16 16 14 16 17 17 15 13 11 10 10 9 7 6 4 3 5 9 10 12 15 17 18 19 18 17 19
48 45 45 39 31 29 29 27 23 18 14 12 16 15 10 10 13 14 14 15 16 17 17 16 14 13 11 10 8 6 4 2 3 8 10 12 15 16 18 19 20 18 20 22
53 52 49 46 38 35 33 35 32 25 20 18 18 15 15 15 15 17 17 15 14 16 14 14 14 14 12 11 9 8 7 5 5 10 12 13 15 18 19 20 19 20 23 25
60 58 56 52 47 44 41 42 38 34 29 27 22 20 21 18 18 19 20 18 15 15 15 14 15 14 14 12 11 9 8 8 9 11 14 16 17 19 19 18 20 23 26 29
64 63 59 59 56 51 51 46 46 40 36 32 29 25 23 22 23 24 24 24 22 20 21 21 18 17 16 15 13 11 11 11 13 15 16 18 20 21 20 20 21 24 28 32
50 63 65 64 61 60 58 54 48 44 38 33 35 29 28 28 26 27 27 29 29 27 23 24 23 22 20 17 16 15 15 16 17 18 19 20 22 22 23 23 24 26 30 33
42 48 62 71 68 68 65 63 56 51 48 46 42 36 35 33 32 28 28 31 33 31 29 29 27 25 21 20 19 20 20 20 22 22 21 22 23 23 25 27 25 28 32 35
45 43 51 63 73 74 69 71 61 59 56 54 46 45 44 43 39 35 35 33 34 35 32 32 31 28 24 24 23 24 25 26 27 26 25 24 26 26 27 29 29 31 34 36
53 51 46 51 69 75 75 73 72 68 62 53 53 52 47 50 46 47 40 37 40 38 36 35 34 31 30 28 27 29 29 29 29 30 30 28 28 29 31 31 32 35 36 42
59 59 55 54 46 61 80 80 76 77 72 64 60 54 54 55 53 50 45 41 43 46 40 38 39 36 35 34 33 33 33 32 33 33 33 32 33 35 34 35 36 38 40 42
68 69 63 58 52 58 67 81 83 83 77 72 66 58 60 61 62 58 53 47 46 54 46 45 42 40 39 39 39 38 38 36 36 36 36 37 38 40 39 38 40 41 44 45
79 72 70 67 57 47 55 63 83 87 84 84 78 62 67 72 66 68 61 56 52 56 47 48 46 44 46 44 44 42 41 40 40 40 40 42 43 43 43 42 45 47 46 49
86 79 71 65 67 71 64 66 73 83 90 83 83 73 74 77 71 77 68 62 58 55 57 52 50 47 50 49 48 47 44 43 44 44 46 48 47 48 48 47 49 50 50 51
97 86 81 75 72 77 73 67 68 74 86 91 82 85 79 83 78 77 77 68 65 63 65 57 59 55 53 53 52 51 49 47 48 49 51 53 51 51 53 52 53 53 53 55
99 92 88 83 78 80 77 74 64 62 71 86 85 90 87 86 85 83 81 78 73 70 65 62 63 62 61 58 57 56 55 54 51 53 57 57 56 57 58 57 56 57 58 59
103 98 95 87 81 83 85 54 61 63 64 74 87 86 94 94 93 90 86 83 75 77 72 68 63 71 66 64 62 59 59 58 57 59 63 61 60 63 63 62 60 61 61 63
107 101 97 91 92 89 57 67 68 67 65 69 75 82 89 96 97 94 91 87 85 74 78 76 76 72 71 69 66 64 63 65 64 65 68 65 64 66 67 66 65 65 66 68
111 102 90 85 78 65 73 69 71 73 60 64 67 73 82 89 99 100 98 92 86 87 80 88 83 80 73 73 72 71 67 69 68 71 72 69 67 68 69 69 70 71 72 73
110 100 87 77 70 62 60 70 78 70 65 68 66 66 72 83 86 87 95 97 97 95 91 87 89 89 86 72 77 76 73 72 72 74 76 73 72 72 73 73 74 76 77 77
98 94 76 65 62 61 67 70 68 72 56 55 57 61 63 71 79 83 94 102 103 97 92 91 94 92 93 78 84 76 79 77 78 78 79 78 78 78 78 78 78 80 82 81
90 75 65 65 68 71 68 66 70 69 62 54 54 59 63 64 69 80 87 96 96 97 99 98 89 98 103 78 87 82 84 82 82 81 81 82 81 82 83 81 82 83 85 83
83 77 71 66 67 66 59 66 62 67 64 64 59 59 59 57 59 68 78 82 89 97 102 100 98 105 102 85 87 89 89 87 86 85 85 84 85 84 86 84 85 86 84 81
79 73 70 70 69 70 64 65 65 54 55 61 58 52 53 59 57 60 64 80 86 94 98 101 102 103 99 92 91 91 91 89 89 89 88 88 87 89 88 87 86 84 82 79
74 69 66 64 67 67 65 65 68 63 68 58 53 50 54 51 45 39 51 64 77 86 91 99 101 102 100 96 92 90 90 89 88 87 86 86 86 88 88 85 85 82 80 79
71 68 63 61 61 60 63 66 70 68 66 57 54 51 49 37 31 29 36 44 55 71 81 89 95 98 99 97 93 89 87 87 87 85 84 84 82 83 84 83 82 80 81 81

GFSCGP_250_spd_027.txt.gz
Wind_Speed
40 33 32 31 27 19 19 18 14 11 8 3 14 9 8 7 9 11 15 18 19 17 17 18 19 18 19 17 15 13 12 10 8 6 6 6 8 10 13 15 15 14 14 16
43 41 42 38 31 26 23 23 21 15 11 9 11 15 10 7 10 14 18 18 16 16 17 18 18 19 16 14 13 11 10 8 5 4 5 7 9 12 13 14 15 14 16 20
48 49 45 42 36 30 29 29 28 20 18 14 15 17 13 11 11 15 17 14 15 17 18 19 18 17 16 15 13 11 10 7 4 1 5 7 10 14 15 15 14 16 18 21
51 52 49 45 42 39 34 37 35 29 25 18 19 20 17 14 13 16 15 15 16 17 19 18 17 16 15 15 13 11 8 7 6 5 6 9 12 14 15 15 16 17 21 24
46 52 54 51 48 46 46 41 41 37 31 26 20 20 21 19 19 19 19 17 16 16 17 16 16 15 15 14 12 10 10 10 9 7 8 11 14 15 16 17 18 18 21 25
29 40 50 57 54 49 55 45 44 42 36 27 27 22 21 22 24 25 23 20 19 18 16 15 15 15 15 15 13 12 11 12 11 10 12 14 14 16 17 19 20 22 24 26
34 28 36 49 58 58 57 55 48 44 39 30 32 26 28 27 24 25 26 25 27 27 25 22 22 19 17 17 15 14 13 15 15 14 15 18 17 18 19 20 22 25 27 28
35 31 34 36 48 59 60 59 55 49 47 47 43 34 37 33 32 30 27 26 30 31 30 25 23 21 23 19 18 18 17 18 18 19 21 21 21 23 23 23 23 26 30 32
49 41 41 34 31 48 58 60 64 63 58 53 44 42 43 41 37 34 32 30 34 32 33 31 26 28 27 23 21 23 21 21 20 23 24 24 24 25 25 27 26 28 30 35
55 55 50 43 36 33 43 55 65 63 60 54 52 50 45 47 42 43 39 36 35 37 33 34 33 36 33 29 25 27 26 25 24 26 27 27 27 29 29 29 29 32 34 36
64 58 58 54 43 43 40 39 51 67 67 62 59 51 56 54 52 50 47 48 43 43 43 36 40 36 34 33 31 28 30 30 29 29 31 31 30 33 33 32 32 34 39 41
71 71 65 60 55 49 45 40 43 55 62 70 70 56 63 63 65 59 56 53 44 46 42 44 44 40 37 37 36 34 34 35 34 34 34 34 35 37 36 35 36 39 42 46
77 74 71 63 56 47 50 46 46 42 46 58 72 59 68 71 68 61 58 59 55 61 55 50 48 43 45 39 41 38 39 39 39 40 40 41 40 41 41 40 41 43 46 48
87 81 75 69 68 72 60 55 54 56 50 44 55 68 71 76 76 69 69 67 66 69 62 54 48 45 47 45 45 42 43 43 42 44 45 46 45 46 46 46 47 48 50 50
93 87 79 74 74 77 71 66 59 54 47 45 40 55 65 78 82 77 75 72 73 76 63 59 52 49 49 53 51 48 48 47 45 47 49 50 51 52 51 52 52 54 55 55
100 88 85 83 79 81 78 75 64 58 53 52 49 39 49 60 83 87 81 82 79 76 69 66 61 56 55 56 57 55 53 53 51 52 54 56 57 58 57 56 57 60 58 60
106 99 94 87 83 86 89 66 70 66 58 55 48 45 54 52 67 83 87 85 81 79 77 74 67 64 62 60 61 63 61 56 56 58 60 62 64 64 62 60 61 65 63 63
113 109 104 92 92 95 73 77 73 71 64 59 53 58 55 52 55 71 84 88 85 81 82 82 78 72 66 65 65 64 66 66 63 64 66 68 68 70 67 66 66 67 66 66
120 116 110 102 95 88 86 78 81 81 74 70 55 56 55 51 53 50 65 83 87 89 87 87 89 81 79 73 72 69 67 70 70 69 71 73 73 74 73 71 70 71 71 69
120 120 116 109 100 89 80 85 85 87 79 64 50 47 53 46 47 50 50 56 72 87 92 89 91 87 85 82 78 76 74 72 74 74 76 77 78 79 78 76 74 76 74 73
126 127 123 113 101 92 89 87 87 91 63 61 49 48 50 47 45 52 56 60 64 74 87 91 95 94 94 88 85 81 80 75 79 81 79 79 80 81 81 79 79 80 79 77
126 121 119 112 106 100 94 88 89 81 65 57 53 48 44 43 46 55 59 58 62 62 69 78 86 93 95 93 93 88 83 80 85 87 84 82 82 84 84 82 83 82 82 82
106 111 111 109 108 100 100 94 88 75 64 56 52 45 45 47 50 49 49 57 59 55 59 66 76 84 84 91 97 95 94 88 90 90 89 87 85 84 85 85 84 84 86 86
96 101 99 96 93 84 87 87 75 64 48 48 45 46 47 49 51 45 47 50 55 54 57 64 67 74 81 84 87 91 95 96 93 91 89 86 85 87 87 85 83 90 91 88
91 92 88 80 78 73 76 66 64 52 47 52 48 44 42 43 45 41 43 47 52 51 47 48 56 63 71 77 80 81 89 93 94 91 90 88 89 91 86 87 90 90 85 81
86 81 79 76 70 54 55 58 52 49 51 42 37 42 49 48 47 41 37 43 44 37 31 39 44 46 56 68 72 75 75 80 86 87 87 87 78 76 80 75 72 72 75 79

GFSCGP_250_spd_030.txt.gz
Wind_Speed
42 39 38 37 34 24 23 23 21 13 12 5 12 6 5 9 11 12 11 9 14 17 23 22 21 21 20 20 19 19 17 15 11 7 4 3 5 8 10 13 12 13 15 18
45 46 44 40 37 31 27 27 27 20 13 10 6 16 9 2 6 8 11 15 19 23 21 22 22 21 19 20 19 17 15 12 9 5 2 2 5 8 11 11 11 12 14 17
45 52 46 43 41 38 33 34 32 26 18 13 10 17 8 4 5 9 14 17 17 16 18 20 24 25 24 21 19 17 15 12 8 4 0 3 7 8 11 12 13 13 15 19
36 44 50 49 45 43 39 44 35 31 25 20 15 11 19 11 9 12 17 14 13 16 17 18 20 21 21 20 18 16 14 11 8 5 4 5 9 10 11 12 12 15 17 19
23 33 44 51 53 47 55 43 39 35 30 24 15 16 18 15 16 18 20 16 15 18 21 21 18 17 16 15 14 12 12 11 10 9 7 8 11 12 14 15 15 16 19 20
30 21 29 44 53 53 60 48 45 41 35 25 25 20 17 21 18 18 20 17 19 20 22 22 21 18 18 17 16 15 14 13 12 12 11 11 14 15 16 17 17 18 20 23
32 28 22 29 45 57 61 56 50 46 37 33 38 28 29 25 24 24 24 23 22 23 26 25 19 18 18 18 17 16 14 14 15 14 15 16 18 20 19 19 19 19 21 24
37 34 37 34 26 40 56 59 56 51 46 46 44 33 39 34 29 28 25 26 28 28 33 28 24 22 20 20 18 16 17 16 15 16 18 20 21 23 22 22 22 21 22 25
44 40 46 37 35 29 39 51 63 57 55 51 44 40 43 39 34 33 32 31 32 34 37 32 28 25 24 25 20 18 19 21 20 20 22 21 23 26 25 23 25 26 25 27
49 48 49 43 40 31 29 36 51 57 59 55 53 50 45 47 44 41 37 36 41 38 36 36 33 34 30 29 26 24 23 25 25 23 25 25 26 28 28 26 28 29 29 31
59 56 56 47 33 41 41 40 34 44 57 61 57 49 53 55 53 47 47 44 41 37 38 37 37 38 34 35 34 31 31 29 30 28 28 30 31 32 31 31 31 31 33 36
67 62 57 48 44 44 37 39 39 32 34 50 63 56 65 63 58 56 52 49 48 44 40 37 37 41 33 37 37 35 36 36 34 36 33 33 34 36 36 36 37 36 37 40
75 68 62 57 50 44 38 45 46 43 35 34 44 63 69 68 66 62 59 57 54 50 49 50 47 46 43 41 39 38 40 41 38 39 38 37 37 39 40 41 41 41 43 46
81 77 70 61 58 61 54 53 49 44 33 39 29 47 65 75 73 71 68 65 64 61 59 55 51 47 48 48 47 41 43 43 42 42 43 42 41 42 44 44 45 46 48 51
88 80 79 69 69 70 64 59 55 50 44 34 39 39 45 63 76 77 73 73 67 65 64 58 56 53 52 48 47 48 49 46 45 45 48 46 45 47 49 50 49 50 52 55
95 84 86 78 75 76 74 69 58 54 50 43 40 44 43 49 52 64 75 77 74 73 68 65 65 61 60 61 56 57 58 53 50 50 51 52 51 53 55 55 54 55 56 57
107 98 92 84 87 85 92 65 63 60 58 54 53 52 55 50 53 48 49 64 78 80 77 76 72 71 66 64 65 62 60 61 59 56 55 58 58 59 61 62 60 59 61 62
115 110 107 95 97 101 71 73 72 68 64 59 57 58 57 56 55 57 46 45 57 72 82 80 80 76 75 71 68 68 68 65 65 64 62 62 64 66 67 66 65 64 66 65
118 120 112 106 107 98 84 80 77 76 69 69 61 61 58 58 58 50 52 48 42 55 62 77 83 80 82 79 74 73 68 69 67 70 68 67 69 69 72 71 70 70 70 70
126 125 121 114 110 103 88 85 84 86 81 73 65 61 62 63 61 55 55 53 46 43 52 54 68 82 87 84 81 81 78 76 72 72 73 75 76 75 75 77 76 76 75 75
136 133 129 123 116 107 100 94 89 94 85 75 70 66 64 65 64 60 59 53 50 44 50 51 56 64 77 84 86 85 84 82 78 80 80 81 77 79 80 80 80 82 80 78
135 135 130 127 121 114 106 101 99 94 89 79 75 68 62 53 52 54 57 57 49 48 47 49 50 51 59 67 79 83 86 84 85 87 85 86 85 84 85 84 84 86 84 83
129 133 124 126 122 120 110 103 102 97 91 83 79 70 61 56 57 53 55 54 53 52 52 49 52 55 58 62 65 73 76 86 87 89 90 91 90 86 87 88 86 85 82 84
103 115 118 114 119 119 111 103 99 99 94 87 82 65 64 62 53 55 56 57 57 56 54 49 47 52 54 58 62 64 65 69 75 81 87 90 89 87 84 89 87 82 81 72
88 99 103 100 109 112 94 94 89 89 80 77 77 72 74 69 63 60 59 59 54 52 48 47 49 49 51 49 47 47 45 44 52 68 74 76 79 81 79 77 75 69 51 56
86 87 90 91 98 94 75 63 62 76 80 76 72 64 63 64 54 52 50 46 44 44 42 39 44 47 43 41 36 35 45 47 56 52 53 59 51 55 63 60 55 32 42 72

GFSCGP_250_spd_033.txt.gz
Wind_Speed
48 44 45 42 38 32 25 24 25 17 17 13 10 12 8 10 18 16 14 12 13 10 12 14 23 26 24 20 22 21 20 17 13 9 8 6 7 8 10 11 11 13 15 16
45 53 48 43 40 38 31 28 29 25 20 14 9 19 12 9 6 11 12 14 10 14 17 22 22 22 23 24 24 22 20 16 12 7 6 4 5 6 9 10 11 12 12 15
37 43 50 47 45 43 39 37 34 30 24 20 13 14 17 6 2 5 8 10 13 18 19 22 24 22 23 25 25 23 20 15 11 6 3 2 4 5 7 9 10 13 13 14
23 27 41 48 49 48 44 49 37 31 28 26 17 12 18 12 6 8 12 16 18 18 18 18 22 21 20 21 21 19 16 12 9 6 2 1 3 6 8 10 9 10 12 15
24 18 21 39 51 51 55 46 42 36 30 26 21 18 13 14 14 12 17 19 15 16 18 20 22 21 20 19 19 17 16 13 11 9 7 5 6 8 9 11 12 12 14 15
31 24 20 23 34 48 60 50 46 41 35 25 29 26 21 21 18 17 19 20 17 16 19 20 22 24 21 20 20 19 19 18 15 14 12 11 9 9 10 11 14 15 17 19
34 28 24 23 24 33 48 54 50 43 38 35 40 32 31 24 23 21 23 22 19 19 22 24 24 23 22 22 21 19 19 17 16 17 16 17 14 13 13 12 13 16 18 21
38 35 36 35 33 29 28 37 44 49 46 47 44 32 41 35 28 28 24 26 26 25 27 28 26 25 23 23 24 22 20 18 18 19 21 21 18 18 15 15 16 17 20 23
45 40 41 36 36 27 32 20 32 43 49 47 42 42 40 36 33 31 30 30 32 31 31 30 30 29 27 26 24 23 21 19 21 21 22 23 23 21 21 19 18 20 23 25
50 47 46 42 36 25 25 33 26 22 40 50 49 45 48 43 42 40 36 33 35 32 34 33 33 33 33 28 26 26 24 23 23 23 24 24 26 26 24 25 23 24 27 27
60 54 53 50 37 36 35 32 30 26 18 35 49 49 56 51 50 46 42 38 40 38 37 36 37 38 38 34 34 32 30 29 29 28 28 28 30 30 28 29 29 28 31 32
66 62 54 53 48 45 38 33 27 15 21 24 31 48 63 61 56 51 49 47 46 43 40 38 38 40 41 41 41 41 38 38 34 34 32 32 33 34 35 34 34 35 35 35
70 65 62 61 59 52 43 37 31 29 26 20 22 32 45 60 61 57 53 52 52 48 45 43 43 42 41 42 42 41 42 40 39 40 37 35 36 38 38 38 39 39 39 40
76 71 68 64 64 62 55 50 45 39 26 26 24 33 45 43 52 63 63 61 60 57 56 52 51 48 47 47 44 42 43 42 41 40 41 39 39 40 42 42 45 45 43 44
83 76 74 71 67 67 63 56 51 40 32 26 33 39 43 48 41 42 60 66 63 62 58 57 57 56 57 53 53 50 50 51 48 45 45 45 43 45 46 47 49 50 49 48
88 83 81 76 74 74 71 64 54 46 46 40 37 31 40 47 47 43 41 51 61 66 67 66 64 62 62 61 60 58 57 56 54 51 50 50 48 50 51 52 53 55 56 55
94 91 88 82 82 81 78 53 59 57 54 48 44 43 47 49 50 47 43 42 47 52 60 69 71 69 68 69 70 66 65 59 56 54 56 56 56 59 60 59 59 60 59 60
100 98 97 88 93 92 65 70 67 65 62 57 54 53 48 48 49 47 43 46 43 43 45 51 58 69 76 77 74 73 73 67 66 66 67 64 63 65 68 67 66 65 64 63
108 108 101 97 95 87 78 77 79 73 67 65 60 57 54 56 49 46 44 45 47 48 49 49 48 53 62 76 80 79 79 76 73 71 73 73 68 71 72 71 70 70 69 67
117 116 113 106 101 90 83 84 84 80 76 69 63 62 63 60 51 47 52 46 45 46 44 50 49 48 57 66 77 84 85 83 79 79 79 81 77 75 73 74 74 74 76 75
122 123 118 108 103 91 91 92 88 95 68 78 74 72 71 64 57 56 52 54 51 51 53 51 50 53 57 65 67 73 80 83 86 86 86 88 85 82 78 79 79 78 79 81
131 132 124 117 112 100 95 98 96 93 84 82 78 79 77 69 63 58 56 57 57 56 56 58 55 53 59 65 66 67 70 68 78 84 89 90 87 86 87 85 85 84 83 84
141 132 123 124 117 103 104 103 98 98 90 86 81 80 79 71 67 62 61 59 62 60 62 59 57 60 59 63 65 64 63 68 70 71 73 76 79 82 86 87 87 89 85 85
106 125 134 133 123 110 106 105 98 97 88 85 85 81 78 76 74 72 72 68 66 66 63 64 63 58 56 63 62 61 61 64 62 55 53 54 49 38 44 55 52 51 47 42
81 96 102 113 123 122 117 108 99 90 86 86 83 83 81 81 79 77 72 70 69 71 69 65 64 66 55 58 62 58 58 56 54 51 45 34 20 28 35 35 25 20 29 44
68 73 78 86 101 110 113 111 107 98 86 83 88 89 89 85 85 83 81 79 77 76 73 70 69 64 59 54 59 56 55 49 43 38 40 30 30 28 36 32 37 34 31 41

GFSCGP_250_spd_039.txt.gz
Wind_Speed
39 44 46 45 49 41 36 31 31 30 26 20 16 14 12 1 4 5 11 14 13 11 13 13 13 13 17 25 24 23 24 21 19 17 14 13 11 10 10 10 14 15 15 16
38 39 38 38 45 44 41 37 36 34 28 22 19 17 13 7 5 4 11 14 14 13 13 14 15 15 22 25 24 23 23 20 18 15 14 13 11 9 8 8 11 12 14 14
36 33 35 38 41 48 47 46 41 38 32 26 21 19 15 10 9 6 6 14 13 14 14 17 19 20 24 22 23 24 22 19 17 16 14 12 9 8 7 5 6 8 9 9
34 31 32 33 42 45 49 50 42 38 34 31 23 21 19 15 10 9 7 10 13 13 17 20 21 25 25 23 23 24 21 18 15 13 11 10 8 7 5 3 4 6 7 8
40 35 29 31 32 41 48 47 45 39 35 32 28 26 21 20 14 12 7 9 15 16 20 24 25 27 24 22 24 24 22 19 17 13 11 9 7 4 3 2 1 3 6 8
41 41 30 36 29 33 39 45 47 44 39 32 39 35 27 25 18 16 10 11 17 20 22 25 28 27 27 28 28 27 24 21 18 16 13 12 10 8 5 4 6 6 7 8
46 45 41 38 34 30 30 39 40 43 40 46 48 37 37 27 22 17 15 12 19 22 21 22 24 27 25 23 25 25 24 21 19 16 15 15 14 12 10 10 10 10 10 10
55 50 45 42 39 34 31 27 28 41 47 51 42 39 39 32 25 19 17 16 22 21 22 22 23 26 26 25 24 23 23 23 22 21 20 18 17 15 13 12 14 14 13 13
59 54 52 46 46 38 32 22 29 29 42 45 47 52 42 36 30 26 22 22 26 25 23 23 25 25 24 26 27 25 26 27 25 23 22 20 18 17 17 15 15 17 18 18
60 57 57 57 49 40 34 30 21 20 21 36 49 56 52 44 39 34 29 28 26 27 23 23 25 27 27 27 26 25 25 26 25 24 24 23 20 20 18 17 18 19 20 20
66 61 60 59 48 45 41 34 31 27 22 24 36 51 58 50 44 40 36 34 31 27 26 26 23 24 25 26 29 29 29 28 27 27 26 24 23 22 22 22 21 23 25 24
74 68 62 60 56 54 49 42 35 30 29 30 34 40 51 54 50 44 40 39 35 32 30 29 29 29 27 29 32 34 34 34 31 30 29 28 28 27 27 28 28 27 28 30
81 74 71 66 61 55 50 42 39 38 35 27 25 24 25 37 50 50 47 44 41 37 34 34 31 32 33 34 37 37 38 40 37 36 35 34 34 34 35 36 36 36 32 31
83 81 76 71 67 63 56 49 45 40 32 33 30 33 30 26 36 49 52 53 50 47 45 41 38 36 35 37 38 37 40 42 42 43 42 41 40 39 41 42 41 38 35 35
88 84 79 74 72 66 61 56 49 42 37 32 39 35 37 32 28 39 49 53 52 50 49 47 45 44 41 42 42 42 42 41 42 42 43 44 42 39 39 37 39 41 43 43
94 91 85 78 76 73 68 61 56 49 43 38 40 40 41 40 32 28 34 38 49 52 52 51 50 49 48 50 49 48 48 48 46 44 46 46 45 46 44 45 45 47 49 49
99 95 92 83 79 78 73 65 63 58 53 47 42 44 49 45 37 35 32 31 35 41 48 50 56 55 54 53 53 54 54 53 52 52 53 53 54 53 52 52 52 53 54 55
101 100 97 92 85 82 72 73 69 63 57 51 49 46 46 46 43 36 33 33 31 30 28 28 29 40 49 52 55 57 57 57 58 59 59 59 59 59 58 59 60 61 59 60
103 103 101 99 91 82 79 77 74 68 62 56 54 55 50 50 51 43 36 37 39 36 35 33 32 32 36 38 39 42 44 49 50 56 62 64 65 65 64 65 67 68 65 67
101 103 102 99 96 89 81 82 80 75 67 63 61 61 58 54 50 47 47 43 41 40 38 36 35 34 38 41 41 41 43 44 47 50 54 55 57 59 60 62 66 67 69 71
101 98 98 100 97 93 89 85 80 76 69 68 66 66 64 59 56 59 58 50 49 45 45 42 40 38 40 39 38 39 41 44 50 52 54 56 59 60 59 56 57 58 58 54
99 97 95 99 96 92 90 90 87 81 78 75 72 71 68 67 66 64 64 62 58 54 51 48 46 44 43 42 41 41 43 44 45 46 48 51 54 59 62 60 51 56 34 38
93 94 98 93 91 94 94 89 86 88 84 81 77 74 72 69 70 70 69 64 59 57 57 55 54 51 49 48 46 46 47 51 50 50 52 53 54 57 61 61 53 31 36 65
94 96 90 93 87 91 93 94 90 85 84 81 78 76 73 72 73 72 71 67 65 61 59 59 57 57 56 54 54 52 54 54 57 55 53 54 55 55 58 57 58 50 48 55
103 98 95 89 88 91 95 95 95 91 86 84 80 77 76 76 75 73 73 71 70 67 65 64 63 62 61 61 60 59 60 61 61 61 59 56 56 57 58 58 54 51 47 54
102 105 101 95 97 90 91 95 94 92 89 87 82 80 77 77 77 77 78 76 75 73 72 71 70 68 68 68 68 68 67 67 67 64 62 62 62 62 63 61 59 51 53 55

GFSCGP_250_spd_042.txt.gz
Wind_Speed
39 37 35 34 40 39 38 39 35 33 30 22 18 17 13 10 6 6 10 12 14 20 20 14 13 17 18 20 24 24 24 23 23 21 18 18 17 14 14 15 14 16 16 19
43 34 34 32 36 34 35 39 40 36 34 26 20 19 16 12 12 7 12 13 16 18 20 15 14 17 19 23 26 25 25 21 21 19 17 16 16 15 15 14 11 10 12 14
44 35 36 35 36 36 37 44 45 43 35 32 25 22 19 15 15 13 12 14 18 22 19 13 17 20 23 27 26 26 24 21 19 18 16 15 14 14 14 13 10 8 8 10
44 38 38 35 33 31 35 43 46 44 39 34 30 28 23 19 17 16 12 13 17 22 20 16 23 25 25 28 27 26 24 20 18 18 15 13 12 11 12 11 9 8 7 7
48 42 38 36 32 29 35 32 39 47 42 34 32 31 30 23 20 14 13 13 15 21 23 19 24 29 31 31 29 27 26 22 20 19 16 13 10 9 7 7 6 6 6 5
49 43 36 37 35 33 23 32 39 46 46 33 41 41 33 31 22 17 16 13 17 20 22 23 31 32 32 29 31 31 29 25 23 19 15 13 11 8 5 3 3 2 2 3
54 49 44 41 40 36 29 29 32 38 46 46 53 43 42 34 27 23 17 12 17 18 24 31 34 32 31 31 31 30 30 26 23 20 17 14 12 10 9 7 6 4 4 3
60 56 52 48 45 44 36 29 27 35 45 57 46 39 46 39 29 24 19 16 17 21 26 29 27 28 27 27 28 30 28 26 24 21 20 17 15 13 13 12 13 12 11 9
66 58 58 56 54 48 39 25 36 29 36 47 49 52 46 39 34 29 25 20 21 24 27 26 28 31 29 28 29 28 26 27 26 24 23 20 17 16 15 15 16 15 15 15
67 66 61 62 59 48 39 43 24 21 26 38 47 55 56 44 38 34 30 27 24 28 26 27 28 30 32 31 31 31 30 29 27 26 24 22 21 19 18 17 16 16 17 17
73 70 66 66 58 51 48 40 35 32 29 32 40 52 59 48 43 37 36 34 30 29 30 29 28 31 33 29 30 32 31 30 30 28 27 26 24 23 21 20 18 17 19 20
81 77 72 65 65 61 58 53 46 35 36 34 36 44 46 52 49 44 42 39 35 31 30 32 28 25 29 33 34 36 36 37 34 31 30 28 27 25 24 23 23 23 24 26
80 80 79 74 71 64 57 55 46 42 38 32 28 30 36 47 52 49 46 45 42 39 33 32 33 34 34 35 34 34 35 35 32 32 32 32 32 30 29 29 30 30 30 33
83 85 81 74 73 71 65 57 50 48 44 38 33 33 28 34 48 54 53 50 46 46 43 39 35 37 39 40 39 38 37 35 35 37 37 36 34 33 34 36 36 35 37 37
89 86 84 85 74 69 65 60 54 53 49 44 44 41 38 31 34 47 56 55 52 50 48 47 44 41 39 38 39 41 39 38 39 39 40 40 39 40 41 42 42 41 41 38
93 89 84 83 79 76 72 63 60 59 53 48 48 46 44 38 35 36 44 55 55 52 52 50 49 48 45 43 41 40 40 41 39 39 39 37 37 38 40 39 40 41 41 41
96 91 87 85 86 84 77 66 63 63 59 52 49 52 53 46 41 39 42 47 55 58 56 53 51 50 50 49 49 48 46 44 45 45 44 44 44 45 45 45 47 47 48 48
98 93 91 91 88 84 74 77 70 69 67 60 56 53 55 51 44 39 36 36 44 50 55 59 58 55 53 53 52 53 50 50 50 49 49 51 51 51 51 52 52 53 53 53
100 98 95 92 87 85 83 78 73 71 70 64 59 56 54 53 50 42 37 38 43 42 44 48 55 55 52 53 56 58 57 55 54 54 55 56 56 56 56 55 56 55 57 58
96 100 97 95 91 88 88 84 80 76 74 71 64 62 59 59 54 52 46 42 39 39 39 41 42 42 43 47 47 46 51 49 47 47 49 49 47 48 48 49 48 48 46 46
91 95 97 98 95 92 91 87 84 83 82 79 72 66 63 60 56 57 53 49 43 40 40 44 42 42 43 39 38 38 36 37 40 36 35 36 35 35 37 39 43 43 43 44
86 89 94 98 98 95 93 90 87 89 80 77 76 70 65 65 61 61 61 56 49 47 42 45 44 42 39 38 38 38 36 39 34 34 36 36 36 36 36 39 41 43 46 48
85 84 88 91 93 96 97 97 92 86 82 81 80 77 71 68 69 65 65 64 59 53 50 50 49 45 45 44 41 40 41 41 41 42 41 40 41 41 41 44 40 45 48 49
87 84 83 86 90 94 96 96 98 94 89 85 85 83 80 77 73 72 70 69 68 63 58 57 56 54 53 51 50 50 48 47 47 47 47 46 47 46 47 47 48 49 51 51
95 90 84 81 84 95 100 101 100 100 97 91 87 85 82 80 77 74 75 74 71 71 69 65 63 62 62 61 59 58 57 57 56 56 55 54 54 53 54 53 52 53 54 57
97 96 90 83 92 92 97 101 102 99 96 95 91 86 84 81 80 78 77 77 77 75 73 72 69 67 65 64 63 62 61 61 61 63 63 63 62 61 60 59 59 58 58 62

GFSCGP_250_spd_045.txt.gz
Wind_Speed
45 43 41 42 40 39 35 32 30 30 30 25 24 22 19 16 13 12 13 17 15 18 19 17 13 15 17 18 26 25 24 22 20 19 18 18 19 19 19 19 18 18 18 18
51 52 44 41 40 38 36 34 35 33 34 32 28 25 20 16 14 13 11 13 16 19 20 19 15 11 17 19 26 25 25 23 20 17 16 15 18 19 18 17 16 15 16 14
53 49 42 42 42 39 37 37 39 41 39 37 31 29 24 19 15 14 15 11 17 19 21 24 17 15 21 24 27 26 25 22 20 17 16 16 16 17 14 13 13 13 13 12
51 42 44 45 42 39 37 40 39 40 42 40 37 33 27 23 19 17 17 13 14 21 21 25 24 19 24 26 27 27 26 23 20 18 16 15 14 13 10 9 10 11 10 8
53 50 48 47 45 38 39 35 32 34 36 43 34 35 33 29 25 21 17 15 16 18 21 25 25 20 26 30 30 29 27 24 21 20 16 13 12 12 9 8 8 9 7 7
58 57 48 49 42 39 34 32 33 35 38 34 37 39 39 35 31 23 21 19 17 17 22 22 25 23 35 36 33 32 31 27 25 22 18 15 12 9 8 6 5 4 3 2
57 55 53 49 46 41 35 33 31 29 34 34 49 49 46 42 33 29 24 19 17 15 20 23 30 29 41 40 36 35 32 29 25 21 18 16 13 11 9 7 5 4 3 2
64 60 52 48 45 44 39 35 32 32 35 46 56 45 47 43 39 32 26 22 20 17 21 25 28 31 42 38 34 33 31 30 28 25 22 18 15 13 11 10 10 10 9 8
67 63 63 57 55 48 44 33 38 35 32 40 42 50 51 43 39 35 30 26 24 21 23 27 29 35 39 37 35 35 33 32 28 27 25 22 19 16 14 14 15 13 13 14
76 73 68 64 59 50 41 45 28 30 27 32 46 46 51 48 43 37 33 30 28 24 23 29 32 37 38 37 35 34 32 32 31 30 30 26 24 21 18 18 17 16 17 16
82 77 74 70 55 52 52 40 32 31 30 35 41 50 52 52 44 40 38 37 33 28 27 30 33 36 37 34 35 38 40 38 36 34 32 30 28 25 23 20 19 18 19 18
86 79 77 62 66 64 58 54 47 43 34 36 38 41 46 46 51 45 40 40 38 34 31 31 30 28 30 35 35 35 36 36 37 36 35 33 31 28 26 24 22 22 21 21
91 82 76 76 75 68 58 55 51 50 46 41 43 32 33 43 50 53 46 46 42 39 34 34 32 29 32 36 39 38 39 40 39 37 34 33 31 30 28 27 26 25 24 26
88 84 80 76 67 73 67 59 57 53 48 44 45 41 36 38 49 54 53 51 49 47 42 36 35 38 37 38 38 38 36 35 36 36 35 34 32 30 30 31 30 27 29 31
97 90 85 86 89 78 71 68 63 56 53 47 51 49 46 40 45 53 58 56 54 51 48 45 41 41 41 39 40 40 39 38 37 38 38 37 34 34 35 35 34 33 36 37
100 94 92 93 87 77 70 67 65 63 60 57 53 51 52 44 40 45 59 61 61 55 52 51 47 44 40 43 43 41 39 38 36 38 39 38 36 38 37 37 37 37 37 36
96 100 97 90 86 80 76 71 68 67 65 62 60 58 58 48 43 40 47 62 64 62 57 52 52 50 47 44 42 40 39 38 41 41 40 39 38 39 39 38 37 39 40 40
101 102 95 91 89 83 76 82 80 74 72 69 67 63 60 57 50 43 38 44 56 61 60 59 55 53 53 51 48 47 45 43 42 42 41 41 41 41 40 41 44 44 45 47
99 99 98 95 89 83 84 85 85 80 75 75 70 65 65 64 55 45 44 40 44 55 60 61 60 58 55 52 52 50 49 48 47 47 48 47 45 44 46 47 47 48 50 51
101 98 98 98 94 88 90 93 87 82 77 77 74 69 63 62 59 56 50 44 38 34 35 44 55 58 57 57 58 55 54 52 51 51 48 46 48 50 51 51 50 50 44 40
98 102 99 98 96 92 95 93 90 88 87 81 81 75 66 62 62 57 49 47 45 44 38 36 33 37 48 56 56 58 59 57 59 54 53 51 47 46 43 40 35 32 31 33
92 94 99 102 99 97 92 89 94 95 89 85 81 76 66 60 59 60 58 52 47 45 42 39 38 37 38 41 44 47 47 52 49 50 49 44 41 38 34 34 33 33 32 34
88 88 91 98 100 98 98 95 95 93 88 85 80 77 71 67 67 65 62 58 53 47 46 42 40 40 43 44 45 41 42 38 40 39 38 39 38 38 37 37 36 38 39 39
90 87 86 86 89 94 94 87 88 89 88 87 86 83 78 73 72 70 66 64 60 54 50 48 45 44 44 44 46 45 42 42 42 41 41 41 42 43 44 45 46 45 45 45
91 87 83 83 86 95 94 86 86 85 90 90 92 91 86 80 76 75 72 68 65 63 58 55 54 50 50 50 51 49 48 47 47 48 48 49 50 50 51 51 53 53 52 52
92 90 85 81 90 90 94 91 91 92 94 98 96 91 88 85 81 78 76 72 70 69 67 63 57 56 55 55 55 56 55 55 55 55 56 58 58 59 58 58 59 59 58 58

GFSCGP_250_spd_051.txt.gz
Wind_Speed
54 51 48 50 46 45 39 34 33 31 30 31 30 24 12 17 22 24 16 19 17 17 11 7 6 12 14 13 20 20 23 23 24 22 23 22 24 23 23 23 22 21 20 19
55 52 57 53 48 44 39 36 36 34 30 33 31 28 21 19 23 25 25 21 16 20 17 9 10 10 10 12 20 23 23 24 24 22 23 23 24 23 23 21 19 18 17 15
60 66 58 54 50 46 42 41 43 40 38 35 36 31 29 32 26 22 20 31 24 22 20 12 18 15 13 14 20 25 24 24 23 21 20 21 20 20 20 19 17 15 13 11
65 66 60 57 49 49 44 47 47 44 38 34 39 35 36 31 35 30 33 33 30 25 20 15 19 19 10 17 24 28 28 26 25 23 21 21 20 17 14 14 14 13 12 10
63 66 62 54 55 53 53 52 49 45 39 39 39 38 34 34 36 40 38 32 25 21 19 20 19 21 14 21 26 30 30 30 27 25 24 22 21 20 16 14 14 14 11 9
74 74 67 58 62 56 62 53 47 42 40 37 38 37 39 36 42 47 43 39 37 26 23 24 21 25 22 20 29 33 32 31 30 29 27 25 24 21 19 17 16 15 13 11
79 73 67 63 62 60 56 50 47 41 35 36 45 44 41 44 47 49 50 50 37 27 35 22 25 24 30 22 26 36 36 35 32 29 29 28 27 24 20 19 17 14 12 9
82 77 67 67 63 65 62 57 48 44 47 50 48 41 48 49 49 43 43 52 38 33 30 24 24 28 33 28 26 36 39 36 35 32 30 29 27 25 22 20 18 14 12 10
86 78 83 79 72 72 66 53 55 55 52 42 43 46 46 47 45 44 44 41 40 35 32 28 23 29 33 32 29 35 43 41 36 32 31 30 27 25 24 22 18 14 13 9
93 97 91 83 83 77 66 65 59 53 43 43 48 47 44 40 42 47 45 42 41 37 33 28 23 29 33 34 28 35 46 44 38 37 34 31 29 27 25 22 18 16 13 11
101 99 93 96 85 71 71 67 61 56 53 49 49 47 43 41 42 44 49 50 45 41 38 30 29 26 31 36 34 34 48 47 46 42 37 34 31 30 26 22 19 15 12 12
106 98 101 89 74 73 72 67 63 56 55 51 51 47 40 38 40 44 47 52 50 45 40 36 31 25 27 32 38 39 49 52 48 41 38 36 35 32 28 24 20 16 14 13
103 102 98 91 88 82 72 62 60 60 60 52 50 48 40 41 40 40 45 52 54 53 47 38 33 29 30 31 36 41 51 53 48 45 43 41 38 32 28 25 22 20 20 19
96 97 94 90 79 77 70 65 62 61 56 56 52 51 43 41 40 42 48 55 58 54 49 42 37 31 30 33 33 40 49 51 49 48 46 42 35 32 32 30 27 27 25 23
94 90 89 88 84 78 76 72 68 60 60 57 57 51 47 41 42 43 47 55 59 58 51 46 40 35 31 35 36 38 47 49 47 47 45 42 38 35 33 32 31 30 28 27
91 95 91 90 87 85 84 79 71 68 65 63 60 54 51 47 42 40 42 54 58 58 53 48 45 41 35 37 40 40 44 45 44 45 45 42 39 37 36 34 33 32 30 29
95 94 87 89 92 93 81 74 71 70 69 65 60 57 55 50 48 45 44 49 60 60 56 55 48 45 39 38 42 44 46 46 44 44 43 40 39 39 38 36 35 34 32 32
96 93 87 96 98 90 80 80 75 73 72 69 69 70 62 59 56 47 43 42 49 55 59 54 52 48 44 41 40 42 42 44 44 43 42 39 39 38 37 37 36 36 35 35
95 94 96 101 96 87 87 84 82 81 81 82 82 80 74 72 58 47 46 45 45 48 50 55 52 48 46 45 41 39 40 41 43 45 45 43 41 38 36 36 36 35 36 36
97 98 102 97 91 94 99 93 89 89 88 84 86 86 80 69 59 51 45 40 41 34 29 34 52 56 51 47 45 42 41 42 44 46 42 37 36 38 38 38 37 37 37 36
101 104 105 99 99 103 102 95 92 95 95 88 90 92 81 60 49 47 43 45 40 36 32 30 39 53 58 53 49 48 48 48 49 44 41 42 42 41 41 39 37 36 37 38
104 106 105 101 99 102 101 99 99 94 94 92 93 94 76 60 51 49 49 46 41 39 37 35 33 41 54 59 56 52 50 50 48 44 42 42 43 43 42 42 41 41 41 41
104 113 110 111 110 108 108 108 105 100 99 97 95 93 76 63 55 56 53 55 50 44 45 41 37 34 41 53 56 57 57 56 51 47 46 47 47 47 46 46 46 44 42 39
99 106 109 107 108 109 108 109 108 104 104 100 95 87 74 66 61 62 60 60 58 53 52 48 42 39 35 36 42 55 61 61 58 55 55 54 53 52 51 50 46 42 39 39
96 106 108 108 105 104 105 103 104 104 102 96 91 85 76 70 67 65 64 61 61 65 62 55 50 48 45 41 40 40 45 50 51 54 57 58 57 56 53 48 44 41 39 41
88 100 106 104 105 102 101 99 98 99 91 91 86 82 77 73 71 69 66 65 70 72 64 56 55 56 55 52 49 47 45 42 42 40 41 43 45 45 43 42 41 42 43 44

GFSCGP_250_spd_057.txt.gz
Wind_Speed
64 59 54 62 60 58 54 52 48 47 41 33 32 29 30 24 21 22 16 22 17 14 10 11 7 3 13 15 19 22 20 23 29 27 26 27 30 31 30 25 23 17 14 11
66 56 67 64 61 60 55 53 51 50 45 38 33 34 30 28 23 23 21 20 23 17 13 6 2 4 14 14 17 21 20 23 29 29 29 28 32 32 29 24 19 16 13 10
69 71 69 67 64 62 58 55 57 57 53 45 39 36 29 32 24 23 21 21 28 24 15 9 8 7 11 13 16 20 20 23 29 30 29 30 31 28 25 22 18 16 13 10
73 75 70 70 63 63 60 62 62 61 54 47 44 38 30 30 29 24 23 28 20 30 23 15 14 8 12 14 18 21 23 24 28 30 30 29 29 29 26 22 21 17 14 11
74 78 73 70 66 68 67 65 64 65 56 54 46 38 34 30 31 28 24 25 23 25 26 20 14 13 16 14 18 23 23 25 28 30 30 32 29 29 27 24 21 19 15 13
84 84 78 74 77 71 77 70 69 66 58 47 46 41 34 36 41 35 29 26 26 21 17 15 21 18 16 16 18 24 26 24 28 31 33 31 30 30 28 25 22 18 15 12
93 88 84 81 80 76 77 74 71 66 55 40 46 38 37 45 42 40 35 29 29 30 31 21 27 24 21 15 20 22 26 28 31 32 32 32 32 31 27 25 21 18 14 12
99 97 89 86 82 79 76 74 69 63 57 49 49 35 44 49 45 42 37 32 30 33 32 29 26 19 24 22 18 24 25 30 33 31 30 32 33 30 26 22 19 17 15 15
105 98 99 92 86 87 77 72 72 69 65 58 50 45 53 51 46 44 40 34 34 35 34 36 32 27 21 28 27 27 29 32 34 31 31 32 32 28 24 21 19 19 20 17
113 101 104 97 97 96 82 82 78 67 64 57 53 49 53 51 50 47 44 39 37 39 38 34 33 32 28 26 27 28 31 31 34 33 35 34 32 29 28 23 22 22 20 17
116 109 109 104 105 93 85 80 75 75 70 61 58 50 60 56 56 49 45 39 36 40 42 39 37 32 30 29 27 33 33 32 35 38 37 36 35 31 29 27 26 24 21 18
112 110 114 108 101 97 93 88 86 73 60 58 57 58 66 60 57 50 45 38 37 39 39 38 37 36 33 31 29 37 39 36 36 37 38 38 35 33 32 30 28 25 23 22
112 109 112 110 108 104 98 91 80 74 72 62 58 70 67 59 51 48 42 41 39 40 37 38 39 40 38 35 34 38 42 42 41 36 36 39 38 35 33 32 30 28 28 26
110 107 109 112 109 105 94 91 83 78 75 65 60 80 66 56 53 51 47 49 46 46 43 40 41 43 41 37 35 36 41 45 43 40 37 40 42 37 34 34 32 33 33 29
103 104 109 109 108 103 96 90 85 78 68 64 75 72 66 65 63 57 49 53 52 46 46 42 42 44 44 38 36 37 37 44 46 43 42 40 42 41 39 37 35 36 34 32
96 104 107 101 101 97 95 94 88 81 72 71 80 73 73 70 61 57 53 52 53 48 47 46 43 45 45 43 40 39 38 38 46 47 46 43 41 45 44 41 39 37 37 35
93 98 105 102 96 96 98 96 88 86 82 81 82 83 77 68 65 60 56 53 54 51 48 47 45 45 51 49 46 42 41 36 40 47 47 46 48 47 47 44 41 39 38 38
88 96 104 107 101 99 97 95 94 90 83 82 83 82 72 70 66 62 57 52 52 50 49 47 44 44 50 53 51 46 42 41 38 41 46 48 50 50 49 48 44 41 41 40
87 96 105 108 104 99 96 95 97 91 86 86 87 82 74 72 68 62 57 52 52 51 49 47 44 42 50 53 52 49 45 41 36 36 42 47 50 52 51 51 48 45 43 42
92 106 107 106 101 97 96 93 94 91 89 88 90 84 77 72 63 57 55 51 52 51 49 47 46 46 48 55 55 51 47 46 41 37 40 43 47 53 52 49 48 46 45 44
95 105 107 105 100 100 95 94 93 97 92 90 90 84 74 71 61 55 53 51 52 53 51 49 48 45 46 55 60 56 52 50 46 40 38 40 43 48 50 48 46 43 44 44
96 106 108 103 101 98 95 92 93 93 93 91 88 84 75 67 62 57 53 52 55 55 54 52 48 47 50 53 57 58 56 52 50 46 39 37 41 46 49 48 46 46 44 45
93 103 107 99 100 98 95 91 89 91 92 91 88 83 74 67 63 60 58 56 59 57 55 54 52 49 47 49 53 58 57 57 55 51 47 42 39 40 42 43 44 45 47 48
92 100 100 99 99 95 91 89 87 88 91 90 86 84 75 69 65 66 62 61 62 61 58 55 52 49 46 44 46 54 59 57 57 56 53 48 43 40 42 43 47 48 48 49
86 94 96 97 97 94 90 89 85 84 87 89 88 83 77 73 69 69 65 64 64 63 62 58 56 50 47 44 46 48 56 62 61 59 56 53 51 48 46 46 45 44 44 46
82 89 90 89 94 94 91 90 87 84 88 86 87 85 81 77 75 72 71 67 67 65 63 60 58 55 50 49 45 45 46 52 60 61 59 56 54 52 52 52 51 51 51 51

GFSCGP_250_spd_060.txt.gz
Wind_Speed
67 62 55 63 60 58 55 52 54 48 44 37 39 33 27 21 22 20 17 15 18 12 9 10 16 9 6 12 18 20 21 19 22 22 24 23 28 27 24 21 17 14 13 11
69 60 69 68 62 59 56 55 53 55 51 44 43 41 31 28 25 22 18 16 19 15 13 6 10 8 5 12 17 18 21 20 22 24 25 27 27 27 25 21 16 14 12 9
74 73 73 72 68 63 60 57 57 60 57 52 45 39 32 35 30 23 17 17 17 10 14 7 8 7 5 10 14 19 21 21 23 26 26 27 28 27 23 20 16 12 10 8
79 78 76 74 70 66 62 65 65 65 59 53 48 42 39 37 34 25 21 19 17 15 14 12 10 7 12 10 14 18 22 22 23 25 25 26 29 27 24 20 16 13 10 8
82 83 81 76 72 75 73 70 70 70 62 56 49 43 42 38 34 32 27 22 19 14 18 19 18 10 12 14 17 17 19 24 23 25 27 28 29 28 25 22 17 14 10 7
91 88 85 80 83 80 80 75 73 71 63 54 45 39 42 41 43 37 28 26 24 19 18 16 20 18 11 14 16 18 18 21 24 26 29 29 29 27 26 23 19 15 11 8
100 96 89 87 87 86 83 81 76 71 61 42 43 38 45 46 43 40 33 28 25 21 17 20 22 20 16 14 18 18 20 20 25 28 29 30 30 27 26 24 19 16 13 10
108 104 99 92 91 91 88 84 76 67 58 49 46 37 44 53 44 43 36 29 23 22 19 18 20 13 18 18 19 19 23 22 26 27 27 28 31 27 25 25 21 19 16 13
114 109 106 103 97 95 90 81 75 75 66 58 53 46 53 49 47 43 37 29 32 30 26 24 21 23 20 17 22 22 25 25 25 24 24 27 29 27 25 23 22 21 19 17
117 114 112 108 104 99 92 86 86 74 68 61 55 50 55 50 50 46 40 38 37 37 31 27 27 27 24 22 23 22 26 29 26 25 26 26 27 25 25 27 24 23 23 19
117 115 115 115 107 103 100 93 85 80 74 65 60 53 58 60 54 51 46 42 39 39 37 33 33 32 35 29 29 28 27 29 30 29 28 29 29 28 29 29 29 27 23 22
118 116 117 117 114 109 107 98 91 82 71 67 64 61 65 68 60 55 49 45 42 41 39 34 30 31 29 29 30 29 30 32 32 32 33 34 33 31 30 34 33 29 26 26
109 116 112 120 120 115 111 105 95 85 80 73 68 61 68 68 61 56 51 48 44 42 37 33 28 29 29 31 31 32 32 35 35 34 35 36 35 33 33 35 35 33 31 31
103 108 116 119 124 121 113 106 98 90 81 75 69 67 71 71 64 59 54 51 45 42 37 36 32 33 32 32 33 34 33 33 37 38 37 38 38 37 35 35 35 35 35 34
91 95 106 121 124 123 118 107 101 93 84 76 73 71 75 71 65 60 57 50 46 45 42 40 39 37 37 34 33 36 36 33 38 42 41 40 39 39 39 39 37 38 38 36
82 91 105 116 124 124 119 113 104 94 86 78 78 77 81 76 65 60 54 52 51 49 47 45 44 43 39 37 36 36 37 36 37 39 43 41 40 40 44 43 41 41 39 38
78 85 101 116 120 122 117 112 103 95 89 85 83 87 83 73 67 59 59 58 53 51 49 45 44 43 41 40 39 38 38 38 38 35 35 41 42 44 46 44 45 45 42 41
72 80 98 116 117 116 114 114 107 96 90 87 87 92 85 75 68 61 61 60 56 52 47 46 45 45 42 40 41 41 41 40 39 35 34 37 45 47 48 47 48 45 46 44
68 80 99 116 110 108 116 112 108 100 92 89 92 89 84 77 70 65 61 62 58 53 50 48 46 45 43 42 42 45 44 42 40 38 38 37 40 46 49 52 49 47 46 45
63 76 94 105 105 105 114 105 105 98 96 91 96 89 85 80 72 65 63 63 60 58 54 51 48 47 44 43 42 44 47 46 44 42 42 39 37 39 45 47 49 49 48 46
56 71 89 103 99 99 107 103 97 100 98 94 95 89 85 79 71 67 64 62 60 57 56 53 49 47 48 46 44 44 50 52 49 47 46 44 39 39 39 39 43 50 50 47
58 68 87 99 93 97 106 105 98 96 97 95 95 90 85 78 73 69 65 61 58 58 56 52 51 50 50 49 48 47 49 49 51 48 47 47 43 41 41 43 43 47 53 51
59 71 89 92 89 90 102 101 94 92 95 94 92 90 83 78 72 68 65 61 58 58 55 55 56 53 52 52 49 46 45 46 48 50 51 49 48 46 41 40 42 46 49 54
57 73 84 85 82 88 95 98 87 85 90 93 92 90 84 78 74 71 68 64 60 58 57 57 56 54 53 52 49 47 48 49 51 55 56 52 51 49 47 41 41 41 43 51
65 80 86 89 85 89 90 88 85 82 85 90 92 90 86 82 78 74 72 70 64 59 58 58 59 57 56 54 52 48 47 48 52 53 55 57 57 53 50 47 43 43 45 49
68 80 91 93 88 89 90 90 90 88 86 85 90 91 87 83 81 78 74 71 69 65 61 59 57 57 56 56 53 50 48 46 47 51 54 55 55 56 54 52 49 47 47 49

GFSCGP_250_spd_063.txt.gz
Wind_Speed
70 64 58 66 62 59 53 48 48 45 40 36 31 25 22 17 16 13 13 13 13 12 11 6 7 11 2 5 10 12 15 18 20 24 24 25 24 23 20 14 14 12 12 14
74 67 73 70 65 63 59 55 52 52 49 43 40 35 26 24 20 18 18 16 13 13 9 12 5 7 1 5 10 12 14 21 23 26 25 26 26 24 21 16 13 11 10 9
78 76 75 76 73 69 64 60 63 60 55 50 47 39 33 31 26 26 20 18 16 12 6 9 5 3 5 1 7 12 15 22 24 26 24 26 27 25 22 14 11 9 5 5
83 82 80 79 76 73 69 69 70 67 61 54 53 44 39 38 33 30 22 22 18 14 9 6 7 1 2 1 8 13 15 21 22 24 23 25 27 25 22 17 11 9 5 3
88 89 84 81 81 79 76 76 75 75 67 61 54 47 40 39 33 33 29 26 21 17 13 11 14 7 4 3 8 13 15 21 23 23 25 27 28 26 25 20 14 10 6 3
97 94 89 86 88 85 86 84 79 77 73 60 54 47 42 36 42 40 33 29 24 21 17 15 17 17 10 5 7 12 17 18 24 27 27 25 26 26 25 20 16 11 9 7
103 101 97 93 93 90 88 85 83 82 73 51 55 48 44 43 45 44 35 30 25 20 19 19 17 14 13 12 9 10 14 16 23 28 29 27 28 27 24 21 18 14 12 11
106 106 104 100 95 93 92 89 86 80 71 58 56 45 47 50 52 46 37 33 26 26 25 22 15 18 16 17 12 11 12 15 19 27 28 30 29 28 25 22 21 17 14 13
110 108 108 106 104 99 96 90 84 85 77 67 59 52 56 56 53 48 42 35 34 31 29 26 21 20 19 21 19 16 15 15 21 22 26 29 30 28 27 24 24 21 18 16
111 112 110 110 107 106 101 95 97 88 77 69 63 57 58 57 60 54 47 43 41 35 32 28 25 25 25 24 19 17 16 17 21 20 22 25 27 25 28 28 26 22 20 17
109 111 115 113 111 110 109 105 97 90 79 72 67 59 65 63 63 57 52 47 42 41 37 34 32 26 25 27 27 22 19 20 23 25 26 24 24 24 28 29 26 24 21 18
108 113 114 117 113 114 113 110 102 95 82 75 71 65 72 70 63 61 53 49 45 43 38 38 33 28 26 31 31 28 24 23 25 25 29 30 29 26 26 26 26 26 23 20
105 108 112 119 121 120 117 115 109 96 88 79 74 69 75 74 69 61 56 53 46 43 39 35 32 29 27 31 34 35 31 28 30 29 30 34 34 34 32 30 29 28 28 25
97 105 110 116 124 121 118 115 111 102 94 82 76 74 78 78 71 65 62 58 50 46 41 37 35 34 31 30 32 31 34 33 31 32 33 34 38 38 36 33 32 30 30 30
86 96 108 115 122 123 119 116 114 105 97 86 80 78 79 82 80 73 66 59 55 50 42 38 38 37 34 32 32 29 31 34 33 33 36 37 39 39 39 36 34 32 32 32
81 86 98 111 119 122 123 117 114 107 99 89 83 80 83 85 81 75 65 60 54 48 43 41 41 40 38 37 36 33 35 38 37 35 37 38 39 41 44 42 37 35 34 33
72 76 86 100 114 117 121 115 110 108 101 95 87 85 85 88 85 77 68 61 56 50 45 47 46 46 42 40 41 40 38 39 43 41 37 37 38 41 44 45 42 39 38 36
65 70 77 92 102 108 108 115 110 110 102 98 93 92 88 91 86 78 69 61 58 53 52 52 50 49 47 44 41 39 39 38 40 42 39 37 36 38 43 46 45 44 41 39
55 63 73 82 93 96 98 108 110 105 103 100 98 96 91 92 85 77 69 62 58 58 56 56 56 51 47 44 41 39 38 36 37 41 41 39 38 35 41 48 46 45 45 42
51 59 65 71 83 90 92 101 107 103 104 104 102 100 98 95 85 75 70 66 65 63 61 61 54 49 47 45 43 40 38 37 37 39 41 43 41 37 37 40 43 43 43 44
43 53 56 62 71 81 91 100 104 106 101 103 103 104 100 93 82 76 72 70 70 66 63 57 55 53 51 48 45 43 42 40 38 38 41 43 43 41 39 35 35 39 41 45
35 42 51 60 68 76 89 96 102 101 102 105 105 104 98 90 83 79 76 74 73 68 63 61 61 58 55 52 48 45 43 42 40 40 41 43 44 43 41 39 37 37 39 44
31 40 48 56 67 76 84 91 94 99 103 106 106 103 96 92 88 82 76 75 75 71 65 64 63 60 56 53 50 46 44 44 42 42 42 45 47 46 44 43 40 38 38 43
34 38 46 57 65 73 79 88 92 95 102 106 103 102 96 94 90 84 78 76 76 71 69 66 64 61 57 54 53 49 47 46 46 45 42 42 45 46 45 44 44 42 41 39
36 40 48 57 64 71 75 89 91 93 102 101 99 101 98 94 90 85 81 77 75 72 70 68 64 60 57 55 55 52 50 48 47 45 43 45 46 48 49 49 46 46 44 43
41 47 54 62 70 74 81 93 93 96 101 96 93 100 99 95 91 86 80 79 73 62 69 72 70 65 61 57 55 52 50 50 49 48 45 45 44 47 46 48 52 51 48 48

GFSCGP_250_spd_069.txt.gz
Wind_Speed
63 61 63 67 62 58 51 48 46 41 34 30 29 29 27 32 22 19 17 13 8 5 6 6 1 8 7 4 17 20 21 29 27 20 18 17 14 9 9 12 13 14 16 18
68 64 69 71 67 64 58 55 52 46 39 36 34 31 30 27 24 22 21 14 8 5 6 7 6 3 2 3 12 17 21 25 30 26 21 18 17 12 9 8 11 12 14 15
70 72 73 71 71 70 66 63 61 55 48 45 39 36 33 30 27 26 24 17 10 9 7 6 7 6 5 4 9 15 20 23 29 31 26 18 18 16 11 7 7 10 11 11
76 75 75 74 73 75 72 72 69 62 55 52 49 43 38 33 31 29 27 22 16 13 9 8 6 10 4 6 11 15 18 21 27 30 27 21 21 19 15 11 6 6 9 9
84 82 81 76 77 78 78 78 75 70 64 60 52 46 41 39 36 33 31 28 22 18 12 10 6 11 6 7 10 13 14 16 23 29 27 27 27 24 20 14 8 5 5 6
91 90 88 82 83 81 84 81 81 78 73 64 62 56 49 44 43 41 39 35 29 23 15 12 10 13 11 7 11 12 15 16 21 25 27 30 29 26 22 16 11 6 3 2
97 95 93 92 89 87 85 86 83 84 81 68 69 65 55 52 50 47 45 41 34 28 20 17 16 12 17 12 10 9 13 21 22 28 27 28 28 27 24 21 15 9 6 2
96 96 97 96 93 93 91 90 88 84 84 75 75 69 59 60 55 52 49 45 39 31 26 25 21 18 16 19 16 14 13 15 25 27 28 27 27 27 24 21 19 14 8 6
98 95 96 95 95 100 94 100 88 89 89 85 82 77 71 67 61 58 54 50 44 38 35 32 27 23 19 21 22 17 16 16 19 23 24 27 28 29 27 24 21 17 13 11
103 101 101 93 101 98 104 98 98 97 91 84 88 83 77 73 67 62 60 55 48 43 41 36 31 28 25 21 22 23 21 21 20 17 19 23 27 29 28 26 24 21 19 16
94 98 103 104 98 99 105 104 106 102 96 89 87 87 80 78 71 66 65 60 54 52 48 43 38 34 27 24 19 27 25 22 25 24 22 23 28 28 27 26 26 25 24 21
88 88 99 98 105 111 111 110 116 110 101 92 91 92 88 82 75 74 71 66 59 56 52 49 43 39 34 30 24 27 30 28 27 28 27 23 24 28 28 28 27 27 26 24
81 84 93 97 104 112 111 106 104 104 104 103 97 92 91 85 79 78 77 71 65 61 57 53 46 41 39 35 31 28 33 34 30 27 27 28 24 25 30 31 30 29 28 26
70 78 87 92 106 116 118 118 120 113 110 107 102 99 98 88 79 80 81 74 69 65 61 55 49 46 44 40 35 30 33 34 30 29 26 27 28 29 29 31 30 29 29 27
71 73 80 88 101 107 113 117 111 114 109 113 108 107 100 93 89 90 92 81 75 68 63 55 49 52 50 46 39 34 33 35 36 31 29 29 29 26 28 29 30 30 31 29
70 74 77 81 94 100 111 115 115 114 112 107 103 103 99 98 95 94 90 83 75 69 63 61 59 56 52 49 45 40 37 37 39 35 33 31 28 27 28 30 32 33 34 33
65 73 76 79 88 94 107 110 116 119 118 115 106 104 108 101 95 93 90 82 77 73 70 65 61 59 56 53 48 45 42 40 39 38 38 37 35 35 34 34 32 35 36 35
59 67 75 79 84 89 87 105 115 121 121 117 112 113 108 109 98 97 96 88 83 79 75 69 65 63 60 57 54 50 45 44 44 44 43 41 37 37 38 35 36 35 36 38
53 61 70 75 78 72 83 101 111 112 114 114 108 104 108 110 103 103 97 92 87 83 78 72 68 66 63 61 60 55 50 48 45 45 44 41 39 40 39 38 37 39 37 37
45 53 59 66 68 65 76 92 97 106 111 116 116 115 113 114 110 101 106 95 87 86 82 75 71 67 67 66 63 59 54 51 51 49 46 41 37 36 41 41 42 38 36 37
33 41 47 55 60 68 71 72 79 96 106 116 116 116 117 115 110 116 105 93 90 88 84 79 75 72 72 70 67 62 57 55 56 51 45 41 36 37 37 38 40 43 41 40
21 29 39 46 53 55 62 62 76 85 94 110 113 118 119 122 119 105 100 98 95 91 86 82 78 75 75 72 68 65 61 60 55 51 47 43 40 37 37 38 38 39 43 43
20 26 29 39 46 49 58 62 71 76 85 100 110 116 123 116 110 110 105 102 97 94 89 84 79 77 75 73 69 68 63 60 56 51 49 45 41 37 38 40 41 40 42 43
12 15 22 30 36 46 52 61 69 75 81 92 104 113 116 112 114 116 108 101 99 95 89 86 82 78 75 74 71 70 69 62 56 52 52 47 45 43 42 42 44 43 43 44
9 11 14 24 35 41 45 57 67 73 80 91 101 106 110 116 118 117 113 105 101 94 92 88 84 81 77 76 74 73 69 62 60 57 56 53 51 49 46 45 44 44 42 42
17 13 13 19 25 31 40 51 59 69 79 87 98 103 110 117 117 117 114 109 101 93 94 90 86 83 81 80 77 75 69 65 63 60 58 56 55 51 48 46 46 44 42 44

GFSCGP_250_spd_072.txt.gz
Wind_Speed
64 61 58 61 60 57 52 49 46 43 40 36 32 22 26 29 36 33 24 19 13 6 4 7 8 6 7 2 12 22 21 23 17 19 20 16 13 13 13 15 16 15 14 14
67 62 65 63 62 62 58 53 50 48 42 37 34 30 29 28 25 24 23 23 15 8 4 7 8 7 3 1 10 18 22 24 20 18 20 18 15 12 10 11 13 14 15 14
69 69 70 68 64 62 62 60 59 55 47 39 36 38 42 37 12 23 26 24 18 12 7 7 9 12 4 3 9 15 19 24 27 20 20 19 16 14 11 8 10 13 13 13
75 76 75 73 69 66 64 64 66 62 54 44 42 44 43 46 32 31 26 26 21 17 11 8 9 13 9 6 10 17 20 23 29 28 19 17 17 15 13 10 6 9 11 11
78 79 80 79 77 75 70 69 69 69 63 52 45 44 45 40 34 28 22 37 29 22 15 10 10 11 10 8 7 16 20 24 26 29 29 21 19 19 15 12 7 7 7 9
86 85 83 80 81 80 79 77 73 72 70 58 52 49 46 43 43 46 50 35 37 27 20 14 14 11 11 9 7 12 16 21 26 29 30 30 23 22 19 14 10 7 6 7
90 90 88 88 85 82 82 82 78 78 76 64 64 58 54 52 50 51 45 39 38 31 24 18 18 14 15 14 9 8 12 18 27 29 33 32 29 27 22 19 14 8 6 4
92 91 93 93 90 88 87 84 84 81 78 72 73 64 61 61 58 58 53 43 34 35 29 24 23 20 19 20 18 13 11 14 23 29 30 31 30 29 25 22 17 12 6 4
95 93 99 95 93 96 91 94 83 85 84 78 78 76 74 67 64 62 57 51 38 33 32 34 29 26 24 21 21 13 13 14 18 24 26 27 28 30 27 23 21 17 12 8
93 98 102 99 100 99 98 94 94 92 87 83 81 81 79 76 70 67 62 56 48 60 40 45 37 31 29 26 21 22 17 16 17 21 25 24 26 27 27 26 23 20 16 14
98 98 98 106 105 97 97 97 100 100 95 88 84 84 83 85 80 74 70 64 56 47 44 60 40 35 32 28 27 26 25 20 20 22 29 29 29 30 30 28 26 24 21 19
90 97 95 100 104 104 107 104 106 106 102 95 87 91 94 89 87 81 74 70 66 64 53 50 43 42 37 34 32 27 27 27 26 25 26 31 31 28 29 31 30 28 26 23
83 86 90 96 102 106 106 106 107 109 105 104 98 91 90 91 92 89 83 76 72 69 60 38 27 30 45 41 37 32 30 31 29 26 27 28 30 31 33 33 31 30 28 26
82 84 87 87 98 109 113 114 114 115 111 106 100 96 100 99 103 96 88 82 76 72 64 50 38 34 40 44 42 37 34 33 33 30 27 27 31 34 34 34 32 31 30 28
79 82 87 86 94 101 104 110 114 114 105 108 105 103 105 107 106 97 93 87 85 80 76 75 73 60 24 58 47 43 39 37 36 37 32 31 29 31 32 31 32 33 33 31
65 73 81 84 89 93 92 103 112 115 112 110 111 113 114 111 105 102 97 96 94 89 81 73 69 66 57 52 53 48 43 40 37 39 37 35 30 26 29 28 29 30 29 28
55 62 71 77 86 92 93 95 106 113 115 111 109 106 115 114 112 106 100 96 95 91 83 75 71 65 57 51 58 52 50 42 41 41 42 37 32 26 27 26 26 31 32 29
48 60 70 73 82 86 77 90 100 109 113 115 112 116 119 117 113 108 101 99 99 95 83 77 75 70 68 68 61 56 52 46 45 44 44 43 40 33 31 28 30 33 34 34
44 51 62 68 76 76 78 90 104 111 115 122 122 118 120 118 117 113 103 100 93 91 82 80 81 78 73 67 63 59 55 51 47 47 46 47 46 44 41 37 35 36 35 35
36 43 50 63 68 68 76 86 93 100 105 115 117 119 122 121 119 114 115 109 94 95 86 82 82 80 76 70 65 60 60 57 53 53 52 49 47 44 42 40 39 36 36 38
25 33 41 51 58 64 70 74 86 94 97 109 112 120 126 124 121 124 123 105 97 99 98 91 85 83 78 69 66 63 64 60 61 58 53 50 49 46 43 40 40 39 38 37
14 26 35 44 51 56 63 63 74 78 87 98 106 115 125 128 127 125 115 101 99 105 102 93 88 84 79 76 71 69 67 68 63 60 56 52 50 47 45 41 40 39 37 38
11 16 27 35 39 42 53 62 66 69 78 96 105 113 122 127 123 115 108 98 97 108 100 93 89 87 84 80 74 72 71 68 65 62 60 56 54 51 48 44 42 39 38 38
7 11 19 23 28 36 50 56 65 69 77 87 98 107 115 122 121 116 110 103 106 114 105 97 91 90 86 82 78 75 72 71 68 65 63 60 56 54 51 47 43 42 42 42
9 11 13 18 24 33 42 47 55 61 78 90 93 98 107 115 119 115 111 109 113 118 110 101 96 94 89 85 81 78 75 74 72 69 66 63 60 56 54 50 46 45 44 44
10 11 15 19 23 30 37 42 47 55 73 85 89 92 98 110 118 120 117 116 112 115 114 101 98 95 93 89 85 81 79 77 74 72 67 65 62 59 55 54 50 49 49 48

GFSCGP_250_spd_075.txt.gz
Wind_Speed
67 64 61 63 62 59 55 54 52 52 49 47 42 35 34 25 29 24 15 22 15 13 9 6 11 6 7 3 10 20 22 17 16 17 17 18 18 16 15 12 13 12 13 15
69 67 69 67 65 64 58 54 53 54 53 51 46 37 35 30 35 43 32 29 23 18 12 7 8 8 4 3 5 18 23 21 17 16 18 17 16 15 14 13 11 11 11 12
69 73 73 71 69 68 64 60 59 56 53 48 45 38 40 36 33 39 32 29 29 22 17 11 7 8 4 3 6 12 18 25 21 18 17 17 15 14 12 13 13 11 10 9
71 73 74 73 71 70 67 66 65 62 55 47 45 38 42 41 40 44 27 33 30 27 20 13 7 6 4 5 5 14 17 21 26 21 19 17 16 14 13 10 11 10 9 9
73 74 74 74 74 73 70 70 68 67 60 52 42 38 40 44 46 46 42 31 31 28 20 16 9 8 4 6 8 11 18 21 26 25 22 21 18 15 13 11 9 8 7 7
80 79 76 76 77 76 76 74 71 68 66 57 50 42 46 46 53 45 43 37 37 31 26 19 14 9 6 7 9 8 13 17 21 31 27 24 21 18 15 12 8 8 6 5
86 83 82 81 79 79 79 79 78 73 68 58 60 50 50 53 55 55 48 44 30 27 32 22 19 15 13 11 10 9 10 11 14 24 34 31 25 21 19 16 12 9 6 4
85 86 88 89 85 83 82 84 82 78 74 64 68 55 56 61 60 61 55 48 40 31 27 28 23 21 18 14 14 11 12 13 11 19 29 37 33 28 24 21 16 12 9 5
85 83 86 87 90 88 86 86 81 84 80 76 73 65 64 63 66 66 58 57 44 41 32 33 27 25 23 17 15 15 13 17 14 16 23 32 33 31 29 27 22 18 13 8
85 82 89 92 91 89 92 89 89 88 85 82 78 71 71 69 68 69 61 62 51 51 44 33 31 35 30 21 18 16 17 17 17 18 20 27 30 29 31 31 28 23 19 14
84 85 91 92 93 94 95 97 99 94 90 86 84 77 74 81 75 72 68 64 60 55 50 47 46 46 33 26 23 21 19 21 20 18 21 24 29 29 31 33 31 28 24 19
86 86 88 93 96 96 98 96 96 101 98 93 87 79 81 85 83 78 78 74 72 66 58 54 42 47 28 33 28 26 24 24 25 22 20 24 26 29 31 32 32 30 26 23
92 94 94 95 97 102 105 103 104 105 102 98 93 81 95 93 94 89 85 81 79 70 64 45 29 54 46 40 37 32 33 28 29 28 25 23 29 33 36 35 34 33 30 28
91 96 97 97 101 106 106 105 107 109 108 103 99 91 99 95 100 97 93 88 81 70 62 57 48 26 46 45 43 40 40 32 31 32 31 29 29 33 37 36 35 34 34 32
82 83 87 90 96 107 103 100 103 108 109 105 102 102 109 105 104 103 99 93 86 79 72 62 63 55 43 47 46 49 48 37 35 35 34 34 31 29 30 35 38 36 34 33
79 82 87 85 89 102 103 102 103 104 106 107 102 107 113 110 105 102 102 96 90 87 83 75 64 61 50 50 49 61 52 44 39 38 34 35 34 30 29 29 29 32 36 36
65 70 79 81 91 98 96 91 96 98 102 109 110 115 120 112 111 105 105 102 96 94 89 82 75 69 63 59 55 43 47 46 43 44 38 35 39 37 33 31 28 28 28 28
60 61 62 72 86 95 89 91 90 93 101 108 111 124 124 113 113 109 107 103 104 97 93 87 81 81 73 69 43 45 39 47 50 48 45 40 40 42 39 36 32 31 28 26
47 51 50 59 76 83 82 87 90 95 96 111 116 125 120 110 116 114 111 108 107 103 98 92 88 85 84 83 57 44 23 29 52 59 51 46 41 41 39 38 40 38 33 31
35 44 46 47 63 66 75 80 87 86 97 107 109 109 116 114 117 119 114 116 101 102 103 99 94 90 85 84 81 64 62 52 64 62 53 51 44 42 43 44 44 45 42 39
19 32 39 44 52 64 69 73 80 84 91 101 103 102 111 118 120 122 118 115 114 107 102 101 99 94 92 85 86 78 74 60 46 55 56 56 48 47 46 45 47 49 47 42
15 20 29 34 45 51 55 61 65 72 81 94 96 100 109 116 124 122 120 119 118 113 109 105 100 98 93 91 92 87 81 84 78 60 53 55 52 50 49 48 46 44 42 40
12 14 20 28 33 39 50 56 63 66 74 87 91 99 106 113 122 125 123 122 123 121 117 110 102 101 98 97 95 94 89 87 86 77 68 61 57 55 54 51 50 47 44 42
11 12 15 21 23 33 41 48 55 61 72 82 86 93 102 108 117 121 124 123 120 120 115 112 110 110 106 101 99 98 93 90 86 77 70 66 64 62 59 57 54 50 47 45
14 14 14 15 20 29 38 45 52 58 69 79 83 90 96 103 109 116 121 121 120 119 117 114 113 113 107 102 100 99 94 90 86 78 75 73 71 67 64 60 56 54 51 48
15 17 18 16 20 27 33 39 45 53 61 72 80 89 93 94 100 110 117 122 120 118 118 117 113 114 111 105 100 100 96 93 90 84 81 78 74 71 67 63 61 57 54 50

GFSCGP_250_spd_078.txt.gz
Wind_Speed
66 63 63 64 62 63 64 61 61 59 56 50 45 41 37 37 37 33 28 25 19 13 7 7 10 8 6 2 16 24 19 18 18 17 15 15 14 12 9 8 8 11 12 17
69 69 70 66 65 65 62 62 65 64 61 57 50 46 43 43 41 37 28 23 20 23 11 9 9 7 5 4 10 23 24 18 19 18 16 14 14 12 10 9 6 7 9 14
71 75 73 70 68 66 66 63 65 68 64 61 56 50 47 46 44 40 32 34 28 22 16 15 8 11 4 3 6 21 26 22 21 19 19 15 12 11 8 8 7 6 6 8
72 74 75 75 73 71 68 69 69 69 64 62 57 53 51 48 45 42 36 36 38 30 23 21 13 12 6 7 4 15 25 27 21 23 19 18 14 11 9 8 7 5 3 4
74 74 74 76 77 76 74 73 71 73 66 62 58 55 51 51 49 47 41 36 38 33 31 26 23 15 10 11 10 10 21 24 27 23 24 20 17 13 10 7 6 5 3 3
80 79 77 76 76 76 77 75 74 72 68 63 61 55 50 52 54 51 43 42 42 35 33 32 26 19 13 13 12 12 16 22 26 29 24 24 21 17 13 10 6 4 3 3
83 79 78 77 76 76 80 80 79 77 73 65 68 58 53 57 57 57 50 48 39 38 37 34 32 24 17 15 10 11 13 18 23 26 30 26 24 21 18 14 10 7 4 3
84 84 84 80 79 78 76 77 80 79 74 71 73 60 64 60 60 58 54 56 45 47 40 35 32 27 19 17 14 10 9 13 20 26 29 30 27 24 21 17 14 11 7 4
83 85 84 83 85 83 81 79 80 78 77 76 76 70 70 68 64 63 58 60 51 48 54 44 34 34 26 19 18 15 12 12 12 20 29 31 35 29 24 20 18 15 11 8
82 85 86 87 90 86 87 85 86 84 81 80 78 75 73 75 70 68 62 62 58 46 49 46 41 39 31 25 20 20 16 14 13 13 20 27 31 35 34 28 24 22 18 13
86 88 89 92 92 91 92 94 92 86 83 83 79 79 85 80 75 68 63 67 67 66 53 43 42 40 38 32 25 23 21 19 15 11 13 20 24 30 34 33 29 28 26 21
84 87 91 92 93 94 95 97 97 93 88 87 86 85 89 85 80 79 72 70 75 75 66 53 47 45 42 36 30 30 24 21 20 14 13 13 20 27 34 33 31 32 30 27
85 84 88 93 98 98 96 96 98 97 96 94 91 89 94 94 89 84 79 78 77 77 72 55 55 51 43 42 36 30 28 23 24 22 17 16 16 25 31 33 31 33 32 30
89 89 90 92 97 98 99 100 101 99 99 98 97 95 100 99 95 88 86 84 85 81 76 63 58 57 47 48 38 36 32 30 24 26 24 21 21 21 26 30 31 33 34 33
90 92 93 94 99 101 100 100 104 104 102 100 101 102 103 102 102 95 90 89 86 85 76 68 66 62 57 54 46 47 44 41 33 30 29 27 25 25 24 29 32 33 34 34
84 90 94 98 103 104 105 103 105 105 107 105 108 111 105 103 105 99 93 91 91 86 86 82 76 62 59 55 57 50 49 45 42 37 36 32 30 29 29 28 28 31 33 33
76 79 85 92 101 107 107 109 110 110 110 113 113 111 107 102 107 102 99 93 95 90 87 82 80 73 65 58 53 46 49 44 41 37 42 40 34 33 31 29 28 27 26 27
72 78 82 87 94 93 96 107 114 113 115 115 115 112 110 106 105 108 103 99 96 97 92 89 83 70 66 63 48 47 55 41 44 46 42 43 42 34 32 31 32 30 26 25
57 62 66 72 80 84 91 100 103 110 113 113 112 111 113 110 109 113 109 105 99 98 95 94 88 79 76 62 63 60 54 46 45 51 49 50 50 40 36 36 34 34 31 29
50 54 54 57 63 71 81 90 95 103 105 100 103 110 114 116 114 116 114 112 105 102 104 100 97 92 92 80 66 67 66 58 56 53 48 48 54 48 42 41 37 33 32 32
39 41 45 49 54 57 63 75 84 92 96 93 91 102 112 117 117 116 119 117 112 108 108 108 106 101 99 90 87 84 69 67 59 58 54 53 53 57 45 45 42 39 37 35
30 26 30 38 44 48 50 60 74 82 85 86 84 95 105 113 118 119 123 120 119 115 112 112 112 110 105 98 92 87 87 72 62 59 55 51 42 50 53 51 46 43 41 37
16 15 16 26 33 38 43 50 57 68 75 76 78 88 97 105 114 119 125 126 125 122 117 115 117 117 110 106 101 96 91 85 69 70 76 53 43 52 56 56 47 46 45 42
19 16 15 16 21 27 34 42 52 57 62 67 73 82 93 99 104 113 122 127 128 126 124 122 125 121 118 111 108 103 99 95 80 81 81 73 58 58 53 54 50 48 48 47
17 18 19 17 17 23 29 37 45 51 61 64 65 74 89 96 101 106 117 125 128 129 126 124 122 123 125 120 115 110 102 98 95 102 98 87 74 67 54 54 49 48 49 51
23 20 22 20 20 22 26 33 41 46 55 58 62 70 80 92 101 102 114 122 126 129 126 124 125 126 123 124 121 116 110 106 103 109 107 94 84 73 67 71 68 61 57 55

GFSCGP_250_spd_084.txt.gz
Wind_Speed
64 66 72 74 73 71 68 61 54 53 49 47 40 37 35 34 33 32 36 30 22 9 11 13 13 12 13 19 13 7 10 11 8 6 6 4 3 6 8 9 14 16 17 19
68 68 69 71 73 73 73 67 60 56 50 49 47 40 39 37 36 37 38 35 29 23 14 18 18 14 12 19 19 5 12 13 12 10 7 3 3 1 1 3 9 13 12 17
73 74 71 70 72 72 74 75 69 62 55 54 53 49 45 43 42 40 39 38 31 27 19 17 19 20 12 16 22 16 12 14 14 13 7 6 4 3 3 3 5 7 10 13
75 77 75 72 70 70 75 77 73 68 63 58 56 55 52 50 49 46 43 41 36 32 25 19 22 18 21 17 19 23 9 18 15 16 12 8 4 4 4 2 3 5 6 10
81 79 77 75 76 72 74 73 73 70 68 63 59 58 57 57 57 51 47 44 42 38 32 23 24 19 14 17 16 20 16 17 19 19 15 11 8 5 4 3 1 2 4 6
87 83 79 77 75 77 75 72 69 68 68 66 64 61 62 62 59 55 53 49 46 41 36 32 28 33 23 16 19 18 20 13 22 21 18 15 13 9 5 3 1 3 3 4
87 86 84 82 78 78 77 78 74 70 68 65 65 64 64 64 61 59 56 52 48 45 41 39 32 35 30 19 21 20 15 14 18 22 20 19 18 14 10 6 4 2 2 4
89 88 88 87 83 82 81 80 78 76 72 70 68 66 66 63 64 63 59 55 53 51 45 43 38 35 34 27 24 23 15 14 17 19 24 22 21 19 16 12 9 5 3 1
93 92 91 90 87 87 85 83 81 78 77 76 74 71 70 65 64 62 60 59 56 54 49 46 39 36 37 37 33 28 20 15 16 18 23 26 25 23 22 17 16 13 9 5
96 95 95 93 91 88 89 87 85 82 80 79 78 76 69 68 65 64 62 59 58 54 53 51 47 41 36 36 36 32 24 19 15 17 19 21 27 30 26 25 24 20 16 11
101 100 98 96 94 92 91 90 88 86 84 82 80 77 74 74 71 66 62 61 60 57 53 51 49 47 41 37 37 35 26 25 19 18 17 16 17 26 33 31 28 26 22 17
103 104 100 97 95 94 93 93 92 90 88 85 82 79 76 75 74 71 68 64 63 62 60 57 53 48 42 43 41 39 32 26 25 20 18 15 14 17 25 32 33 30 28 22
102 103 102 99 98 96 95 94 93 92 91 88 85 82 79 76 77 76 73 71 68 68 65 61 57 51 47 49 47 44 38 33 28 28 22 17 14 14 16 21 31 36 32 29
100 100 100 101 100 100 100 98 97 95 94 91 89 87 85 82 79 77 77 77 75 73 71 67 63 57 52 52 51 48 45 42 35 33 29 22 18 16 11 10 18 29 36 38
96 96 98 100 102 102 102 103 102 100 98 95 93 91 89 87 85 83 79 79 81 78 76 73 67 62 58 56 56 54 52 47 43 39 33 29 22 18 16 16 14 16 24 30
98 99 98 99 100 103 105 104 104 103 102 99 98 96 93 92 90 88 85 83 83 84 82 79 74 68 65 62 60 60 57 53 46 46 41 34 27 22 19 17 16 14 15 18
92 96 100 99 100 103 105 104 105 105 105 105 105 103 101 98 96 94 90 88 87 87 87 85 81 76 72 69 66 64 62 57 50 52 51 42 39 33 25 19 18 19 17 16
83 89 96 101 103 103 103 106 107 107 108 109 108 109 109 105 103 101 99 95 91 89 89 90 87 84 80 76 72 71 68 66 60 60 57 45 40 38 30 22 23 22 22 20
74 81 88 95 99 104 105 107 109 111 111 112 114 114 115 113 108 107 104 102 98 96 92 91 92 89 88 84 78 75 73 70 68 65 61 51 46 42 34 31 33 29 29 26
64 70 77 84 91 97 101 106 110 113 115 118 118 118 119 118 115 110 110 107 105 102 99 95 94 95 93 91 86 82 79 78 74 74 66 61 56 50 44 39 39 32 35 35
68 68 69 72 77 85 93 100 105 109 111 116 119 122 123 121 120 118 114 112 111 108 105 101 98 98 98 97 94 91 87 86 82 76 70 63 60 55 51 47 42 41 40 41
55 60 66 73 78 82 85 88 92 95 101 109 116 119 119 121 122 121 119 118 116 114 112 107 104 102 101 101 101 98 93 93 90 81 80 73 69 66 61 51 52 47 46 49
44 48 52 58 65 73 80 86 89 92 94 97 101 106 108 110 112 120 124 122 121 119 118 115 110 108 106 105 105 103 101 96 97 89 84 79 74 73 65 62 58 53 52 54
37 38 41 46 53 61 66 71 78 83 87 90 94 97 98 98 95 101 114 124 124 124 123 121 117 112 112 111 109 108 106 102 101 98 90 84 78 77 73 65 63 56 55 55
40 41 41 42 45 46 52 57 64 67 70 72 79 83 87 89 85 91 99 107 122 127 125 127 121 118 115 115 114 113 111 108 104 103 97 93 88 80 75 76 59 66 57 58
39 42 43 45 45 44 47 53 53 60 65 66 66 67 70 74 75 78 87 94 103 118 127 126 127 123 120 119 119 116 118 114 110 106 100 94 94 92 83 77 73 61 69 63

GFSCGP_250_spd_087.txt.gz
Wind_Speed
65 64 71 77 77 74 69 64 58 51 46 43 40 41 40 36 35 34 32 30 26 22 8 9 6 10 11 12 14 17 12 6 3 4 2 1 3 8 11 13 17 21 23 25
70 69 67 69 74 75 72 68 63 57 52 47 41 41 39 38 37 36 35 32 30 27 22 12 9 12 11 11 14 14 17 10 6 2 1 1 1 2 5 8 12 17 18 21
75 76 68 67 70 74 75 72 68 63 57 53 47 44 42 41 40 39 35 33 28 25 25 20 16 12 11 9 12 12 17 13 11 6 3 3 1 2 3 5 7 13 15 16
78 77 74 71 68 69 73 74 70 66 60 58 55 51 50 48 44 42 38 35 31 29 26 21 17 14 10 9 9 10 14 14 15 12 6 3 2 0 2 3 5 9 12 14
79 80 78 76 74 71 71 70 71 67 63 61 62 59 56 55 49 45 40 35 31 30 27 25 23 19 10 11 5 9 11 13 18 15 11 6 4 2 2 2 3 6 10 10
84 81 80 79 77 76 69 67 68 69 67 63 65 66 62 57 53 49 48 43 37 34 31 29 28 23 14 17 13 9 11 12 17 16 15 11 8 4 4 4 5 5 8 9
88 85 82 80 80 79 74 71 69 69 67 64 64 67 66 62 59 55 52 47 43 41 38 35 32 27 19 21 19 12 14 12 12 18 17 16 13 10 7 5 2 2 5 10
93 90 87 83 81 79 79 77 74 71 70 69 66 65 63 63 60 58 56 53 50 47 42 40 37 33 26 24 25 26 16 15 13 14 22 20 19 15 13 10 7 4 1 4
97 93 90 89 86 84 81 80 78 75 74 73 71 68 67 64 61 60 58 57 54 50 45 44 42 37 33 32 27 24 24 21 18 14 21 25 24 21 17 15 13 8 5 3
101 99 95 93 91 90 87 84 82 78 77 75 73 70 67 66 63 61 59 57 55 53 51 48 46 42 38 36 33 29 29 27 19 16 17 21 24 25 22 21 19 14 11 8
104 103 100 98 96 93 92 90 86 82 79 77 75 74 72 70 67 63 61 60 57 54 52 50 49 47 43 38 37 35 30 30 27 17 17 15 19 22 26 25 24 21 18 15
106 104 103 101 99 96 94 92 90 87 83 80 78 76 77 76 73 70 66 64 62 60 58 54 50 47 47 45 40 38 34 33 30 19 20 17 14 19 21 25 26 26 22 22
106 105 103 100 100 98 96 95 92 91 89 86 84 80 79 77 77 75 74 71 68 65 63 60 57 52 48 47 45 39 38 37 36 30 26 23 20 19 20 18 21 27 29 25
103 104 104 103 101 100 98 98 96 95 93 90 88 87 84 82 80 78 78 77 75 72 69 66 62 59 55 50 47 44 43 43 41 38 33 29 25 23 21 17 19 23 26 32
100 102 103 103 103 102 100 99 99 98 97 95 92 89 87 87 85 84 82 80 79 77 76 73 68 64 61 58 53 49 47 50 46 42 40 36 28 26 25 22 19 19 22 26
94 100 104 104 105 107 107 105 102 101 101 100 98 96 93 90 89 88 86 84 82 81 80 78 75 70 66 62 59 55 54 55 53 48 48 42 36 31 28 24 22 18 16 18
84 94 102 104 105 105 105 105 105 104 104 103 100 99 97 94 93 91 90 88 85 84 83 81 80 77 73 69 65 63 59 60 58 58 54 49 43 37 33 29 25 22 18 15
70 84 94 102 106 106 103 105 106 107 107 106 104 103 102 99 98 97 95 93 90 88 87 84 82 81 79 75 72 70 66 63 63 61 60 55 50 48 40 35 30 26 22 18
62 69 81 91 99 105 106 105 105 106 108 110 110 109 108 106 104 102 99 96 95 92 91 90 86 84 83 81 77 74 72 69 68 68 65 63 58 54 50 44 38 32 28 22
60 63 71 80 88 95 103 109 109 109 110 112 114 115 114 112 109 106 105 102 99 98 95 94 92 90 87 85 84 80 78 76 75 73 71 68 65 59 56 51 45 38 36 30
59 59 62 69 78 85 91 100 107 113 111 111 113 116 116 117 116 115 112 109 106 102 101 98 97 95 94 92 89 86 84 81 80 78 76 73 70 67 59 55 52 45 42 33
62 62 63 63 64 71 80 86 92 100 109 115 117 117 118 119 120 121 120 116 113 111 108 106 103 100 99 97 95 92 89 88 85 84 82 80 78 75 70 62 57 50 45 37
58 63 66 68 68 67 68 71 77 86 93 100 109 119 121 121 124 125 124 122 120 118 116 114 111 109 106 104 102 98 95 93 92 90 88 86 84 81 78 74 68 58 55 53
50 54 58 62 67 69 72 74 76 76 79 84 91 99 107 115 122 124 124 124 125 122 121 121 119 117 116 112 109 107 102 99 98 96 94 92 88 87 83 78 72 71 64 53
45 48 51 54 57 61 65 69 73 77 81 85 87 89 92 96 102 107 114 119 123 124 126 125 124 124 123 122 116 114 112 107 104 103 101 97 96 90 87 83 77 76 72 63
46 47 49 50 52 54 56 59 64 69 75 80 83 84 86 89 93 96 98 100 103 111 120 124 126 129 129 128 123 119 117 115 112 108 106 105 101 95 93 90 85 82 78 71

GFSCGP_250_spd_090.txt.gz
Wind_Speed
67 65 65 73 74 72 69 67 64 58 53 45 45 44 44 44 42 34 30 29 24 20 17 10 9 6 7 9 15 14 15 12 5 5 6 6 7 11 15 19 20 21 26 29
70 70 67 70 73 73 73 72 68 62 55 50 45 46 45 44 41 36 34 32 29 23 20 18 11 5 9 6 10 10 13 11 8 4 3 4 5 7 9 14 15 15 19 24
74 74 71 67 70 71 72 72 70 67 60 57 49 46 45 45 43 40 35 32 30 27 24 20 15 13 8 6 7 9 11 10 10 7 4 3 4 6 6 9 11 11 14 18
76 77 74 72 69 70 72 72 70 68 65 62 56 52 47 46 44 41 38 36 33 30 27 22 17 14 7 7 4 6 9 9 8 11 5 0 2 4 6 6 7 7 10 15
83 78 78 76 75 71 70 70 70 69 70 66 62 58 54 49 43 39 38 36 33 32 30 25 22 17 12 10 7 4 7 9 5 10 7 5 2 2 4 4 7 6 7 12
87 83 82 83 80 75 68 68 68 70 71 71 67 63 59 54 49 43 40 37 35 34 32 29 25 23 18 13 12 10 7 8 6 5 11 9 6 3 4 4 7 6 6 6
94 90 84 83 83 77 73 69 68 67 68 70 71 67 61 58 55 52 48 42 39 38 36 34 31 27 20 19 19 17 13 9 10 3 10 12 11 7 6 6 5 6 6 5
100 95 90 85 84 80 78 76 71 69 67 68 68 67 63 63 60 57 54 49 46 43 41 39 37 32 27 23 23 21 19 15 11 9 7 14 15 13 11 9 7 6 6 6
104 99 93 90 86 85 82 78 77 72 70 70 72 63 65 60 61 59 56 54 51 49 47 44 41 38 33 30 26 24 22 21 18 13 11 13 18 18 16 14 12 10 8 6
106 102 99 95 91 88 84 86 80 80 77 73 70 68 66 63 60 60 57 57 56 54 51 49 47 44 40 35 31 29 27 24 21 20 15 14 19 20 21 20 18 16 12 9
107 107 104 101 97 90 87 85 85 85 81 79 74 73 66 67 64 61 60 58 57 56 54 53 51 49 45 41 37 34 31 28 27 26 20 18 15 19 25 23 23 21 18 15
107 110 107 103 100 97 94 89 86 83 83 84 80 74 75 72 69 67 64 61 59 58 57 55 53 52 49 47 45 40 37 31 31 29 26 22 19 19 21 26 26 26 22 22
104 108 108 107 104 101 98 94 90 87 86 84 83 82 81 79 76 73 70 67 64 62 59 57 55 53 51 49 49 47 41 37 33 33 32 30 25 24 21 20 23 25 25 25
97 105 108 109 109 104 100 98 95 93 91 89 90 82 83 82 81 78 76 73 71 68 65 62 59 57 54 52 51 50 46 42 37 37 36 36 33 28 23 20 21 22 24 28
86 99 105 107 106 104 103 101 99 98 95 94 91 86 85 85 84 83 82 80 77 74 71 68 64 61 58 55 54 52 48 46 42 41 42 40 38 33 29 26 24 22 23 28
73 87 101 105 106 106 105 104 103 101 100 98 95 92 92 90 87 87 84 83 81 80 78 74 71 67 63 60 57 55 52 49 47 45 45 44 42 37 33 29 28 24 23 26
66 75 91 101 107 109 109 109 107 105 104 103 104 95 95 95 93 91 90 89 86 83 81 79 77 74 71 67 64 60 58 55 52 50 48 51 47 44 41 36 32 30 27 22
64 68 78 92 101 107 107 107 109 110 106 107 105 103 102 99 97 96 96 94 91 89 86 83 80 78 76 74 72 68 65 62 59 55 53 54 53 48 46 43 38 33 28 27
62 66 69 78 93 100 105 107 109 110 110 110 109 108 106 105 102 101 98 97 96 93 92 89 87 84 81 78 77 75 73 69 66 64 60 58 60 58 53 50 44 39 34 31
62 63 67 70 78 89 97 105 107 109 110 110 111 111 109 108 108 102 102 102 101 98 96 94 92 90 87 85 82 79 78 76 74 72 68 65 64 64 60 57 53 47 41 38
61 64 65 67 70 76 85 96 103 108 108 110 111 111 111 112 111 109 109 108 106 105 103 100 97 96 93 91 88 85 83 81 80 78 76 72 69 68 65 63 62 55 50 48
61 63 65 66 68 68 73 85 95 100 107 112 113 114 114 115 116 116 115 113 112 110 109 107 105 103 100 98 95 92 89 87 84 84 83 80 76 75 73 71 68 66 59 57
58 61 64 66 67 69 70 74 79 89 98 103 109 114 117 118 119 119 120 119 118 116 115 113 110 108 107 104 102 99 97 93 90 87 87 87 83 80 79 76 73 69 67 60
54 57 60 63 66 69 73 74 76 78 82 90 99 106 111 116 121 122 122 123 123 123 122 119 116 114 112 110 108 105 104 100 97 94 92 90 90 87 84 84 81 77 72 69
50 52 56 60 62 66 70 73 76 77 78 81 86 94 100 105 111 118 123 126 128 127 127 126 124 121 120 119 115 113 111 108 104 101 98 96 93 93 90 89 88 85 80 74
47 50 53 56 60 62 65 68 70 74 78 81 83 84 88 93 100 105 111 117 123 128 130 129 128 127 126 127 123 121 118 116 113 110 106 102 100 97 96 94 93 91 87 80

GFSCGP_250_spd_093.txt.gz
Wind_Speed
66 63 61 63 66 69 69 65 62 58 53 49 48 49 45 41 42 42 26 27 23 22 15 13 14 14 9 7 11 13 11 7 7 9 10 8 11 12 17 18 21 24 28 31
66 68 67 65 64 68 68 68 66 60 57 54 50 46 45 44 43 45 35 35 30 31 20 18 15 13 11 8 8 10 12 8 5 7 9 8 8 11 12 14 17 19 24 27
72 71 72 67 63 63 69 72 72 66 62 58 56 53 46 44 43 43 42 36 34 32 28 23 17 15 14 7 3 6 10 8 5 4 6 5 6 7 9 12 14 16 19 22
78 73 70 71 68 65 67 72 73 71 66 59 57 54 53 49 46 44 42 40 36 32 28 23 22 16 14 8 6 1 6 9 4 2 3 3 4 5 7 9 11 12 15 17
83 77 73 74 73 71 68 71 71 71 71 65 61 63 58 55 48 44 44 42 38 36 32 27 25 19 16 12 7 5 2 7 6 3 2 2 2 3 5 6 7 9 11 14
85 85 81 76 78 76 71 65 67 73 74 69 67 65 62 57 47 47 45 43 41 39 36 33 30 26 20 17 11 12 9 5 6 2 4 3 3 2 1 4 4 6 8 10
78 88 88 83 78 79 71 70 68 69 73 71 72 73 63 58 59 52 48 45 42 40 39 36 31 28 22 21 19 17 14 11 6 3 3 6 6 4 3 2 4 5 5 8
75 88 92 88 82 78 75 76 70 66 67 72 75 77 64 64 60 55 50 48 45 43 41 37 35 33 27 26 24 21 19 15 13 7 6 7 8 9 7 6 3 3 3 5
75 86 91 93 91 82 80 79 76 75 71 73 78 70 66 66 65 62 57 53 50 48 44 41 39 37 33 31 28 24 23 22 18 17 11 7 10 12 13 11 8 6 3 3
81 81 88 98 95 90 83 84 84 77 75 74 74 70 74 74 70 65 65 57 54 53 49 46 43 41 39 36 34 31 28 26 23 19 18 12 11 16 17 15 14 11 9 6
77 76 84 95 98 95 90 89 88 84 82 77 76 76 65 67 70 70 65 66 62 59 55 55 51 46 46 41 39 36 32 32 30 25 22 20 13 16 19 18 17 16 15 13
75 77 81 97 104 99 94 92 91 88 86 81 85 82 71 72 71 69 69 68 66 63 62 60 57 52 50 46 44 41 37 34 34 33 27 24 23 19 21 22 22 20 18 18
77 78 84 89 102 106 102 99 93 90 94 91 90 82 80 78 73 70 70 68 67 66 65 62 61 58 52 47 48 45 45 41 37 37 35 31 27 27 22 21 25 26 24 22
75 80 81 92 104 111 108 101 98 95 94 90 95 89 85 81 77 73 72 70 68 67 65 63 61 60 57 54 49 38 44 43 42 41 38 35 31 29 27 22 22 27 29 29
75 76 80 87 95 106 108 107 103 99 97 102 106 97 87 85 82 79 78 75 72 70 68 66 64 61 58 55 53 50 46 42 40 44 42 39 34 31 31 30 27 26 29 31
69 72 79 84 93 104 107 107 104 104 101 101 102 90 79 87 89 87 85 82 78 75 72 69 67 63 60 58 56 54 52 50 47 43 43 42 39 36 35 34 32 29 28 29
65 66 70 79 90 101 106 110 109 110 107 109 102 92 91 90 91 90 88 87 85 82 78 75 72 69 66 63 61 59 57 54 51 47 44 43 42 42 40 39 37 35 30 29
63 65 68 75 79 94 107 107 109 111 109 111 105 95 96 95 95 94 92 90 87 85 83 80 78 75 72 69 67 64 62 59 55 53 49 47 47 47 47 43 43 39 33 30
63 64 67 69 73 84 90 105 111 114 111 112 111 104 103 102 101 98 97 93 90 87 85 83 82 80 78 76 74 72 69 66 62 59 56 54 52 51 51 51 47 44 40 36
64 66 66 69 70 76 88 91 104 112 114 111 112 111 108 106 108 102 97 96 95 95 92 90 87 85 82 81 78 77 75 73 71 67 64 61 58 57 56 54 54 50 45 45
64 67 69 69 72 76 70 88 100 107 114 109 115 112 113 113 111 102 104 106 104 102 99 97 94 92 89 87 85 83 80 78 76 73 71 70 67 64 61 58 54 56 53 49
63 66 70 73 73 73 69 82 92 101 108 109 113 115 118 117 116 112 110 109 109 106 106 104 102 99 97 95 93 90 88 85 82 80 77 75 74 72 68 66 65 62 59 58
59 64 69 72 74 71 75 80 81 89 99 107 115 118 120 121 120 118 117 116 114 113 111 110 108 107 104 102 100 99 97 94 91 88 85 82 79 78 78 74 72 70 68 66
57 60 65 69 71 75 76 79 80 82 84 91 103 112 118 121 123 123 124 124 122 120 120 118 116 114 112 110 108 105 104 101 98 94 92 89 87 84 82 81 80 76 74 72
53 58 61 64 69 72 75 77 80 81 84 85 88 96 105 113 118 122 124 126 126 125 125 125 124 123 120 118 116 114 111 109 106 103 99 96 93 91 88 86 84 84 80 78
49 53 56 59 63 69 72 77 81 83 84 85 86 87 91 97 105 113 117 122 124 126 128 130 130 129 128 126 125 122 119 116 114 111 109 106 101 97 95 93 90 88 87 84

GFSCGP_250_spd_096.txt.gz
Wind_Speed
63 63 61 62 62 71 69 63 60 52 48 45 39 37 43 40 40 39 32 30 24 20 19 14 16 27 16 15 12 13 17 12 12 12 14 14 17 21 20 18 23 26 29 29
65 63 66 65 64 69 69 66 62 57 55 47 44 42 38 36 29 41 36 33 33 29 24 22 19 28 19 13 8 11 16 11 9 11 13 10 15 21 17 12 19 22 25 26
70 70 68 67 65 64 67 65 63 60 59 60 54 46 33 29 39 36 34 35 33 32 27 27 24 26 19 14 9 7 11 15 10 8 11 11 7 8 14 15 17 19 21 24
76 74 70 68 67 64 63 67 72 69 66 63 60 58 64 45 29 30 32 42 41 40 39 39 33 22 18 14 13 9 6 13 12 8 10 8 10 11 10 11 14 16 17 20
80 78 74 69 68 67 67 71 72 73 75 68 65 63 66 54 44 40 18 15 32 35 32 32 28 23 19 15 15 13 10 7 11 12 4 6 9 9 8 13 22 12 12 14
75 81 79 75 71 71 74 71 73 70 71 70 69 68 63 58 50 50 50 50 35 30 28 31 26 27 22 19 17 18 13 13 10 10 10 2 7 8 1 8 4 8 9 10
75 77 82 81 78 75 74 73 70 71 68 71 72 73 65 58 41 55 60 47 43 34 33 40 35 31 24 24 21 21 17 15 10 9 8 8 2 5 3 5 2 7 5 7
71 76 76 86 83 78 73 75 72 67 65 70 75 80 72 64 64 45 45 50 48 43 34 27 31 37 32 27 26 23 20 17 16 13 10 7 5 8 10 8 5 3 5 6
70 71 78 83 88 87 79 75 72 74 72 73 84 79 72 68 68 72 62 52 48 44 35 35 34 29 32 37 31 25 23 21 19 18 16 14 10 9 10 10 8 5 4 4
71 70 74 74 85 86 82 78 79 79 81 79 84 70 78 75 75 66 59 56 49 41 39 35 36 27 24 28 30 32 27 25 23 22 21 20 16 13 10 14 13 9 7 4
77 72 70 76 76 86 89 82 79 81 82 80 83 78 79 80 74 73 71 63 56 53 44 41 34 19 15 22 22 36 31 29 28 26 24 26 24 22 18 13 15 13 12 10
85 77 72 74 75 78 89 90 91 89 80 83 87 85 71 74 73 79 76 71 65 59 55 64 62 44 24 26 26 10 30 33 33 31 25 27 31 28 25 24 17 16 15 18
79 78 76 73 76 79 80 91 92 89 89 91 89 88 75 74 71 77 78 75 72 70 70 67 69 67 68 59 42 30 29 17 27 20 27 28 30 33 31 29 27 22 18 21
79 83 82 77 81 82 82 89 97 97 94 90 98 96 88 88 73 77 74 74 73 72 71 70 68 68 69 62 59 55 38 32 45 35 39 35 31 32 32 32 32 29 25 23
82 84 86 81 81 79 82 83 96 101 98 103 104 101 95 90 78 75 73 71 72 73 74 74 74 71 70 69 67 63 54 42 36 39 27 10 27 35 37 37 34 33 30 26
87 86 82 78 78 72 73 83 90 101 105 112 107 103 94 90 80 79 77 73 72 72 72 73 75 74 73 71 69 67 65 52 43 45 57 38 38 27 30 36 37 35 34 29
91 91 86 84 84 83 82 82 84 83 105 118 108 95 103 94 91 84 84 81 79 77 75 73 73 72 72 70 67 66 66 64 64 54 52 50 57 50 25 37 39 41 39 34
83 85 87 90 89 84 85 84 86 88 101 116 113 110 101 93 89 87 88 89 87 84 81 78 76 74 73 72 70 68 67 66 67 67 64 55 56 60 61 55 50 47 44 39
67 71 74 78 81 82 82 84 89 93 106 105 111 112 106 101 97 96 97 99 95 92 88 84 81 78 75 74 73 71 70 67 65 65 65 66 66 64 59 57 53 47 46 42
62 67 70 73 75 79 87 84 87 92 97 99 108 113 111 110 108 104 101 98 97 95 92 90 89 85 83 80 79 76 74 71 70 67 64 63 63 64 61 58 56 55 52 50
62 65 67 72 75 82 80 81 86 91 98 94 102 111 113 115 113 105 101 101 102 102 99 97 94 92 90 88 86 83 80 77 76 74 71 67 65 64 63 62 60 57 56 54
62 66 69 73 76 80 74 77 82 85 90 89 98 105 114 120 118 110 107 108 106 104 102 101 99 98 96 94 91 89 88 86 84 81 78 76 72 70 68 66 64 63 62 60
62 64 69 72 75 74 72 73 77 84 89 90 91 100 113 121 120 116 114 113 112 111 109 105 103 101 98 97 96 95 92 90 88 86 84 82 80 77 75 74 71 69 67 67
60 62 71 74 75 76 74 79 84 86 84 83 88 94 104 112 115 117 118 117 115 115 115 113 110 108 106 104 102 100 98 96 94 93 91 88 86 83 81 78 77 75 74 71
59 62 68 70 72 76 78 79 82 84 83 86 85 87 94 101 109 115 118 121 122 119 119 119 117 116 114 112 110 108 106 103 101 99 98 96 93 90 87 83 81 79 79 77
56 60 64 68 68 72 75 78 83 87 87 86 87 87 88 93 98 105 113 120 124 124 122 122 123 123 121 119 117 115 114 112 110 108 107 104 102 99 95 93 90 88 86 83

GFSCGP_250_spd_102.txt.gz
Wind_Speed
69 68 67 68 68 65 68 68 61 57 57 44 51 43 44 31 21 25 28 28 20 16 9 14 16 16 17 20 15 16 19 19 12 12 13 10 20 21 24 25 29 29 29 30
69 70 73 70 69 67 64 67 68 62 55 61 54 46 53 45 29 28 22 24 27 22 15 17 17 18 16 17 12 10 15 19 12 12 11 12 15 15 20 22 24 27 27 28
74 79 74 73 73 69 66 60 71 71 63 54 52 53 48 38 41 40 37 26 26 26 25 21 18 20 18 16 12 8 9 14 15 10 8 12 16 14 17 19 20 23 24 26
81 76 73 73 74 73 69 67 66 74 71 65 59 56 52 46 33 36 39 25 23 18 24 30 25 25 18 13 10 7 5 11 12 10 8 7 10 10 9 15 16 17 20 23
82 79 76 73 73 73 76 73 68 70 76 72 68 57 54 53 51 40 37 40 39 34 24 27 26 22 17 12 8 6 6 7 10 10 10 9 5 6 9 11 11 14 15 18
77 84 82 79 78 74 82 76 71 67 69 76 76 72 60 49 54 54 39 38 35 29 25 28 28 24 14 12 9 8 7 8 8 7 8 9 7 2 5 6 9 11 11 13
77 76 80 82 79 77 81 78 72 71 68 77 77 72 67 55 54 55 44 34 33 28 31 25 22 13 12 13 7 13 8 10 9 9 6 7 8 7 2 1 5 8 8 8
78 77 80 81 81 80 81 78 76 73 69 76 76 75 75 69 64 56 48 36 33 29 24 25 21 17 10 10 15 16 15 12 12 11 10 7 7 11 10 3 3 4 7 5
83 81 82 83 82 84 85 80 78 78 75 73 72 74 74 62 61 60 54 50 46 32 28 30 33 24 17 13 13 14 19 18 16 13 15 11 10 10 11 8 5 4 4 5
84 79 79 80 86 89 90 86 85 84 81 79 74 73 71 69 65 61 62 56 58 53 38 40 39 36 28 22 15 16 14 20 17 16 18 18 14 13 12 10 9 7 7 6
81 79 79 79 80 87 87 86 86 83 84 84 77 74 78 74 65 64 57 61 60 55 44 37 36 38 37 25 17 21 13 15 13 22 25 22 21 18 16 11 13 11 11 10
75 77 80 79 77 81 85 89 88 86 84 83 81 76 73 81 74 66 65 68 63 58 44 36 40 41 37 28 27 26 23 15 11 12 19 21 24 28 22 16 14 13 13 13
73 76 72 75 76 76 79 86 93 89 89 84 81 79 76 73 77 78 69 70 66 65 56 47 47 34 31 35 28 43 40 23 26 23 8 20 22 19 27 28 21 26 16 13
81 79 76 78 80 75 74 81 86 90 93 88 85 83 80 71 71 71 73 79 81 70 65 61 58 46 30 42 48 50 47 30 29 36 32 24 28 25 19 23 27 30 28 19
76 80 75 77 79 75 75 75 78 84 96 92 89 85 83 80 74 75 79 81 81 72 73 73 71 68 59 50 46 43 52 42 37 39 34 31 33 31 23 20 27 22 26 26
73 72 75 76 78 77 78 78 79 85 95 94 94 89 83 83 85 80 77 86 88 86 78 72 72 74 70 68 57 47 52 48 41 50 46 39 33 41 32 28 29 24 23 27
74 75 73 76 75 79 81 80 83 83 85 90 91 92 88 85 84 84 87 75 79 83 84 81 78 78 77 75 70 57 56 58 50 48 51 42 41 42 34 36 37 32 34 29
78 80 78 76 79 83 84 82 85 85 83 81 85 86 89 88 89 87 91 89 76 78 80 88 90 86 85 82 76 68 65 68 61 62 57 52 48 54 45 41 41 43 38 31
80 82 79 79 80 83 83 83 86 86 83 80 79 80 85 87 90 95 95 94 95 87 78 78 90 96 94 89 86 80 75 75 71 67 70 57 57 58 52 52 53 47 40 36
85 80 82 82 83 86 88 89 85 84 84 81 78 78 80 88 89 94 101 101 101 104 100 95 87 89 94 97 96 89 85 84 86 78 78 71 66 63 63 58 54 54 51 47
87 89 87 86 88 89 88 92 87 87 85 83 81 81 80 81 86 90 97 106 108 107 103 102 102 98 93 91 96 96 96 91 92 95 98 95 87 81 80 77 66 66 61 58
96 91 91 92 90 90 88 93 91 87 90 91 89 86 86 86 84 88 93 100 106 110 108 104 101 101 103 99 95 96 100 103 103 105 106 105 102 96 87 87 85 85 79 74
71 90 101 94 93 95 93 97 97 92 96 96 94 94 95 95 93 94 96 101 102 105 110 111 109 105 103 101 103 100 99 102 105 108 107 105 104 103 100 94 91 91 89 88
56 64 75 88 99 99 95 99 101 98 96 96 99 101 99 99 99 99 99 98 100 105 108 109 111 113 112 108 105 103 105 104 102 104 107 109 109 108 104 101 99 98 97 96
54 59 64 68 74 81 92 105 109 104 102 103 103 102 99 101 101 99 98 100 105 106 108 109 108 110 115 115 114 112 109 107 107 107 106 105 105 106 105 104 102 100 98 98
48 55 61 65 68 72 76 81 87 97 108 115 114 110 104 100 98 103 106 105 104 107 108 111 110 111 113 116 121 121 118 115 111 110 111 110 110 109 106 105 103 102 101 100

GFSCGP_250_spd_105.txt.gz
Wind_Speed
72 69 69 71 69 66 66 62 57 53 49 33 33 32 27 26 30 30 23 20 18 13 14 12 10 12 17 19 21 18 19 19 14 14 16 18 22 22 26 27 23 25 22 27
76 74 76 73 71 68 66 66 63 59 57 39 35 43 39 29 31 30 27 27 23 22 23 19 12 14 14 18 17 15 15 19 18 14 13 13 13 19 23 24 25 24 22 25
79 83 78 75 72 70 65 65 70 67 62 57 41 41 43 39 37 36 33 26 23 20 19 17 16 15 18 19 15 16 14 16 17 15 10 10 12 13 19 20 22 24 24 24
84 83 79 78 75 72 69 69 66 73 69 68 61 43 39 52 49 51 41 39 28 26 20 14 14 19 19 20 11 14 14 13 14 15 15 10 9 12 14 16 19 20 22 22
87 84 83 79 79 76 77 74 71 71 75 72 68 69 58 48 49 45 47 46 41 36 25 20 18 20 17 15 13 11 14 10 11 12 14 14 11 11 12 15 15 16 18 20
87 87 83 84 85 82 83 76 73 71 72 75 76 70 67 65 52 34 36 45 43 45 33 27 27 21 15 14 13 11 10 11 8 9 11 12 13 14 12 11 13 14 15 17
82 84 86 86 83 84 80 76 75 73 70 72 73 70 68 61 59 52 47 44 36 34 35 30 26 21 17 19 15 14 9 11 9 8 9 9 10 13 15 12 9 11 11 12
81 82 86 86 83 85 84 79 76 75 73 73 74 77 67 60 63 64 63 51 42 35 36 34 27 23 22 21 18 15 9 10 12 8 9 7 10 11 13 14 11 7 9 10
86 82 84 86 90 89 87 83 79 79 78 74 72 78 76 66 68 65 57 51 46 43 35 38 29 21 22 19 18 17 12 12 13 14 14 10 9 9 9 11 13 11 7 7
87 85 81 82 89 91 89 87 83 81 81 79 76 76 74 77 71 68 55 49 49 39 35 36 34 34 32 20 20 16 15 12 9 15 14 16 14 13 9 8 9 10 9 6
88 87 83 81 84 91 93 90 88 84 84 84 79 78 74 76 78 73 67 62 57 48 44 44 42 43 37 30 29 18 17 14 6 9 14 13 17 15 18 13 7 8 10 6
89 88 87 84 83 85 89 91 89 86 82 83 82 79 78 75 75 76 69 65 60 56 56 51 48 52 37 28 35 31 25 26 14 8 6 11 5 14 10 15 13 10 13 13
87 87 89 89 85 87 88 88 89 90 89 86 81 79 77 75 75 75 76 74 70 64 60 61 55 53 46 34 41 33 34 35 27 19 17 10 8 7 8 12 13 20 13 18
86 87 90 90 86 86 84 86 87 91 93 89 83 79 77 74 77 78 76 72 74 64 72 68 66 55 48 50 43 41 40 37 32 30 25 18 18 19 20 19 14 14 17 21
85 89 89 91 89 86 83 83 88 90 93 92 88 81 77 80 79 80 76 77 76 73 73 74 75 61 54 51 44 45 45 41 41 41 39 31 27 26 28 26 18 20 19 19
81 86 89 89 89 86 84 85 88 91 93 92 90 86 81 80 81 85 84 78 79 75 86 77 81 66 59 52 50 54 52 52 48 49 46 41 33 35 32 34 27 29 30 22
83 84 82 86 87 83 83 85 87 90 93 92 89 89 90 87 85 86 92 92 86 84 85 93 86 82 68 66 63 61 60 60 60 57 50 49 46 41 40 40 34 31 36 33
82 86 91 85 82 85 87 84 84 86 92 91 89 87 89 90 90 87 90 91 95 99 97 93 88 82 78 70 68 65 65 66 62 60 58 55 48 49 47 48 43 35 32 35
79 83 88 92 89 86 84 85 86 85 85 88 87 87 88 91 93 93 91 92 92 93 100 102 100 99 90 82 79 75 67 66 68 66 58 54 51 50 52 56 55 49 49 47
81 82 82 83 92 94 88 85 84 83 85 84 83 86 88 90 93 98 99 98 96 97 98 96 98 95 92 91 89 90 79 81 82 77 67 60 59 58 55 61 60 56 59 59
81 80 79 80 82 84 84 88 91 84 82 83 85 85 86 87 90 94 99 103 103 103 104 102 98 96 96 94 92 89 88 86 89 84 79 73 73 69 65 64 69 65 62 60
87 84 82 81 81 79 81 83 87 87 87 84 86 86 86 88 89 92 98 102 106 107 107 106 104 101 97 98 100 99 97 95 96 95 91 86 81 80 75 76 71 74 69 69
90 89 89 85 83 83 86 85 85 87 87 85 85 86 86 87 91 96 97 102 106 107 109 111 108 105 104 98 99 101 101 104 105 102 100 97 94 89 90 86 82 80 77 73
67 87 95 91 92 87 87 88 89 90 89 87 85 89 91 90 94 96 98 99 101 106 111 110 111 113 109 108 101 102 103 107 113 110 110 109 109 104 96 99 100 96 94 96
54 65 78 92 97 94 97 94 93 93 93 91 91 93 95 100 99 96 98 100 104 106 107 112 114 112 113 115 114 111 106 105 105 108 116 117 114 113 109 108 108 107 107 106
45 55 63 70 80 93 102 100 100 102 99 96 96 99 100 101 102 99 97 98 101 106 108 108 110 113 115 115 117 118 119 119 118 116 113 111 111 114 116 117 118 117 113 113

GFSCGP_250_spd_108.txt.gz
Wind_Speed
71 69 71 71 66 64 60 59 56 56 35 32 33 35 35 28 25 22 21 14 12 5 3 7 12 14 15 20 23 25 24 26 27 24 23 20 26 29 30 29 29 25 27 25
76 76 75 72 68 65 62 62 61 61 53 35 32 35 35 31 27 27 23 16 16 13 10 14 14 15 14 16 20 20 21 22 25 25 22 22 23 27 28 29 28 28 26 25
84 84 77 74 72 68 65 62 66 65 61 50 43 32 34 36 28 30 25 25 19 15 8 7 11 13 14 15 15 15 18 17 19 22 23 22 21 23 24 26 26 27 27 27
85 86 81 77 74 71 69 67 64 68 63 62 56 50 40 34 38 33 28 30 23 19 14 9 10 7 14 13 11 12 15 15 15 17 21 21 22 21 20 23 24 24 24 26
82 86 84 81 80 78 77 70 69 66 67 64 64 62 50 45 33 38 34 35 31 23 21 16 15 16 14 8 9 8 12 12 13 13 16 19 22 23 20 20 21 21 23 24
83 85 86 85 83 82 79 72 70 70 68 68 66 68 53 48 51 49 40 38 38 37 40 33 24 20 26 13 10 8 9 10 12 10 11 14 19 19 21 19 18 19 19 21
83 81 85 89 86 84 78 74 72 71 69 68 71 71 62 53 54 52 46 48 46 46 46 38 34 30 26 16 15 10 10 9 10 9 8 8 11 13 16 18 15 17 17 16
87 83 84 87 87 87 83 79 75 73 73 73 70 73 72 63 56 51 49 54 51 46 35 35 32 24 24 20 16 15 11 8 10 10 8 9 8 9 10 14 10 12 16 14
89 88 87 87 91 92 87 82 81 79 78 75 71 69 72 74 66 61 60 55 55 47 46 38 34 29 24 21 22 20 17 11 10 11 9 8 9 8 9 8 8 9 14 12
88 91 90 88 90 92 91 88 84 81 80 77 74 74 69 74 66 63 62 59 59 57 49 46 39 36 28 32 27 22 20 15 10 9 9 7 9 8 9 11 4 3 9 9
89 91 91 90 89 90 91 88 86 84 83 81 78 76 75 72 78 76 68 61 59 63 57 47 44 41 33 32 32 28 25 19 17 11 11 5 4 4 6 8 11 7 5 8
89 91 90 90 88 88 90 91 90 88 85 83 81 79 77 73 71 70 70 67 58 54 49 48 51 45 39 41 37 34 28 22 21 14 13 9 8 11 7 1 4 10 10 10
90 90 90 91 89 89 88 89 90 88 87 83 81 81 79 78 78 74 71 69 61 50 51 50 49 46 44 43 44 39 34 30 29 24 17 13 11 13 11 9 6 7 7 9
90 89 90 91 89 88 86 84 86 89 88 85 81 79 81 81 80 78 79 77 70 65 56 54 55 48 51 51 53 45 38 36 31 35 31 26 18 15 14 10 9 10 14 14
92 91 92 91 90 90 88 85 83 86 89 87 85 83 80 80 82 81 82 80 85 79 74 66 63 58 59 59 60 55 48 47 36 38 40 36 30 22 22 20 19 14 13 14
89 93 94 94 91 90 89 88 86 86 87 90 90 87 85 81 78 82 83 83 83 83 83 72 70 66 65 64 67 59 55 50 45 44 47 41 43 35 32 28 23 24 25 24
86 91 97 96 95 93 92 90 88 87 88 89 90 90 89 84 81 80 83 87 83 82 86 86 85 79 73 69 72 73 60 58 55 53 54 51 52 47 41 35 33 30 32 33
83 91 92 94 95 96 93 92 91 90 89 86 87 88 90 85 85 84 84 84 86 83 85 89 90 94 91 79 76 70 69 65 60 58 58 57 57 59 52 48 41 38 39 39
79 85 92 96 96 95 92 92 94 92 91 89 87 86 85 86 88 89 89 89 87 88 86 89 93 90 93 93 92 86 75 71 67 59 59 61 60 65 63 52 50 48 45 46
78 79 87 91 96 95 97 96 94 92 93 93 93 89 87 87 89 92 93 94 93 89 89 90 90 91 90 89 92 91 82 79 71 65 63 66 66 67 66 64 55 54 54 55
79 78 79 82 88 92 95 95 93 95 93 93 94 90 90 90 91 91 95 96 96 98 93 94 96 96 92 92 95 91 89 85 87 78 77 71 71 72 71 68 62 61 59 56
85 81 79 80 82 84 86 88 89 92 95 96 95 93 93 92 93 96 98 96 97 98 99 99 98 99 102 98 95 95 91 96 94 88 81 82 80 75 75 76 70 60 61 60
86 87 85 82 81 80 84 87 88 87 87 90 94 94 93 95 96 98 100 101 101 103 104 102 103 102 103 105 106 106 105 100 100 102 99 86 90 86 79 84 79 77 72 69
66 83 90 87 85 83 82 82 85 89 92 91 89 90 93 96 95 98 101 102 105 105 104 104 106 107 107 106 106 106 103 102 102 103 106 100 96 94 90 91 88 88 84 77
49 63 77 89 91 88 86 85 83 85 88 93 97 96 92 94 97 96 102 103 104 103 104 105 106 107 110 112 110 107 106 105 106 105 102 103 102 108 108 102 98 94 95 95
35 47 56 68 81 91 92 90 89 87 87 89 92 95 98 100 99 101 104 103 107 107 104 103 103 103 107 108 110 112 112 110 109 108 108 107 104 106 106 107 107 105 108 108

GFSCGP_250_spd_111.txt.gz
Wind_Speed
71 71 71 68 63 61 55 56 53 55 47 44 37 32 31 33 25 21 16 12 8 10 2 4 8 13 17 22 21 25 26 28 29 27 29 30 31 32 34 33 31 29 28 28
75 77 75 71 67 64 60 56 60 57 59 53 46 36 34 34 26 25 21 17 12 12 5 8 7 9 12 19 18 19 22 23 26 26 28 28 27 29 31 33 32 33 30 29
82 80 77 74 71 68 65 60 60 61 56 56 50 42 37 36 32 30 28 18 17 16 9 9 4 5 11 15 16 15 17 19 21 23 25 26 25 27 28 29 31 33 32 32
84 80 78 77 75 72 69 65 60 60 59 56 46 44 45 41 39 32 33 25 20 19 14 11 4 2 8 12 12 16 13 14 16 17 22 25 24 23 25 26 27 31 32 31
81 83 82 79 78 77 73 70 64 57 61 54 47 45 47 46 47 40 38 34 28 20 20 16 6 3 3 11 13 13 13 13 12 14 15 19 18 21 22 25 24 27 29 28
79 84 85 83 82 80 77 72 67 63 59 63 61 49 45 45 48 43 40 37 30 28 27 24 19 18 19 23 17 12 11 12 12 9 11 14 15 15 20 21 24 20 24 25
78 80 84 87 85 82 78 74 70 67 63 65 69 68 60 50 46 44 44 42 37 34 33 34 26 24 29 25 17 12 11 11 12 9 8 10 11 11 12 13 17 20 16 21
80 79 80 86 87 85 82 78 76 73 71 70 69 69 66 64 59 53 44 47 43 42 41 40 29 28 25 18 17 13 13 12 11 9 6 4 6 7 11 11 12 14 16 14
87 82 81 83 91 90 86 80 81 79 78 73 69 70 59 68 67 60 54 51 47 48 47 40 37 32 22 19 18 16 15 18 12 9 8 8 4 4 10 10 8 11 11 12
91 89 84 84 88 91 89 89 84 81 80 76 72 72 69 66 70 64 61 55 61 56 49 45 44 36 30 29 23 24 20 23 15 11 8 7 6 2 6 4 11 16 14 10
90 94 91 87 84 88 89 88 87 83 83 80 78 75 74 75 70 72 70 65 54 51 51 50 46 42 35 44 43 28 26 26 19 14 12 9 8 4 5 5 4 4 11 10
90 93 95 90 86 86 87 90 91 88 84 84 82 80 77 76 81 76 70 62 54 57 56 55 53 47 44 44 44 34 29 30 25 18 18 14 14 12 10 7 9 6 2 6
88 94 96 95 90 89 86 87 88 89 87 86 86 83 82 80 80 82 79 77 64 60 60 56 57 52 52 50 43 39 36 32 33 23 22 17 16 17 20 15 15 13 11 9
78 91 97 97 93 89 88 87 86 88 89 88 85 83 84 84 81 80 78 72 68 69 63 65 48 51 58 53 53 49 43 38 40 36 30 24 19 16 20 18 16 13 14 12
73 83 94 96 97 93 91 91 88 87 89 90 88 84 83 84 84 81 79 79 74 73 72 64 55 61 48 51 49 51 51 41 50 44 36 33 28 25 23 24 21 19 17 14
68 77 87 93 98 95 92 93 92 89 87 90 90 86 85 84 83 84 82 81 82 84 78 72 69 52 59 51 57 55 56 48 52 45 40 38 38 38 35 33 31 28 24 22
66 72 83 90 97 97 94 93 93 91 88 89 91 91 88 87 84 82 85 83 79 80 78 75 69 65 61 62 60 60 63 60 55 57 51 47 46 46 45 43 42 36 32 31
71 70 75 88 93 98 94 94 94 93 91 88 89 91 90 89 87 85 82 84 86 83 87 80 77 72 66 68 65 67 65 66 61 63 57 53 52 51 51 49 51 49 43 40
73 67 68 77 92 96 96 96 94 93 92 91 89 89 89 89 89 89 89 87 88 89 88 92 92 84 77 73 74 77 77 76 69 71 70 63 57 54 59 59 58 57 56 49
76 71 70 73 84 92 97 96 96 95 96 95 92 90 88 86 89 94 94 91 92 91 90 92 92 95 96 96 91 81 78 79 76 71 72 72 66 61 63 66 64 60 62 61
82 78 74 72 74 81 91 97 97 97 97 96 96 92 89 88 88 90 93 95 95 96 95 94 92 93 93 92 92 94 92 87 86 81 75 72 74 73 72 71 68 69 64 64
78 79 79 76 75 74 81 90 96 99 100 97 98 96 93 92 90 90 92 93 97 99 100 99 96 93 91 91 92 92 91 93 99 94 90 88 80 72 71 71 71 75 71 68
74 81 81 79 78 76 76 80 88 95 98 99 98 95 97 96 94 95 96 94 95 96 99 101 100 98 94 91 90 90 93 93 93 96 94 92 92 94 83 81 82 79 78 70
63 73 83 82 82 79 79 77 82 88 94 98 99 98 99 97 99 98 100 98 99 100 100 99 97 97 97 98 98 96 94 95 94 97 96 92 92 93 88 93 90 89 84 81
42 55 71 81 87 84 81 79 79 81 86 93 98 100 99 100 100 102 103 102 101 104 104 102 100 97 97 97 99 102 101 100 98 97 97 97 94 94 94 93 96 95 98 93
26 35 43 56 73 83 88 87 84 81 82 85 89 93 97 101 102 103 104 103 103 105 106 106 105 103 101 99 98 101 103 104 104 103 102 103 102 102 102 100 104 103 105 104

GFSCGP_250_spd_114.txt.gz
Wind_Speed
73 71 71 69 64 60 57 57 54 50 44 50 48 38 35 31 29 24 19 11 9 8 3 4 8 12 17 19 23 25 26 29 29 30 31 28 32 36 36 34 34 32 31 30
77 75 74 71 68 65 62 60 60 56 48 52 51 44 40 37 32 26 24 17 12 9 6 2 7 7 14 18 20 21 24 24 28 28 28 30 26 32 34 34 33 33 31 30
82 79 76 74 73 68 67 64 64 63 62 47 49 44 42 40 34 27 24 20 19 15 11 4 3 3 12 17 18 18 20 20 23 24 25 26 26 26 29 32 33 32 32 32
83 80 79 78 77 75 70 68 66 64 61 59 54 49 46 39 37 32 29 23 21 18 13 10 4 3 7 14 19 19 16 18 18 19 22 23 24 25 26 28 30 32 31 31
83 83 82 80 81 80 73 69 67 64 64 61 59 55 53 44 39 38 37 32 31 23 15 17 11 6 3 9 14 21 12 14 15 16 16 15 16 23 25 24 26 28 30 31
76 84 84 84 81 80 78 72 69 65 65 59 62 59 58 55 48 44 39 35 34 31 20 23 18 13 7 9 12 14 11 9 10 12 12 13 16 15 17 18 18 21 22 26
74 80 83 84 84 81 79 76 71 67 66 68 68 61 54 50 49 50 46 40 39 42 32 27 23 22 16 9 7 10 9 6 6 7 8 10 10 12 16 12 13 12 18 18
77 78 80 82 83 81 81 80 75 73 70 67 68 64 60 54 55 58 52 48 46 46 39 35 25 27 22 11 7 5 10 7 5 6 4 5 4 8 13 15 14 15 15 13
82 80 81 83 85 84 83 82 80 76 74 70 65 62 60 58 55 58 55 52 49 51 46 43 35 28 26 23 13 8 9 8 10 7 4 1 4 3 7 11 12 15 13 13
85 82 81 83 86 84 86 86 81 79 79 74 70 69 61 65 63 54 53 49 49 51 50 47 41 32 32 29 21 17 19 15 18 15 10 3 4 7 8 7 6 9 10 11
88 89 86 84 82 84 85 85 83 82 81 78 74 74 76 80 70 65 58 53 48 52 52 50 46 39 37 35 27 24 23 25 20 18 15 7 8 9 5 10 8 5 1 7
88 91 87 86 87 86 86 87 87 85 82 82 80 77 82 82 74 77 74 68 55 53 53 51 47 43 43 43 37 35 35 32 23 23 22 14 15 13 7 11 13 12 10 8
88 88 90 90 87 87 85 87 86 86 88 86 84 85 88 86 80 66 67 73 74 62 60 58 56 56 56 50 49 42 42 35 33 27 26 21 23 19 12 13 18 20 17 11
90 89 88 92 93 92 86 83 86 86 87 89 88 88 89 87 81 79 67 69 72 75 60 58 58 52 49 47 50 45 37 35 35 33 30 29 26 25 19 17 19 22 22 19
87 92 90 90 90 90 88 85 86 87 86 89 93 90 90 90 88 84 84 67 65 68 71 64 66 53 56 48 54 52 53 52 45 41 37 36 31 30 28 22 21 26 28 26
79 88 94 92 91 91 95 93 89 89 87 87 90 92 90 89 89 90 87 85 76 72 68 67 65 68 57 55 47 61 61 60 57 53 47 42 35 34 33 29 25 28 30 29
74 75 85 92 93 92 94 98 95 89 88 87 90 90 94 92 91 89 90 88 83 86 80 72 71 69 65 58 60 59 58 54 61 57 55 52 49 47 42 39 34 33 34 36
79 76 75 80 88 95 97 95 97 95 92 90 88 88 91 94 93 92 90 90 89 85 86 87 78 78 71 74 75 57 50 54 55 54 60 54 54 50 52 48 43 39 42 41
81 76 72 73 75 85 96 96 96 100 97 96 93 91 90 92 96 92 90 90 90 90 90 89 86 76 71 73 65 56 55 61 63 64 66 62 59 55 57 54 52 50 49 49
81 76 75 74 72 76 84 92 98 100 102 98 96 96 93 90 91 93 94 92 92 91 93 93 91 88 84 75 78 79 76 67 68 71 73 65 60 64 62 65 60 55 55 55
79 80 79 74 71 68 71 82 93 102 102 101 99 98 96 94 89 88 94 96 95 94 93 91 92 92 89 91 87 79 79 80 81 71 66 65 61 70 68 66 67 63 59 58
73 81 81 76 72 67 66 73 81 90 99 102 102 99 97 95 93 95 93 93 97 99 98 95 94 93 92 93 93 95 89 88 86 88 88 81 74 72 75 76 75 75 77 75
64 79 82 79 74 74 72 70 72 79 90 97 102 102 99 97 97 96 97 96 95 97 99 100 100 98 95 93 92 92 101 98 92 91 90 90 92 87 85 76 78 78 76 82
50 63 78 83 78 77 77 75 73 74 81 87 96 101 103 102 101 99 99 97 98 97 97 99 101 102 100 99 97 95 96 105 103 98 96 95 94 94 89 87 85 81 81 82
29 44 59 70 81 83 80 78 76 74 76 81 88 94 98 102 104 102 101 100 99 100 98 99 97 97 98 101 99 100 101 101 103 108 111 111 109 108 107 102 100 97 99 96
18 27 37 51 62 71 82 85 84 80 77 78 82 87 92 97 101 104 105 104 103 101 101 100 98 99 98 97 97 98 100 102 103 104 104 103 103 103 101 100 99 99 98 98

GFSCGP_250_spd_117.txt.gz
Wind_Speed
77 73 70 70 64 57 53 50 49 49 49 31 27 29 28 18 18 21 18 12 8 9 3 4 9 14 19 21 22 25 26 29 30 32 28 31 31 32 32 33 33 34 34 33
79 77 74 71 67 64 58 53 52 45 51 50 45 34 40 38 25 30 20 18 14 11 7 4 6 11 21 22 22 21 24 25 28 30 28 26 28 30 30 32 32 31 32 33
84 84 79 74 71 68 63 57 58 58 50 43 44 54 47 40 36 32 26 23 21 14 11 2 6 10 16 18 23 19 22 21 24 27 28 26 25 25 29 29 32 30 29 29
87 83 80 78 76 73 67 60 62 63 58 47 32 49 47 48 40 32 34 27 20 17 16 9 5 9 12 15 19 18 17 17 17 18 22 20 24 24 25 28 27 30 28 25
87 84 83 82 80 77 72 66 62 55 70 55 50 56 53 54 47 42 37 30 24 20 19 15 8 8 7 10 13 14 13 13 15 14 16 19 18 20 21 22 25 27 27 26
88 86 86 85 84 81 75 76 85 69 72 71 52 55 53 56 50 43 42 37 31 24 21 17 14 13 7 4 7 8 11 9 9 10 12 15 16 14 16 18 18 21 24 24
80 79 85 86 86 82 80 81 80 77 69 72 66 51 54 56 55 50 47 43 41 34 30 27 20 19 16 7 8 4 6 7 7 6 8 9 12 14 15 18 19 20 22 23
82 82 83 86 84 85 85 83 80 79 81 79 75 68 47 59 58 56 53 50 42 35 34 31 23 22 23 16 8 4 3 3 3 4 5 3 6 10 13 12 13 16 18 19
84 85 84 85 87 88 87 84 82 81 78 76 81 79 75 67 62 59 57 54 50 42 39 40 34 34 26 17 14 9 6 4 3 5 5 3 2 4 8 10 12 12 12 12
86 85 84 85 87 87 86 86 85 82 80 78 74 73 68 68 69 65 63 57 48 44 44 42 37 40 35 25 20 17 13 10 8 8 10 5 5 3 4 2 5 5 9 9
82 85 83 83 82 85 88 86 84 82 82 81 76 76 62 75 66 67 62 57 52 50 42 47 45 45 39 36 29 22 22 20 14 15 14 9 7 8 5 6 5 5 1 3
83 87 84 81 84 85 89 89 87 86 81 80 83 75 50 79 65 70 67 61 54 55 50 49 53 49 46 43 37 32 26 27 22 23 17 16 14 9 13 8 6 10 10 7
87 85 86 85 86 86 85 86 88 86 87 87 86 85 87 82 80 67 66 63 58 58 57 59 55 51 52 46 46 40 33 32 27 29 31 27 22 20 14 16 11 14 14 15
85 87 87 91 89 86 85 84 87 89 88 86 88 91 85 86 77 71 66 66 61 61 59 53 51 52 54 51 47 45 43 38 36 37 34 30 22 25 26 21 16 18 19 17
85 90 92 87 89 88 85 85 87 88 87 90 93 95 88 86 80 80 79 77 72 70 68 59 51 51 52 48 50 51 49 47 43 40 38 32 27 28 29 27 22 24 22 24
84 89 88 86 90 90 89 87 85 86 90 89 94 90 57 78 91 84 90 80 81 76 69 69 64 48 57 55 49 43 46 50 48 46 49 47 42 40 31 34 31 31 28 27
76 81 87 90 90 88 91 92 90 89 93 94 98 91 86 59 75 95 87 95 80 84 85 84 79 79 72 59 60 60 57 51 51 52 56 56 54 49 46 37 41 35 35 32
73 75 81 86 88 87 94 91 93 91 89 88 88 90 72 84 105 95 93 90 92 93 81 69 71 70 79 84 62 58 51 49 50 54 52 51 55 59 59 51 42 42 38 40
73 73 72 78 76 85 90 91 97 98 92 91 95 89 96 100 99 96 95 93 94 98 95 90 78 74 72 69 75 58 62 61 54 54 58 61 55 63 61 59 47 53 49 48
78 76 78 80 82 82 97 93 92 93 92 86 101 92 93 94 97 97 96 97 96 98 97 94 92 85 84 79 82 83 74 67 66 67 70 60 61 57 52 58 53 47 58 58
69 84 87 83 84 86 91 91 93 96 95 104 96 99 94 93 93 92 95 98 101 100 98 98 98 98 96 87 83 75 72 77 72 76 73 64 61 65 67 69 66 58 54 60
68 75 89 87 84 80 81 83 97 99 98 98 100 100 98 97 95 95 95 96 98 101 102 102 101 100 101 104 98 94 88 81 81 77 81 73 73 71 76 78 72 65 67 63
55 66 76 86 85 83 82 80 83 89 94 99 99 99 98 101 98 96 97 97 97 97 100 103 104 103 102 101 99 98 98 92 88 81 80 78 76 77 79 77 70 74 75 63
40 52 62 73 81 85 86 82 80 78 79 86 93 98 99 99 102 103 99 99 99 99 98 99 102 103 104 103 101 97 97 97 99 96 97 92 94 95 94 95 88 88 80 77
28 36 49 57 71 83 87 83 81 80 77 77 81 88 98 100 101 103 105 104 101 101 102 102 100 101 103 103 103 101 100 100 99 100 104 103 104 99 94 97 95 97 97 91
18 25 31 43 56 67 77 84 85 82 79 78 76 80 87 97 100 102 105 107 106 105 105 104 103 103 102 102 102 104 105 104 103 104 104 105 106 110 109 106 103 102 101 102

GFSCGP_250_spd_120.txt.gz
Wind_Speed
79 76 71 68 62 57 52 49 45 40 29 30 25 21 35 24 21 17 19 8 7 7 5 6 16 22 22 24 23 25 30 33 34 33 34 34 32 33 33 34 33 31 32 30
80 78 76 71 66 60 55 50 47 42 39 33 19 22 24 28 21 21 16 12 10 9 2 2 15 19 22 21 22 21 26 30 31 28 32 32 33 35 33 32 32 30 31 30
83 84 79 75 70 66 62 54 51 49 49 43 30 28 29 29 26 16 18 16 14 13 5 3 8 12 19 21 19 19 18 23 27 23 19 26 28 32 36 33 31 31 30 31
84 85 82 77 75 71 65 58 54 51 55 53 38 42 34 39 33 31 27 23 18 16 9 10 4 7 15 18 18 17 13 14 21 21 19 18 23 25 31 34 35 30 32 31
84 85 82 79 79 75 69 64 60 53 55 47 47 45 40 39 40 32 30 29 25 22 13 12 7 4 6 12 14 15 12 12 17 14 17 18 21 21 25 30 36 39 34 32
81 86 84 84 82 78 74 67 63 61 53 57 59 49 58 55 52 52 42 40 31 23 18 16 9 10 5 6 9 10 12 11 10 13 16 17 18 20 22 25 28 31 34 34
82 82 83 85 85 82 76 72 67 66 50 63 65 54 55 54 46 47 48 43 35 30 24 17 17 11 13 4 8 7 6 8 10 7 10 11 14 16 16 19 21 26 28 33
84 80 80 87 87 85 80 78 74 81 74 51 72 61 52 50 49 44 47 44 45 37 34 25 25 20 19 13 9 4 2 5 6 9 11 10 8 10 14 15 18 21 21 25
84 85 88 92 90 89 86 85 82 85 82 53 69 62 57 50 46 48 53 50 50 43 39 39 34 27 23 14 12 7 5 2 5 6 10 9 5 6 11 11 14 14 17 20
83 83 84 89 92 91 90 90 89 92 84 71 66 79 79 60 57 49 51 51 51 48 43 40 41 34 27 27 22 18 12 11 7 4 7 7 5 6 10 11 13 11 11 12
82 83 85 88 91 92 92 92 89 92 98 91 74 81 79 65 55 53 55 58 58 54 51 47 44 38 33 31 29 26 24 20 17 12 12 8 9 10 12 11 11 12 10 9
80 84 90 83 86 94 95 95 93 92 91 92 84 78 79 69 43 41 57 60 59 55 52 48 46 40 36 38 35 36 32 31 25 20 18 20 17 17 17 17 12 10 13 9
82 79 82 85 87 90 94 95 94 92 95 94 98 89 75 78 66 59 79 75 68 58 53 49 45 38 39 47 32 26 35 31 34 22 16 24 28 27 22 19 18 13 13 14
78 83 85 93 92 90 92 95 94 95 94 94 97 95 88 84 82 69 54 75 79 67 61 56 49 41 43 37 33 40 40 15 21 11 12 18 19 35 25 20 18 20 17 15
79 82 92 91 90 92 88 92 94 93 91 95 98 98 97 86 82 82 51 66 65 67 61 60 53 51 53 52 43 49 50 50 44 39 29 37 30 36 26 25 19 23 23 21
71 81 86 91 90 89 87 87 86 91 95 95 100 96 90 79 49 66 88 60 67 62 58 61 58 62 60 62 55 47 47 45 48 50 48 45 42 41 37 35 28 26 26 25
71 78 81 89 92 92 90 93 93 92 96 97 103 94 90 84 83 60 53 75 67 65 60 63 60 65 64 60 62 63 63 59 54 48 48 53 52 51 50 44 43 38 39 32
70 75 78 86 88 88 90 92 89 94 93 103 95 86 88 90 96 70 57 71 90 77 69 66 71 65 67 68 67 65 62 56 60 57 55 52 56 50 54 53 48 53 49 42
67 72 78 79 86 88 91 96 95 93 92 91 84 77 79 86 94 95 92 60 61 100 88 85 76 71 68 75 70 55 64 62 64 61 57 58 63 58 57 55 56 54 54 53
64 69 71 81 86 91 98 94 92 93 94 89 86 80 79 81 87 95 102 99 90 81 98 89 84 83 81 82 81 77 65 61 55 61 61 60 60 60 55 56 58 60 63 60
61 70 72 76 73 80 90 92 95 101 97 95 93 81 59 69 85 90 101 98 69 79 96 94 99 95 92 92 91 94 90 85 86 88 87 74 65 60 59 59 58 62 51 56
51 64 72 72 71 74 78 86 94 101 98 99 98 89 94 69 68 85 93 106 113 85 73 78 105 102 97 96 94 97 102 98 94 92 82 82 73 74 65 64 69 67 63 65
37 47 64 73 78 80 78 80 88 96 102 101 101 101 100 112 105 91 92 100 103 106 109 111 98 101 106 103 100 103 94 82 85 87 86 82 83 81 74 74 75 70 69 65
45 45 54 56 79 84 84 84 85 86 96 100 103 99 101 108 108 103 107 98 99 111 103 94 90 94 108 110 107 104 107 107 100 97 91 84 84 88 88 82 83 83 83 88
48 51 58 65 64 85 93 88 93 91 93 94 93 99 99 98 106 110 110 111 113 110 109 115 114 110 107 109 111 112 111 110 109 105 104 106 99 96 89 86 88 89 86 88
29 36 44 52 61 65 78 94 93 94 92 90 91 92 94 98 106 105 106 108 111 112 110 111 109 108 108 109 112 116 117 115 114 111 109 110 111 107 103 103 103 99 96 96

GFSCGP_250_spd_123.txt.gz
Wind_Speed
79 78 74 71 66 58 53 50 47 42 38 38 33 24 19 19 18 15 12 8 7 10 11 11 20 20 23 25 26 27 26 23 31 35 41 46 48 43 44 40 39 30 26 26
76 78 79 75 68 64 56 51 49 48 41 35 28 26 23 19 21 17 14 8 2 8 9 7 15 19 21 23 20 23 26 29 29 29 35 38 45 46 52 47 42 37 33 28
77 83 83 79 72 68 60 56 49 47 42 38 33 28 24 26 26 24 19 14 2 6 6 5 9 17 19 21 21 21 20 25 25 29 32 34 38 41 43 50 45 38 35 31
80 83 83 80 76 72 65 56 53 50 44 42 37 36 30 33 30 30 20 17 7 2 3 6 1 8 16 19 20 19 17 21 23 14 25 27 31 35 38 46 50 39 36 33
81 82 83 80 77 75 65 56 51 52 51 47 45 38 36 29 34 33 26 21 12 7 5 3 1 3 9 15 16 18 17 16 19 20 19 22 27 29 33 39 42 44 39 35
79 82 84 83 81 79 74 69 64 58 52 56 51 43 42 43 37 37 31 26 20 12 12 9 5 5 5 10 10 11 14 14 12 16 16 18 19 21 27 30 34 35 39 37
73 80 82 85 84 80 78 76 68 63 58 59 60 51 46 47 43 42 39 32 23 20 19 13 8 8 6 8 9 8 7 12 11 14 13 14 16 18 20 26 26 30 30 35
78 80 79 82 84 85 82 77 72 71 59 59 59 56 55 45 50 38 35 38 32 33 35 28 15 12 9 11 9 7 1 6 10 12 12 10 12 15 16 19 24 21 24 27
78 87 91 88 91 91 87 80 77 75 73 61 59 58 54 60 51 52 53 50 45 42 39 33 25 21 16 13 10 4 4 4 6 8 7 8 8 12 14 17 17 17 16 19
75 77 81 87 91 91 89 84 81 80 80 73 71 61 64 57 55 58 59 52 45 43 39 33 28 26 28 27 20 19 12 10 6 4 3 4 6 4 14 14 14 12 13 15
72 74 80 84 86 89 89 88 85 84 83 84 72 61 63 70 54 57 50 50 53 45 43 40 38 31 30 32 30 26 20 19 18 12 12 8 1 4 1 6 10 10 10 11
76 74 77 82 85 89 92 93 89 88 86 85 80 69 70 75 65 53 53 47 41 43 49 53 40 37 37 36 34 32 24 24 24 25 17 17 17 15 9 10 4 6 9 11
74 75 77 81 88 88 93 93 92 91 91 86 89 66 77 70 62 46 37 48 42 43 45 46 47 46 45 37 36 33 28 34 31 28 27 29 20 19 13 7 8 6 6 9
77 79 80 86 88 90 93 94 95 97 94 92 94 87 70 66 57 43 38 31 36 42 47 51 50 52 47 42 40 30 32 33 28 21 24 28 23 18 12 11 8 7 7 12
75 83 87 84 90 89 90 96 98 100 97 97 98 88 79 82 65 61 39 39 41 36 39 42 51 54 48 44 36 33 30 25 26 25 23 25 16 23 17 12 12 12 15 15
70 82 83 81 86 90 94 98 101 97 102 103 105 94 84 80 72 71 60 48 63 56 41 40 54 60 60 53 45 33 29 33 39 31 29 33 31 24 25 18 20 17 19 20
63 71 82 86 86 90 96 97 96 99 98 103 106 105 95 88 79 63 51 54 62 79 56 49 54 58 59 59 54 46 46 39 37 49 52 52 56 49 42 43 30 26 26 28
63 69 77 86 90 92 93 94 96 98 99 96 103 99 103 98 86 78 73 65 57 45 62 75 57 55 60 58 58 56 66 65 59 56 52 55 53 49 50 53 48 41 37 40
58 65 70 77 88 89 92 93 99 98 99 99 91 90 98 100 98 91 87 74 79 48 46 31 58 53 48 54 52 58 63 71 73 72 71 69 67 68 62 59 56 52 52 50
56 64 66 70 77 87 91 96 99 96 99 99 92 92 97 103 101 100 93 94 69 55 47 47 56 65 64 61 59 61 66 74 75 71 72 71 72 73 67 63 60 55 52 49
53 59 62 67 71 74 89 95 96 96 99 95 95 93 98 102 103 104 103 107 103 73 53 61 78 82 74 68 68 74 83 81 78 77 75 76 76 75 71 68 66 60 56 57
44 54 65 69 63 72 82 89 91 95 101 99 94 92 94 98 104 105 110 108 112 115 92 81 77 87 88 80 83 80 85 90 85 81 77 69 68 68 72 69 66 67 61 62
42 58 69 70 69 71 74 82 88 92 99 102 95 97 92 96 99 106 108 112 116 117 120 121 114 80 90 88 72 74 87 92 89 91 87 84 78 70 67 65 69 71 64 63
30 50 60 64 75 79 76 72 80 90 97 100 100 94 72 91 97 96 102 104 112 117 118 118 118 111 105 98 97 93 89 98 89 92 94 93 92 88 84 83 82 80 82 77
23 25 47 68 78 77 78 76 76 81 89 95 97 89 95 94 95 98 102 102 102 107 115 117 119 121 123 120 112 108 107 102 113 110 104 98 97 98 98 99 99 98 94 88
27 24 28 39 68 74 76 81 80 82 87 91 94 98 99 101 103 102 97 96 102 103 106 110 115 119 121 121 120 113 110 109 107 114 114 110 108 106 98 96 97 94 100 93

GFSCGP_250_spd_129.txt.gz
Wind_Speed
59 56 57 67 73 64 57 53 51 47 43 42 37 31 25 22 18 9 6 2 4 7 10 15 19 19 21 23 28 33 36 38 40 40 40 38 32 31 29 33 24 22 25 23
66 66 66 68 73 68 62 59 55 54 50 46 39 34 28 24 24 16 13 8 3 7 7 14 19 18 19 23 27 29 32 34 37 44 41 41 42 35 34 32 31 30 30 30
74 75 69 67 72 74 69 66 63 57 53 47 45 43 32 28 26 20 18 15 9 7 9 11 14 16 15 18 22 27 29 28 30 36 41 42 43 41 39 40 38 35 31 30
82 75 72 70 71 77 74 69 66 61 56 51 46 43 37 32 30 24 22 17 12 7 8 8 9 16 18 15 17 21 25 27 30 28 33 36 39 43 42 43 43 42 36 30
86 82 75 74 76 81 76 70 68 64 59 55 53 46 42 36 34 30 24 21 17 8 10 8 13 14 17 15 14 16 19 24 27 29 28 30 37 38 40 39 42 43 41 38
80 87 81 79 73 73 77 72 69 70 66 59 58 56 49 42 40 35 30 25 25 15 14 10 7 7 13 14 12 15 18 19 23 25 24 24 26 33 34 34 35 39 40 39
69 87 87 81 74 71 76 76 72 71 67 64 60 58 53 51 46 36 32 29 32 24 17 16 10 8 9 12 9 9 13 15 18 23 23 22 22 22 26 26 29 30 34 34
64 87 90 86 78 72 75 78 77 76 75 70 62 60 56 53 47 45 40 34 33 29 22 17 13 10 7 4 5 9 7 9 14 16 19 18 20 20 20 20 24 25 26 27
60 78 88 84 79 75 77 81 81 78 75 71 66 62 60 55 52 49 45 42 41 34 29 22 17 13 9 6 2 2 6 5 6 11 10 13 14 16 19 16 16 17 18 20
54 74 81 81 81 81 82 86 85 83 78 71 68 66 65 61 53 51 48 45 42 39 32 27 20 15 11 13 10 8 4 1 4 3 3 5 6 5 9 9 11 11 12 11
54 68 75 78 80 82 84 86 88 87 82 75 69 68 69 66 58 55 51 47 48 45 38 35 24 21 19 15 14 14 12 10 9 10 12 7 4 9 6 11 5 4 9 11
52 68 74 77 80 84 92 92 90 88 83 73 68 73 70 66 61 58 54 52 52 50 46 40 36 27 24 22 22 22 18 16 17 15 14 15 9 10 13 15 11 4 1 4
49 67 74 80 85 86 89 90 89 89 86 78 74 73 71 68 65 61 56 53 54 52 45 44 41 41 29 30 28 27 25 24 28 23 20 19 17 12 14 12 20 11 6 4
45 65 75 82 87 84 86 86 88 89 88 84 80 73 74 70 67 65 62 62 60 57 47 49 48 43 38 32 36 33 30 30 32 28 22 21 19 19 18 20 18 20 11 9
47 60 75 80 83 82 85 85 82 90 90 87 88 82 75 72 70 70 69 67 67 60 56 49 49 50 48 34 35 37 36 32 32 32 25 21 21 19 23 22 21 20 13 11
46 58 71 79 81 83 86 87 85 85 91 91 87 84 86 77 75 72 71 71 72 67 63 53 49 50 48 42 37 38 35 37 36 39 31 26 27 25 32 27 27 22 24 25
43 57 68 79 83 85 86 89 91 89 85 92 94 84 87 85 82 79 80 70 67 69 65 57 60 55 47 43 43 41 40 38 40 45 38 37 36 35 38 36 34 31 28 31
38 48 65 77 84 86 85 88 93 96 92 89 91 88 81 87 85 83 81 77 69 59 60 61 59 51 46 39 36 41 39 41 41 44 46 43 39 37 38 42 37 40 39 32
38 48 58 73 82 84 86 87 94 96 101 98 97 97 84 81 84 78 79 71 75 75 65 58 55 49 43 38 44 37 38 58 53 46 44 47 43 44 41 43 38 42 43 42
33 44 52 66 78 85 87 90 92 96 101 102 105 103 100 81 79 68 69 66 67 76 73 74 67 58 49 44 42 45 53 54 65 48 56 54 55 53 51 49 48 47 52 52
26 40 51 62 69 78 88 90 90 92 97 102 105 108 108 102 95 88 84 70 67 75 75 72 68 60 52 54 50 56 60 59 50 57 58 56 58 63 59 61 60 54 60 69
20 35 45 58 65 70 82 88 91 94 94 99 103 105 106 108 105 98 93 87 75 78 75 75 73 66 67 68 74 64 63 65 66 66 64 60 61 67 73 68 62 65 68 66
20 29 42 51 62 68 74 83 89 93 95 94 96 100 104 105 108 107 99 94 92 82 85 81 75 74 74 72 71 66 66 68 70 66 61 64 56 56 63 63 69 71 80 78
17 24 39 47 56 64 67 73 83 91 92 91 91 95 100 102 106 107 108 104 101 96 84 85 85 84 76 82 78 73 73 72 79 79 77 75 75 73 71 82 75 71 74 80
16 18 30 40 48 58 64 69 76 84 88 88 89 92 96 100 102 104 107 106 106 104 98 95 90 88 82 83 84 78 84 74 75 80 83 85 84 78 82 83 88 85 89 87
15 16 24 27 34 45 55 62 65 71 78 81 83 90 93 94 98 102 104 105 106 107 106 102 99 98 95 92 87 84 88 91 84 82 84 91 95 92 92 91 93 91 91 87

GFSCGP_250_spd_132.txt.gz
Wind_Speed
51 54 59 61 68 66 62 57 51 48 44 42 37 31 25 24 19 12 6 2 9 11 12 16 22 23 26 27 32 36 36 38 41 38 36 30 28 25 24 27 27 27 32 34
50 60 61 62 68 70 67 63 57 51 49 46 42 35 28 27 22 17 11 5 8 12 14 15 15 22 25 26 29 30 35 37 38 42 43 39 32 30 29 32 33 36 37 40
58 63 63 63 66 73 74 67 61 56 53 49 45 41 34 30 27 21 15 11 6 8 8 13 14 16 22 23 26 28 31 34 39 40 42 44 41 38 39 36 34 35 37 36
62 67 64 65 67 73 77 73 68 62 59 55 48 45 40 33 31 24 20 15 11 5 8 12 15 18 18 21 20 24 28 31 35 38 40 44 45 44 45 41 35 30 27 24
67 78 72 68 73 71 79 77 72 67 63 58 53 47 44 37 33 28 24 20 15 10 11 12 13 15 17 21 18 20 21 27 29 33 36 39 42 42 43 45 41 34 29 23
56 79 83 79 76 75 76 78 77 71 68 61 57 50 50 43 38 33 25 23 20 13 14 13 9 15 16 17 20 20 18 21 24 25 27 30 31 36 37 38 40 38 38 35
45 61 81 83 81 80 77 78 79 73 72 66 61 57 51 50 45 38 32 27 23 20 15 15 13 13 13 11 13 16 17 19 21 21 22 22 25 27 30 32 33 33 32 32
38 50 74 86 86 85 80 78 80 77 75 72 64 61 56 52 48 43 34 33 28 26 21 18 17 16 13 10 9 11 14 15 16 17 19 20 21 22 22 22 24 26 27 29
31 45 62 84 88 86 83 78 82 80 80 75 68 63 60 55 52 46 41 36 36 36 31 26 24 21 16 11 9 7 6 11 13 11 12 15 17 17 15 16 16 17 19 22
23 40 57 79 87 87 86 81 81 81 81 79 71 69 66 64 61 53 49 45 44 39 34 31 27 25 22 12 11 10 7 2 3 2 4 6 6 7 13 13 14 13 12 13
18 29 57 77 85 88 86 82 77 80 79 82 76 73 68 66 63 60 55 51 48 43 39 36 32 30 23 18 16 15 9 8 4 5 5 7 7 4 2 8 10 7 10 12
18 24 51 75 85 87 87 84 78 82 85 85 78 74 71 67 65 63 59 56 53 48 47 42 41 35 29 26 18 22 14 12 9 7 8 9 11 9 6 8 6 2 1 3
22 24 38 71 87 88 88 84 82 78 89 87 81 74 72 70 67 65 64 62 58 54 51 46 44 40 35 31 26 25 19 15 16 15 16 16 13 13 11 11 7 1 8 8
25 26 39 61 86 91 89 87 84 88 88 86 83 77 72 74 72 69 67 65 60 58 54 51 50 48 42 39 32 28 20 18 22 22 20 19 16 16 16 10 13 14 10 14
29 29 37 56 81 90 89 90 86 86 87 90 86 82 79 76 76 74 71 68 64 61 58 56 53 52 50 44 38 32 24 24 26 26 27 23 21 22 23 24 21 21 17 9
33 28 34 53 75 88 89 91 89 88 89 90 89 83 83 77 76 75 75 71 65 64 61 58 55 53 54 50 39 37 30 28 30 31 29 29 28 27 30 24 27 21 22 18
44 27 36 43 69 87 89 89 90 90 91 90 89 77 86 82 78 78 77 74 72 69 64 60 60 57 53 54 47 44 39 32 33 34 31 33 34 30 31 32 33 24 26 32
46 28 33 45 60 82 88 91 93 94 94 93 91 91 78 83 81 78 80 79 77 71 68 63 63 63 61 56 49 44 39 36 34 34 36 41 38 39 41 40 37 38 32 36
44 26 31 43 54 73 87 92 93 95 95 96 94 95 87 80 85 82 81 81 76 78 75 74 74 70 66 65 56 52 47 41 43 40 44 45 47 42 51 46 45 42 40 35
43 26 28 40 52 65 84 92 93 94 93 95 98 96 96 89 87 86 84 79 78 79 78 79 78 76 75 68 65 59 53 50 45 41 48 48 57 51 52 46 43 48 47 44
43 28 25 35 48 60 77 89 92 93 95 96 98 99 97 98 90 92 90 88 82 79 79 75 79 80 76 77 70 65 54 51 46 49 51 56 58 57 57 55 58 53 54 55
43 30 23 32 46 59 68 83 90 94 95 93 96 99 100 103 100 90 96 92 92 85 85 83 76 77 75 74 72 65 58 56 55 65 64 67 68 65 62 61 66 65 63 59
43 30 22 28 43 56 63 75 89 94 93 98 99 99 99 100 100 93 92 96 89 91 95 91 86 79 78 74 76 65 66 59 58 68 65 71 69 68 71 79 74 74 71 68
41 28 19 23 35 51 61 71 81 89 90 92 98 101 102 98 94 101 95 93 95 87 83 78 80 78 77 77 78 75 75 74 72 73 78 74 77 79 76 80 84 81 80 76
38 26 16 17 29 43 55 62 68 79 87 91 92 95 107 107 106 100 100 94 90 90 89 86 84 84 81 82 79 85 84 80 74 75 79 83 84 83 82 82 88 95 94 89
34 23 12 12 24 36 48 56 65 71 80 90 90 90 97 108 112 111 106 103 94 94 93 93 95 90 85 90 84 83 86 83 83 83 86 83 83 85 90 92 92 91 93 92

GFSCGP_250_spd_135.txt.gz
Wind_Speed
46 48 47 53 57 62 62 59 55 51 45 41 40 36 28 20 18 10 3 6 9 12 15 16 21 25 26 32 34 35 33 33 29 26 27 28 29 32 35 36 37 38 40 41
49 52 52 55 56 61 67 64 60 56 51 44 41 39 35 25 20 17 10 7 12 12 12 14 18 21 25 31 34 36 38 38 38 35 32 33 37 37 39 39 40 37 39 37
49 54 53 60 60 58 68 69 66 61 55 51 49 41 39 31 24 19 16 11 10 9 12 13 15 17 21 27 32 35 38 36 38 40 39 35 36 36 36 35 36 34 34 32
52 54 57 60 65 62 65 73 71 66 61 57 51 46 43 36 29 25 19 15 12 10 13 15 17 15 16 22 26 32 36 37 39 44 42 35 35 33 33 33 27 29 25 18
53 54 60 57 65 66 64 71 75 71 65 61 55 49 46 42 34 29 23 18 16 12 12 14 18 19 13 17 18 25 30 33 35 38 41 40 37 33 33 27 22 18 20 19
51 60 66 64 62 70 69 68 76 76 72 66 59 55 49 47 39 34 29 24 21 15 17 14 19 22 19 18 18 20 22 24 29 33 34 36 38 38 35 35 34 32 32 32
42 60 67 73 72 73 76 72 75 79 77 70 64 61 54 49 46 39 33 29 26 18 23 15 15 20 22 19 19 20 19 18 20 23 29 30 29 30 29 28 30 30 31 32
27 44 62 79 82 82 83 80 77 82 80 74 71 65 58 54 51 44 37 32 29 29 24 19 17 16 20 20 19 19 21 20 17 17 20 22 20 23 23 22 27 27 27 26
19 26 42 57 76 86 88 86 81 80 79 81 75 68 64 59 55 52 43 37 37 36 32 27 24 20 17 20 20 19 17 20 18 15 16 16 17 17 18 19 19 20 19 20
23 17 27 39 63 88 91 86 82 81 84 84 77 72 70 64 59 58 49 44 42 39 35 34 28 24 21 19 19 17 17 15 13 9 8 7 8 11 11 13 14 13 12 14
36 19 18 33 53 84 91 85 85 83 83 86 84 76 74 69 64 60 55 51 47 45 40 40 30 31 25 21 19 19 16 14 9 5 4 4 5 3 4 8 7 11 11 11
32 33 14 31 47 79 90 87 85 82 82 85 88 81 78 73 69 64 61 56 52 50 43 42 36 37 35 29 23 23 19 16 13 10 6 3 1 3 4 3 2 3 5 9
29 32 21 19 45 72 91 89 86 86 84 83 90 87 80 77 74 70 66 63 59 54 50 45 42 42 42 38 31 30 26 19 17 14 11 7 5 7 8 7 8 8 6 6
31 30 31 16 38 67 90 91 90 88 85 80 89 93 85 81 79 76 71 67 63 60 57 53 48 47 45 42 39 34 32 27 20 19 16 14 12 12 12 8 5 13 10 8
30 29 28 19 25 60 89 92 91 90 87 89 93 94 90 84 80 80 78 74 70 65 60 58 54 55 52 48 43 39 33 34 27 21 17 19 17 17 18 20 22 21 19 15
26 30 32 27 23 49 83 93 91 91 90 87 91 94 92 88 83 81 80 77 72 70 65 62 59 57 58 55 51 45 39 33 32 30 25 24 22 21 22 24 23 29 25 21
28 33 31 35 21 37 73 94 94 91 89 89 89 91 92 91 87 82 81 78 75 72 68 65 63 60 63 57 54 49 44 40 35 32 30 26 28 28 29 28 30 27 25 19
31 30 33 40 24 38 60 93 97 95 91 87 91 92 95 94 87 83 81 79 76 75 72 70 68 65 68 63 60 56 53 49 43 38 34 32 33 33 33 33 31 31 32 31
31 33 34 40 26 37 54 84 98 98 93 93 89 87 94 96 86 85 82 79 79 78 77 76 74 70 68 67 65 60 58 55 52 48 45 40 36 37 32 33 36 40 36 41
32 36 36 39 28 36 54 73 99 101 101 100 94 88 82 93 92 87 82 81 84 82 81 79 76 73 68 69 68 65 63 57 56 56 54 49 40 39 37 38 44 41 45 51
34 39 38 38 25 36 52 66 91 102 104 103 104 100 95 90 91 90 88 85 83 86 86 81 78 75 72 72 70 65 67 65 64 59 54 45 41 42 40 43 50 55 56 61
34 37 43 38 23 33 50 64 78 101 104 105 105 98 97 94 91 93 91 86 83 83 80 79 81 81 78 76 72 69 70 72 70 66 64 52 48 52 57 58 56 59 62 64
34 38 46 35 23 27 47 59 72 89 105 105 101 99 96 98 96 91 90 88 87 86 81 82 83 83 83 80 77 78 75 75 74 75 72 68 63 63 64 60 55 64 66 69
33 40 48 32 22 24 39 54 65 77 91 102 102 101 101 99 97 96 90 94 94 89 91 88 84 81 80 82 84 83 81 80 75 75 74 71 68 63 72 74 72 71 76 82
31 40 49 31 22 21 33 49 60 67 80 92 100 101 101 102 101 100 96 90 92 92 92 86 89 86 84 84 85 88 88 87 83 82 80 77 71 70 78 83 80 75 83 84
32 39 47 31 21 20 30 45 57 56 59 69 87 95 101 99 101 101 101 104 98 89 91 92 83 86 88 87 87 88 88 86 86 84 84 80 78 77 83 88 91 85 85 87

GFSCGP_250_spd_138.txt.gz
Wind_Speed
42 45 49 48 46 50 58 56 52 49 45 41 39 37 29 22 16 7 1 6 5 12 15 18 22 28 26 23 23 26 22 24 23 26 27 26 27 30 33 39 43 41 38 40
43 45 50 51 50 50 57 62 58 54 51 48 44 36 36 27 19 14 6 6 8 7 12 15 19 26 27 28 28 26 24 28 29 28 28 28 30 36 33 36 37 36 34 31
39 44 49 54 55 54 55 65 63 59 56 52 50 43 39 34 25 19 14 10 8 7 9 11 15 26 26 28 30 30 28 29 28 28 30 32 33 33 30 29 28 29 25 24
41 46 51 56 60 59 58 61 68 65 61 57 53 49 44 39 33 24 20 16 12 8 9 13 12 21 26 26 31 35 27 28 26 27 28 28 28 26 25 25 23 19 17 16
37 44 52 57 60 63 62 62 69 70 66 63 57 53 47 42 38 30 25 22 16 12 11 14 14 15 22 24 28 31 30 29 28 25 25 21 21 18 16 19 13 12 15 13
41 46 50 56 63 65 67 66 69 75 72 68 63 62 55 48 42 37 30 25 22 19 16 16 15 16 18 22 23 27 31 29 25 32 34 31 25 27 27 28 28 27 26 22
31 42 50 59 59 66 69 71 70 76 77 73 70 67 56 53 47 42 36 30 28 23 20 20 22 20 17 20 18 25 28 27 25 27 24 24 24 25 25 30 30 30 32 32
21 26 40 55 66 68 68 73 74 74 80 78 74 70 63 56 53 47 42 36 30 29 27 22 25 23 21 20 19 21 21 25 25 21 21 21 23 26 27 26 27 28 29 32
23 21 24 44 66 74 68 73 79 75 76 81 78 74 69 63 58 52 47 42 36 34 33 27 25 25 24 23 22 23 23 23 22 22 20 20 18 19 20 20 20 22 22 24
20 26 19 27 53 74 75 75 76 79 78 80 82 79 73 68 63 57 53 46 41 36 39 31 28 26 27 27 25 23 23 20 19 18 16 15 14 15 12 12 14 17 18 19
19 23 25 16 32 61 79 80 78 77 78 79 82 84 78 72 68 63 58 49 48 44 42 37 33 29 25 28 28 27 25 21 17 16 14 12 11 10 9 11 11 11 14 15
19 21 24 25 18 42 68 89 82 83 85 81 80 87 82 77 73 67 61 57 54 50 47 46 41 34 30 27 28 28 25 21 18 16 13 12 11 10 6 6 10 12 12 11
21 20 19 21 20 26 43 77 92 89 89 87 84 87 86 81 78 71 67 61 58 54 48 50 47 44 40 35 31 30 27 24 19 17 15 13 10 6 6 6 8 10 11 10
24 20 17 19 23 16 33 54 83 92 94 91 88 88 90 87 82 78 73 65 63 59 56 54 56 50 47 43 38 35 34 30 24 21 19 15 12 10 8 8 8 13 13 12
24 21 19 20 22 24 19 43 71 97 99 92 89 90 91 91 87 84 79 73 71 68 63 61 59 57 52 51 46 43 40 38 31 27 24 20 17 15 11 13 16 18 15 15
24 23 19 21 21 23 22 33 55 90 99 95 85 82 94 95 91 87 83 79 77 73 70 67 65 60 57 53 55 50 46 43 39 35 30 28 24 22 20 19 23 22 26 22
23 22 22 22 23 20 25 26 50 84 99 95 96 93 92 94 94 91 89 85 80 77 74 70 66 65 61 55 54 58 52 49 44 41 38 34 31 24 24 24 23 28 27 26
25 24 25 25 25 27 26 29 44 79 99 96 96 92 89 95 98 95 93 87 83 81 78 75 70 67 67 63 57 57 58 55 52 46 46 42 40 36 33 30 28 29 34 34
27 26 27 27 28 28 30 30 39 69 99 100 98 95 89 94 97 96 95 93 88 85 81 79 77 73 71 72 66 62 61 62 59 54 51 48 44 42 43 40 33 30 33 33
28 27 28 29 28 30 36 33 40 56 92 104 99 97 96 93 92 96 96 93 92 90 86 82 81 78 75 75 72 71 66 67 63 59 58 53 52 50 49 46 43 36 30 41
26 28 29 30 30 35 39 35 39 51 82 104 100 100 104 97 93 94 98 95 91 91 91 86 84 80 78 80 77 74 73 72 71 68 67 63 61 59 56 53 49 45 43 40
25 27 29 29 34 35 38 33 40 51 68 102 104 103 92 97 100 96 93 97 95 91 89 89 85 80 78 78 80 80 78 77 77 75 72 69 65 64 57 59 53 54 55 52
28 29 30 29 34 39 31 32 41 51 59 89 103 101 98 103 101 95 92 92 96 95 93 88 86 84 80 79 77 79 83 80 78 79 79 77 71 68 62 59 56 55 60 55
29 30 30 31 35 41 28 30 40 50 58 73 101 97 96 100 98 90 86 94 95 93 92 91 90 87 85 83 83 82 84 85 84 82 79 77 76 74 72 69 63 58 63 65
29 30 31 32 36 40 25 27 37 47 57 65 87 99 97 98 102 101 99 92 92 95 93 91 94 90 90 91 89 87 87 86 82 83 81 80 80 78 78 78 77 74 75 73
27 28 30 30 40 33 20 20 29 43 54 59 64 87 90 101 105 98 96 93 92 86 90 96 95 91 92 92 93 91 90 90 87 84 80 78 78 79 80 82 81 81 82 83